[[{"header":{"parameterUnit":"m.s-1","parameterCategory":1,"la1":31.0,"la2":29.5877,"lo1":-88.7671,"lo2":-86.6584,"dy":0.0162,"dx":0.0185,"nx":115,"ny":88,"refTime":"2026-05-10T00:00:00:Z","depth":0,"parameterNumber":2,"parameterNumberName":"U-component_of_WINDS"},"data":[0.0,0.0,0.0,0.0,0.0,0.0,0.0,0.0,0.0,0.0,0.0,0.0,0.0,0.0,0.0,0.0,0.0,0.0,0.0,0.0,0.0,0.0,0.0,0.0,0.0,0.0,0.0,0.0,0.0,0.0,0.0,0.0,0.0,0.0,0.0,0.0,0.0,0.0,0.0,0.0,0.0,1.5692,1.589,1.5951,1.5819,1.5793,1.5884,0.0,0.0,0.0,0.0,0.0,0.0,0.0,0.0,0.0,0.0,0.0,0.0,0.0,0.0,0.0,0.0,0.0,0.0,0.0,0.0,0.0,0.0,0.0,0.0,0.0,0.0,0.0,0.0,0.0,0.0,0.0,0.0,0.0,0.0,0.0,0.0,0.0,0.0,0.0,0.0,0.0,0.0,0.0,0.0,0.0,0.0,0.0,0.0,0.0,0.0,0.0,0.0,0.0,0.0,0.0,0.0,0.0,0.0,0.0,0.0,0.0,0.0,0.0,0.0,0.0,0.0,0.0,0.0,0.0,0.0,0.0,0.0,0.0,0.0,0.0,0.0,0.0,0.0,0.0,0.0,0.0,0.0,0.0,0.0,0.0,0.0,0.0,0.0,0.0,0.0,0.0,0.0,0.0,0.0,0.0,0.0,0.0,0.0,0.0,0.0,0.0,0.0,0.0,0.0,0.0,0.0,0.0,0.0,0.0,0.0,1.7461,1.776,1.6756,1.6618,1.7475,0.0,0.0,0.0,0.0,0.0,0.0,0.0,0.0,0.0,0.0,0.0,0.0,0.0,0.0,0.0,0.0,0.0,0.0,0.0,0.0,0.0,0.0,0.0,0.0,0.0,0.0,0.0,0.0,0.0,0.0,0.0,0.0,0.0,0.0,0.0,0.0,0.0,0.0,0.0,0.0,0.0,0.0,0.0,0.0,0.0,0.0,0.0,0.0,0.0,0.0,0.0,0.0,0.0,0.0,0.0,0.0,0.0,0.0,0.0,0.0,0.0,0.0,0.0,0.0,0.0,0.0,0.0,0.0,0.0,0.0,0.0,0.0,0.0,0.0,0.0,0.0,0.0,0.0,0.0,0.0,0.0,0.0,0.0,0.0,0.0,0.0,0.0,0.0,0.0,0.0,0.0,0.0,0.0,0.0,0.0,0.0,0.0,0.0,0.0,0.0,0.0,0.0,0.0,0.0,0.0,0.0,0.0,0.0,0.0,0.0,1.8242,1.8682,1.7436,1.6826,1.6973,0.0,0.0,0.0,0.0,0.0,0.0,0.0,0.0,0.0,0.0,0.0,0.0,0.0,0.0,0.0,0.0,0.0,0.0,0.0,0.0,0.0,0.0,0.0,0.0,0.0,0.0,0.0,0.0,0.0,0.0,0.0,0.0,0.0,0.0,0.0,0.0,0.0,0.0,0.0,0.0,0.0,0.0,0.0,0.0,0.0,0.0,0.0,0.0,0.0,0.0,0.0,0.0,0.0,0.0,0.0,0.0,0.0,0.0,0.0,0.0,0.0,0.0,0.0,0.0,0.0,0.0,0.0,0.0,0.0,0.0,0.0,0.0,0.0,0.0,0.0,0.0,0.0,0.0,0.0,0.0,0.0,0.0,0.0,0.0,0.0,0.0,0.0,0.0,0.0,0.0,0.0,0.0,0.0,0.0,0.0,0.0,0.0,0.0,0.0,0.0,0.0,0.0,0.0,0.0,0.0,0.0,0.0,0.0,0.0,0.0,1.8136,1.7884,1.6959,1.6394,1.6311,1.5724,0.0,0.0,0.0,0.0,0.0,0.0,0.0,0.0,0.0,0.0,0.0,0.0,0.0,0.0,0.0,0.0,0.0,0.0,0.0,0.0,0.0,0.0,0.0,0.0,0.0,0.0,0.0,0.0,0.0,0.0,0.0,0.0,0.0,0.0,0.0,0.0,0.0,0.0,0.0,0.0,0.0,0.0,0.0,0.0,0.0,0.0,0.0,0.0,0.0,0.0,0.0,0.0,0.0,0.0,0.0,0.0,0.0,0.0,0.0,0.0,0.0,0.0,0.0,0.0,0.0,0.0,0.0,0.0,0.0,0.0,0.0,0.0,0.0,0.0,0.0,0.0,0.0,0.0,0.0,0.0,0.0,0.0,0.0,0.0,0.0,0.0,0.0,0.0,0.0,0.0,0.0,0.0,0.0,0.0,0.0,0.0,0.0,0.0,0.0,0.0,0.0,0.0,0.0,0.0,0.0,0.0,0.0,0.0,0.0,1.7585,1.6397,1.5863,1.5626,1.5601,1.5227,0.0,0.0,0.0,0.0,0.0,0.0,0.0,0.0,0.0,0.0,0.0,0.0,0.0,0.0,0.0,0.0,0.0,0.0,0.0,0.0,0.0,0.0,0.0,0.0,0.0,0.0,0.0,0.0,0.0,0.0,0.0,0.0,0.0,0.0,0.0,0.0,0.0,0.0,0.0,0.0,0.0,0.0,0.0,0.0,0.0,0.0,0.0,0.0,0.0,0.0,0.0,0.0,0.0,0.0,0.0,0.0,0.0,0.0,0.0,0.0,0.0,0.0,0.0,0.0,0.0,0.0,0.0,0.0,0.0,0.0,0.0,0.0,0.0,0.0,0.0,0.0,0.0,0.0,0.0,0.0,0.0,0.0,0.0,0.0,0.0,0.0,0.0,0.0,0.0,0.0,0.0,0.0,0.0,0.0,0.0,0.0,0.0,0.0,0.0,0.0,0.0,0.0,0.0,0.0,0.0,0.0,0.0,0.0,0.0,1.6818,1.5784,1.4745,1.45,1.4964,1.3841,0.0,0.0,0.0,0.0,0.0,0.0,0.0,0.0,0.0,0.0,0.0,0.0,0.0,0.0,0.0,0.0,0.0,0.0,0.0,0.0,0.0,0.0,0.0,0.0,0.0,0.0,0.0,0.0,0.0,0.0,0.0,0.0,0.0,0.0,0.0,0.0,0.0,0.0,0.0,0.0,0.0,0.0,0.0,0.0,0.0,0.0,0.0,0.0,0.0,0.0,0.0,0.0,0.0,0.0,0.0,0.0,0.0,0.0,0.0,0.0,0.0,0.0,0.0,0.0,0.0,0.0,0.0,0.0,0.0,0.0,0.0,0.0,0.0,0.0,0.0,0.0,0.0,0.0,0.0,0.0,0.0,0.0,0.0,0.0,0.0,0.0,0.0,0.0,0.0,0.0,0.0,0.0,0.0,0.0,0.0,0.0,0.0,0.0,0.0,0.0,0.0,0.0,0.0,0.0,0.0,0.0,0.0,0.0,0.0,1.5405,1.4043,1.3292,1.3075,1.3319,1.2879,0.0,0.0,0.0,0.0,0.0,0.0,0.0,0.0,0.0,0.0,0.0,0.0,0.0,0.0,0.0,0.0,0.0,0.0,0.0,0.0,0.0,0.0,0.0,0.0,0.0,0.0,0.0,0.0,0.0,0.0,0.0,0.0,0.0,0.0,0.0,0.0,0.0,0.0,0.0,0.0,0.0,0.0,0.0,0.0,0.0,0.0,0.0,0.0,0.0,0.0,0.0,0.0,0.0,0.0,0.0,0.0,0.0,0.0,0.0,0.0,0.0,0.0,0.0,0.0,0.0,0.0,0.0,0.0,0.0,0.0,0.0,0.0,0.0,0.0,0.0,0.0,0.0,0.0,0.0,0.0,0.0,0.0,0.0,0.0,0.0,0.0,0.0,0.0,0.0,0.0,0.0,0.0,0.0,0.0,0.0,0.0,0.0,0.0,0.0,0.0,0.0,0.0,0.0,0.0,0.0,0.0,0.0,0.0,1.5035,1.3773,1.203,1.2012,1.2014,1.1884,1.2319,0.0,0.0,0.0,0.0,0.0,0.0,0.0,0.0,0.0,0.0,0.0,0.0,0.0,0.0,0.0,0.0,0.0,0.0,0.0,0.0,0.0,0.0,0.0,0.0,0.0,0.0,0.0,0.0,0.0,0.0,0.0,0.0,0.0,0.0,0.0,0.0,0.0,0.0,0.0,0.0,0.0,0.0,0.0,0.0,0.0,0.0,0.0,0.0,0.0,0.0,0.0,0.0,0.0,0.0,0.0,0.0,0.0,0.0,0.0,0.0,0.0,0.0,0.0,0.0,0.0,0.0,0.0,0.0,0.0,0.0,0.0,0.0,0.0,0.0,0.0,0.0,0.0,0.0,0.0,0.0,0.0,0.0,0.0,0.0,0.0,0.0,0.0,0.0,0.0,0.0,0.0,0.0,0.0,0.0,0.0,0.0,0.0,0.0,0.0,0.0,0.0,0.0,0.0,0.0,0.0,0.0,0.0,1.2503,1.2673,1.2061,1.0302,1.1347,1.2148,1.2459,1.2445,0.0,0.0,0.0,0.0,0.0,0.0,0.0,0.0,0.0,0.0,0.0,0.0,0.0,0.0,0.0,0.0,0.0,0.0,0.0,0.0,0.0,0.0,0.0,0.0,0.0,0.0,0.0,0.0,0.0,0.0,0.0,0.0,0.0,0.0,0.0,0.0,0.0,0.0,0.0,0.0,0.0,0.0,0.0,0.0,0.0,0.0,0.0,0.0,0.0,0.0,0.0,0.0,0.0,0.0,0.0,0.0,0.0,0.0,0.0,0.0,0.0,0.0,0.0,0.0,0.0,0.0,0.0,0.0,0.0,0.0,0.0,0.0,0.0,0.0,0.0,0.0,0.0,0.0,0.0,0.0,0.0,0.0,0.0,0.0,0.0,0.0,0.0,0.0,0.0,0.0,0.0,0.0,0.0,0.0,0.0,0.0,0.0,0.0,0.0,0.0,0.0,0.0,0.0,0.0,0.0,0.0,1.3931,1.1667,1.1751,1.1192,0.9757,1.0693,1.1427,1.1809,1.2103,0.0,0.0,0.0,0.0,0.0,0.0,0.0,0.0,0.0,0.0,0.0,0.0,0.0,0.0,0.0,0.0,0.0,0.0,0.0,0.0,0.0,0.0,0.0,0.0,0.0,0.0,0.0,0.0,0.0,0.0,0.0,0.0,0.0,0.0,0.0,0.0,0.0,0.0,0.0,0.0,0.0,0.0,0.0,0.0,0.0,0.0,0.0,0.0,0.0,0.0,0.0,0.0,0.0,0.0,0.0,0.0,0.0,0.0,0.0,0.0,0.0,0.0,0.0,0.0,0.0,0.0,0.0,0.0,0.0,0.0,0.0,0.0,0.0,0.0,0.0,0.0,0.0,0.0,0.0,0.0,0.0,0.0,0.0,0.0,0.0,0.0,0.0,0.0,0.0,0.0,0.0,0.0,0.0,0.0,0.0,0.0,0.0,0.0,0.0,0.0,0.0,0.0,0.0,0.0,0.0,0.0,1.3636,1.1365,1.1073,1.0533,0.968,1.0165,1.0758,1.1231,0.0,0.0,0.0,0.0,0.0,0.0,0.0,0.0,0.0,0.0,0.0,0.0,0.0,0.0,0.0,0.0,0.0,0.0,0.0,0.0,0.0,0.0,0.0,0.0,0.0,0.0,0.0,0.0,0.0,0.0,0.0,0.0,0.0,0.0,0.0,0.0,0.0,0.0,0.0,0.0,0.0,0.0,0.0,0.0,0.0,0.0,0.0,0.0,0.0,0.0,0.0,0.0,0.0,0.0,0.0,0.0,0.0,0.0,0.0,0.0,0.0,0.0,0.0,0.0,0.0,0.0,0.0,0.0,0.0,0.0,0.0,0.0,0.0,0.0,0.0,0.0,0.0,0.0,0.0,0.0,0.0,0.0,0.0,0.0,0.0,0.0,0.0,0.0,0.0,0.0,0.0,0.0,0.0,0.0,0.0,0.0,0.0,0.0,0.0,0.0,0.0,0.0,0.0,0.0,0.0,0.0,0.0,1.2902,1.0611,1.0305,0.9958,0.9452,0.9969,1.0611,1.1384,0.0,0.0,0.0,0.0,0.0,0.0,0.0,0.0,0.0,0.0,0.0,0.0,0.0,0.0,0.0,0.0,0.0,0.0,0.0,0.0,0.0,0.0,0.0,0.0,0.0,0.0,0.0,0.0,0.0,0.0,0.0,0.0,0.0,0.0,0.0,0.0,0.0,0.0,0.0,0.0,0.0,0.0,0.0,0.0,0.0,0.0,0.0,0.0,0.0,0.0,0.0,0.0,0.0,0.0,0.0,0.0,0.0,0.0,0.0,0.0,0.0,0.0,0.0,0.0,0.0,0.0,0.0,0.0,0.0,0.0,0.0,0.0,0.0,0.0,0.0,0.0,0.0,0.0,0.0,0.0,0.0,0.0,0.0,0.0,0.0,0.0,0.0,0.0,0.0,0.0,0.0,0.0,0.0,0.0,0.0,0.0,0.0,0.0,0.0,0.0,0.0,0.0,0.0,0.0,0.0,0.0,1.4479,1.3171,1.1593,1.0872,1.0267,0.9698,1.0743,1.1234,1.1107,0.0,0.0,0.0,0.0,0.0,0.0,0.0,0.0,0.0,0.0,0.0,0.0,0.0,0.0,0.0,0.0,0.0,0.0,0.0,0.0,0.0,0.0,0.0,0.0,0.0,0.0,0.0,0.0,0.0,0.0,0.0,0.0,0.0,0.0,0.0,0.0,0.0,0.0,0.0,0.0,0.0,0.0,0.0,0.0,0.0,0.0,0.0,0.0,0.0,0.0,0.0,0.0,0.0,0.0,0.0,0.0,0.0,0.0,0.0,0.0,0.0,0.0,0.0,0.0,0.0,0.0,0.0,0.0,0.0,0.0,0.0,0.0,0.0,0.0,0.0,0.0,0.0,0.0,0.0,0.0,0.0,0.0,0.0,0.0,0.0,0.0,0.0,0.0,0.0,0.0,0.0,0.0,0.0,0.0,0.0,0.0,0.0,0.0,0.0,0.0,0.0,0.0,0.0,0.0,0.0,1.6072,1.4951,1.352,1.2001,1.1012,1.0262,0.9799,1.0672,1.1107,1.0999,0.0,0.0,0.0,0.0,0.0,0.0,0.0,0.0,0.0,0.0,0.0,0.0,0.0,0.0,0.0,0.0,0.0,0.0,0.0,0.0,0.0,0.0,0.0,0.0,0.0,0.0,0.0,0.0,0.0,0.0,0.0,0.0,0.0,0.0,0.0,0.0,0.0,0.0,0.0,0.0,0.0,0.0,0.0,0.0,0.0,0.0,0.0,0.0,0.0,0.0,0.0,0.0,0.0,0.0,0.0,0.0,0.0,0.0,0.0,0.0,0.0,0.0,0.0,0.0,0.0,0.0,0.0,0.0,0.0,0.0,0.0,0.0,0.0,0.0,0.0,0.0,0.0,0.0,0.0,0.0,0.0,0.0,0.0,0.0,0.0,0.0,0.0,0.0,0.0,0.0,0.0,0.0,0.0,0.0,0.0,0.0,0.0,0.0,0.0,0.0,0.0,0.0,0.0,0.0,0.0,0.0,1.5156,1.367,1.0929,1.0222,0.9671,0.9245,0.9003,0.9691,1.1266,0.0,0.0,0.0,0.0,0.0,0.0,0.0,0.0,0.0,0.0,0.0,0.0,0.0,0.0,0.0,0.0,0.0,0.0,0.0,0.0,0.0,0.0,0.0,0.0,0.0,0.0,0.0,0.0,0.0,0.0,0.0,0.0,0.0,0.0,0.0,0.0,0.0,0.0,0.0,0.0,0.0,0.0,0.0,0.0,0.0,0.0,0.0,0.0,0.0,0.0,0.0,0.0,0.0,0.0,0.0,0.0,0.0,0.0,0.0,0.0,0.0,0.0,0.0,0.0,0.0,0.0,0.0,0.0,0.0,0.0,0.0,0.0,0.0,0.0,0.0,0.0,0.0,0.0,0.0,0.0,0.0,0.0,0.0,0.0,0.0,0.0,0.0,0.0,0.0,0.0,0.0,0.0,0.0,0.0,0.0,0.0,0.0,0.0,0.0,0.0,0.0,0.0,0.0,0.0,0.0,0.0,1.4199,1.3668,1.2723,1.2021,1.0466,0.8136,1.0001,1.0409,0.9004,0.0,0.0,0.0,0.0,0.0,0.0,0.0,0.0,0.0,0.0,0.0,0.0,0.0,0.0,0.0,0.0,0.0,0.0,0.0,0.0,0.0,0.0,0.0,0.0,0.0,0.0,0.0,0.0,0.0,0.0,0.0,0.0,0.0,0.0,0.0,0.0,0.0,0.0,0.0,0.0,0.0,0.0,0.0,0.0,0.0,0.0,0.0,0.0,0.0,0.0,0.0,0.0,0.0,0.0,0.0,0.0,0.0,0.0,0.0,0.0,0.0,0.0,0.0,0.0,0.0,0.0,0.0,0.0,0.0,0.0,0.0,0.0,0.0,0.0,0.0,0.0,0.0,0.0,0.0,0.0,0.0,0.0,0.0,0.0,0.0,0.0,0.0,0.0,0.0,0.0,0.0,0.0,0.0,0.0,0.0,0.0,0.0,0.0,0.0,0.0,0.0,0.0,0.0,0.0,0.0,0.0,1.345,1.2968,1.1996,1.0766,0.9267,0.7663,0.9423,1.0011,0.0,0.0,0.0,0.0,0.0,0.0,0.0,0.0,0.0,0.0,0.0,0.0,0.0,0.0,0.0,0.0,0.0,0.0,0.0,0.0,0.0,0.0,0.0,0.0,0.0,0.0,0.0,0.0,0.0,0.0,0.0,0.0,0.0,0.0,0.0,0.0,0.0,0.0,0.0,0.0,0.0,0.0,0.0,0.0,0.0,0.0,0.0,0.0,0.0,0.0,0.0,0.0,0.0,0.0,0.0,0.0,0.0,0.0,0.0,0.0,0.0,0.0,0.0,0.0,0.0,0.0,0.0,0.0,0.0,0.0,0.0,0.0,0.0,0.0,0.0,0.0,0.0,0.0,0.0,0.0,0.0,0.0,0.0,0.0,0.0,0.0,0.0,0.0,0.0,0.0,0.0,0.0,0.0,0.0,0.0,0.0,0.0,0.0,0.0,0.0,0.0,0.0,0.0,0.0,0.0,0.0,0.0,1.2922,1.1574,0.8382,0.6174,0.5927,0.781,0.6976,0.8302,0.0,0.0,0.0,0.0,0.0,0.0,0.0,0.0,0.0,0.0,0.0,0.0,0.0,0.0,0.0,0.0,0.0,0.0,0.0,0.0,0.0,0.0,0.0,0.0,0.0,0.0,0.0,0.0,0.0,0.0,0.0,0.0,0.0,0.0,0.0,0.0,0.0,0.0,0.0,0.0,0.0,0.0,0.0,0.0,0.0,0.0,0.0,0.0,0.0,0.0,0.0,0.0,0.0,0.0,0.0,0.0,0.0,0.0,0.0,0.0,0.0,0.0,0.0,0.0,0.0,0.0,0.0,0.0,0.0,0.0,0.0,0.0,0.0,0.0,0.0,0.0,0.0,0.0,0.0,0.0,0.0,0.0,0.0,0.0,0.0,0.0,0.0,0.0,0.0,0.0,0.0,0.0,0.0,0.0,0.0,0.0,0.0,0.0,0.0,0.0,0.0,0.0,0.0,0.0,0.0,0.0,0.0,0.954,0.8431,0.8979,0.719,0.383,-0.0897,0.4431,0.576,0.246,0.0,0.0,0.0,0.0,0.0,0.0,0.0,0.0,0.0,0.0,0.0,0.0,0.0,0.0,0.0,0.0,0.0,0.0,0.0,0.0,0.0,0.0,0.0,0.0,0.0,0.0,0.0,0.0,0.0,0.0,0.0,0.0,0.0,0.0,0.0,0.0,0.0,0.0,0.0,0.0,0.0,0.0,0.0,0.0,0.0,0.0,0.0,0.0,0.0,0.0,0.0,0.0,0.0,0.0,0.0,0.0,0.0,0.0,0.0,0.0,0.0,0.0,0.0,0.0,0.0,0.0,0.0,0.0,0.0,0.0,0.0,0.0,0.0,0.0,0.0,0.0,0.0,0.0,0.0,0.0,0.0,0.0,0.0,0.0,0.0,0.0,0.0,0.0,0.0,0.0,0.0,0.0,0.0,0.0,0.0,0.0,0.0,0.0,0.0,0.0,0.0,0.0,0.0,0.0,0.0,0.0,0.7569,0.5257,0.4779,0.2268,-0.1567,-0.6773,-0.0541,0.1597,-0.0888,0.0,0.0,0.0,0.0,0.0,0.0,0.0,0.0,0.0,0.0,0.0,0.0,0.0,0.0,0.0,0.0,0.0,0.0,0.0,0.0,0.0,0.0,0.0,0.0,0.0,0.0,0.0,0.0,0.0,0.0,0.0,0.0,0.0,0.0,0.0,0.0,0.0,0.0,0.0,0.0,0.0,0.0,0.0,0.0,0.0,0.0,0.0,0.0,0.0,0.0,0.0,0.0,0.0,0.0,0.0,0.0,0.0,0.0,0.0,0.0,0.0,0.0,0.0,0.0,0.0,0.0,0.0,0.0,0.0,0.0,0.0,0.0,0.0,0.0,0.0,0.0,0.0,0.0,0.0,0.0,0.0,0.0,0.0,0.0,0.0,0.0,0.0,0.0,0.0,0.0,0.0,0.0,0.0,0.0,0.0,0.0,0.0,0.0,0.0,0.0,0.0,0.0,0.0,0.0,0.0,0.0,0.0,0.1959,-0.296,-0.7531,-0.9995,-1.0136,-0.7631,-0.416,0.0382,0.0,0.0,0.0,0.0,0.0,0.0,0.0,0.0,0.0,0.0,0.0,0.0,0.0,0.0,0.0,0.0,0.0,0.0,0.0,0.0,0.0,0.0,0.0,0.0,0.0,0.0,0.0,0.0,0.0,0.0,0.0,0.0,0.0,0.0,0.0,0.0,0.0,0.0,0.0,0.0,0.0,0.0,0.0,0.0,0.0,0.0,0.0,0.0,0.0,0.0,0.0,0.0,0.0,0.0,0.0,0.0,0.0,0.0,0.0,0.0,0.0,0.0,0.0,0.0,0.0,0.0,0.0,0.0,0.0,0.0,0.0,0.0,0.0,0.0,0.0,0.0,0.0,0.0,0.0,0.0,0.0,0.0,0.0,0.0,0.0,0.0,0.0,0.0,0.0,0.0,0.0,0.0,0.0,0.0,0.0,0.0,0.0,0.0,0.0,0.0,0.0,0.0,0.0,0.0,0.0,0.0,0.4747,-0.1079,-0.6249,-1.443,-1.9585,-2.1063,-1.5346,-1.1964,-1.1499,0.0,0.0,0.0,0.0,0.0,0.0,0.0,0.0,0.0,0.0,0.0,0.0,0.0,0.0,0.0,0.0,0.0,0.0,0.0,0.0,0.0,0.0,0.0,0.0,0.0,0.0,0.0,0.0,0.0,0.0,0.0,0.0,0.0,0.0,0.0,0.0,0.0,0.0,0.0,0.0,0.0,0.0,0.0,0.0,0.0,0.0,0.0,0.0,0.0,0.0,0.0,0.0,0.0,0.0,0.0,0.0,0.0,0.0,0.0,0.0,0.0,0.0,0.0,0.0,0.0,0.0,0.0,0.0,0.0,0.0,0.0,0.0,0.0,0.0,0.0,0.0,0.0,0.0,0.0,0.0,0.0,0.0,0.0,0.0,0.0,0.0,0.0,0.0,0.0,0.0,0.0,0.0,0.0,0.0,0.0,0.0,0.0,0.0,0.0,0.0,0.0,0.0,0.0,0.0,0.0,0.0,0.2234,-0.4163,-1.0927,-1.9165,-2.4701,-2.7366,-2.1475,-1.8001,-1.7536,0.0,0.0,0.0,0.0,0.0,0.0,0.0,0.0,0.0,0.0,0.0,0.0,0.0,0.0,0.0,0.0,0.0,0.0,0.0,0.0,0.0,0.0,0.0,0.0,0.0,0.0,0.0,0.0,0.0,0.0,0.0,0.0,0.0,0.0,0.0,0.0,0.0,0.0,0.0,0.0,0.0,0.0,0.0,0.0,0.0,0.0,0.0,0.0,0.3824,0.0,0.0,0.0,0.0,0.0,0.0,0.0,0.0,0.0,0.0,0.0,0.0,0.0,0.0,0.0,0.0,0.0,0.0,0.0,0.0,0.0,0.0,0.0,0.0,0.0,0.0,0.0,0.0,0.0,0.0,0.0,0.0,0.0,0.0,0.0,0.0,0.0,0.0,0.0,0.0,0.0,0.0,0.0,0.0,0.0,0.0,0.0,0.0,0.0,0.0,0.0,0.0,0.0,0.0,0.0,0.8771,0.3332,-0.1194,-0.7485,-1.5934,-2.1972,-2.6651,-2.9712,-2.6297,-2.2955,-1.9936,0.0,0.0,0.0,0.0,0.0,0.0,0.0,0.0,0.0,0.0,0.0,0.0,0.0,0.0,0.0,0.0,0.0,0.0,0.0,0.0,0.0,0.0,0.0,0.0,0.0,0.0,0.0,0.0,0.0,0.0,0.0,0.0,0.0,0.0,0.0,0.0,0.0,0.0,0.0,0.0,0.0,0.0,0.0,0.0,0.0,0.0,0.0,0.2922,0.3482,0.0,0.0,0.0,0.0,0.0,0.0,0.0,0.0,0.0,0.0,0.0,0.0,0.0,0.0,0.0,0.0,0.0,0.0,0.0,0.0,0.0,0.0,0.0,0.0,0.0,0.0,0.0,0.1612,0.0,0.601,0.0,0.0,0.0,0.0,0.0,0.0,0.0,0.0,0.0,0.0,0.0,0.0,0.0,0.0,0.0,0.0,0.0,0.0,0.0,0.0,0.0,0.0,0.0,0.0,0.6576,0.3685,-0.3373,-0.8079,-1.2458,-1.6746,-2.2118,-2.6483,-2.979,-2.9863,-2.7846,-2.3544,0.0,0.0,0.0,0.0,0.0,0.0,0.0,0.0,0.0,0.0,0.0,0.0,0.0,0.0,0.0,0.0,0.0,0.0,0.0,0.0,0.0,0.0,0.0,0.0,0.0,0.0,0.0,0.0,0.0,0.0,0.0,0.0,0.0,0.0,0.0,0.0,0.0,0.0,0.0,0.0,0.0,0.0,0.0,0.0,0.0,0.0,0.0,0.1226,0.0,0.0,0.0,0.0,0.0,0.0,0.0,0.0,0.0,0.0,0.0,0.0,0.0,0.0,0.0,0.0,0.0,0.0,0.0,0.0,0.0,0.0,0.0,0.0,0.0,0.0,0.0,0.0,0.3162,0.5008,0.668,0.0,0.0,0.0,0.0,0.0,0.0,0.0,0.0,0.0,0.0,0.0,0.0,0.0,0.0,0.0,0.0,0.0,0.0,0.0,0.0,0.0,0.0,0.0,0.5868,0.4998,0.0882,-0.6557,-1.1211,-1.5539,-1.9794,-2.3585,-2.6471,-2.8381,-2.9804,-2.9326,-2.6792,0.0,0.0,0.0,0.0,0.0,0.0,0.0,0.0,0.0,0.0,0.0,0.0,0.0,0.0,0.0,0.0,0.0,0.0,0.0,0.0,0.0,0.0,0.0,0.0,0.0,0.0,0.0,0.0,0.0,0.0,0.0,0.0,0.0,0.0,0.0,0.0,0.0,-1.5824,-1.5027,0.0,0.0,0.0,0.0,0.0,0.0,0.0,0.0,-0.23,0.0096,0.0,0.0,0.0,0.0,0.0,0.0,0.0,0.0,0.0,0.0,0.0,0.0,0.0,0.0,0.0,0.0,0.0,0.0,0.0,0.0,0.0,0.0,0.0,0.0,0.0,0.0,0.0,0.51,0.6395,0.7185,0.0,0.0,0.0,0.0,0.0,0.0,0.0,0.0,0.0,0.0,0.0,0.0,0.0,0.0,0.0,0.0,0.0,0.0,0.0,0.0,0.0,0.0,0.0,0.594,0.3339,-0.1929,-0.9703,-1.3453,-1.7738,-2.2865,-2.4846,-2.604,-2.6689,-2.7877,-2.8507,-2.8423,0.0,0.0,0.0,0.0,0.0,0.0,0.0,0.0,0.0,0.0,0.0,0.0,0.0,0.0,0.0,0.0,0.0,0.0,0.0,0.0,0.0,0.0,0.0,0.0,0.0,0.0,0.0,0.0,0.0,0.0,0.0,0.0,0.0,0.0,0.0,0.0,0.0,-1.5906,-1.5057,-1.3513,-1.2736,0.0,0.0,0.0,0.0,0.0,0.0,0.0,-0.3072,-0.0029,0.4568,0.0,0.0,0.0,0.0,0.0,0.0,0.0,0.0,0.0,0.0,0.0,0.0,0.0,0.0,0.0,0.0,0.0,0.0,0.0,0.0,0.0,0.0,0.0,0.0,0.0,0.6036,0.7946,1.0323,0.0,0.0,0.0,0.0,0.0,0.0,0.0,0.0,0.0,0.0,0.0,0.0,0.0,0.0,0.0,0.0,0.0,0.0,0.0,0.0,0.0,0.0,0.0,0.0,-0.351,-0.8438,-1.8888,-1.8434,-1.9703,-2.2907,-2.3121,-2.4017,-2.5681,-2.5253,-2.5073,-2.5321,-2.4995,0.0,0.0,0.0,0.0,0.0,0.0,0.0,0.0,0.0,0.0,0.0,0.0,0.0,0.0,0.0,0.0,0.0,0.0,0.0,0.0,0.0,0.0,0.0,0.0,0.0,0.0,0.0,0.0,0.0,0.0,0.0,0.0,0.0,0.0,0.0,0.0,-1.6423,-1.4783,-1.243,-1.1024,-1.146,0.0,0.0,0.0,0.0,0.0,-0.2776,-0.2724,-0.1663,0.248,0.6987,0.0,0.0,0.0,0.0,0.0,0.0,0.0,0.0,0.0,0.0,0.0,0.0,0.0,0.0,0.0,0.0,0.0,0.0,0.0,0.0,0.0,0.0,0.0,0.0,0.688,0.8833,1.1156,1.2245,1.4528,0.0,0.0,0.0,0.0,2.3815,0.0,0.0,0.0,0.0,0.0,0.0,0.0,0.0,0.0,0.0,0.0,0.0,0.0,0.0,0.0,0.0,0.0,-0.6228,-1.0485,-1.7397,-1.9447,-2.0836,-2.1778,-2.2878,-2.3619,-2.399,-2.2244,-2.154,-2.2052,0.0,0.0,0.0,0.0,0.0,0.0,0.0,0.0,0.0,0.0,0.0,0.0,0.0,0.0,0.0,0.0,0.0,0.0,0.0,0.0,0.0,0.0,0.0,0.0,0.0,0.0,0.0,0.0,0.0,0.0,0.0,0.0,0.0,0.0,0.0,0.0,0.0,0.0,-1.496,-1.289,-1.0677,-0.8345,-0.9631,-1.1195,-1.2128,-0.9274,-0.5613,-0.2039,-0.202,-0.1688,0.0688,0.0,0.0,0.0,0.0,0.0,0.0,0.0,0.0,0.0,0.0,0.0,0.0,0.0,0.0,0.0,0.0,0.0,0.0,0.0,0.0,0.0,0.0,0.0,0.0,0.0,0.0,0.955,1.1565,1.3951,1.6522,1.9262,0.0,0.0,0.0,2.5143,2.5517,0.0,0.0,0.0,0.0,0.0,0.0,0.0,0.0,0.0,0.0,0.0,0.0,0.0,0.0,0.0,0.0,-0.755,-1.1097,-1.5063,-1.8863,-2.0697,-2.0565,-2.2289,-2.2818,-2.1966,-1.9635,-1.8555,-1.8945,0.0,0.0,0.0,0.0,0.0,0.0,0.0,0.0,0.0,0.0,0.0,0.0,0.0,0.0,0.0,0.0,0.0,0.0,0.0,0.0,0.0,0.0,0.0,0.0,0.0,0.0,0.0,0.0,0.0,0.0,0.0,0.0,0.0,0.0,0.0,0.0,0.0,0.0,0.0,-1.3689,-1.0883,-0.6775,-0.7486,-0.9294,-1.1524,-0.9076,-0.5576,-0.2047,-0.155,-0.1464,0.0,0.0,0.0,0.0,0.0,0.0,0.0,0.0,0.0,0.0,0.0,0.0,0.0,0.0,0.0,0.0,0.0,0.0,0.0,0.0,0.0,0.0,0.1396,0.2839,0.0,0.0,0.7552,0.994,1.2681,1.5388,1.8042,2.0547,2.267,2.409,0.0,2.5296,2.5463,2.5328,0.0,0.0,0.0,0.0,0.0,0.0,0.0,0.0,0.0,0.0,0.0,0.0,0.0,0.0,0.0,0.0,-1.152,-1.6756,-1.7242,-1.8155,-1.9721,-1.9829,-1.9893,-1.992,-1.803,-1.6834,-1.6445,0.0,0.0,0.0,0.0,0.0,0.0,0.0,0.0,0.0,0.0,0.0,0.0,0.0,0.0,0.0,0.0,0.0,0.0,0.0,0.0,0.0,0.0,0.0,0.0,0.0,-1.8702,0.0,0.0,0.0,0.0,0.0,0.0,0.0,0.0,0.0,0.0,0.0,0.0,0.0,0.0,-1.1371,-0.9351,-0.7809,-0.8089,-1.1368,-0.8807,-0.5271,-0.2455,-0.1676,-0.1895,0.0,0.0,0.0,0.0,0.0,0.0,0.0,0.0,0.0,0.0,0.0,0.0,0.0,0.0,0.0,0.0,0.0,0.0,0.0,0.0,0.0,0.0,0.1048,0.254,0.4021,0.5533,0.7472,1.0119,1.3202,1.555,1.8336,2.1343,2.2585,2.3714,2.4748,2.522,2.5001,2.4261,0.0,0.0,0.0,0.0,0.0,0.0,0.0,0.0,0.0,0.0,0.0,0.0,-0.4666,-0.6726,-0.9265,-1.0121,-1.202,-1.4972,-1.5747,-1.6535,-1.7369,-1.8145,-1.83,-1.7786,-1.5154,-1.3902,0.0,0.0,0.0,0.0,0.0,0.0,0.0,0.0,0.0,0.0,0.0,0.0,0.0,0.0,0.0,0.0,0.0,0.0,0.0,0.0,0.0,0.0,0.0,0.0,0.0,-1.7988,-1.7759,-1.5968,0.0,0.0,0.0,0.0,0.0,0.0,0.0,0.0,0.0,0.0,0.0,0.0,0.0,-1.408,-1.2836,-1.187,-1.145,-1.2014,-0.9638,-0.6376,-0.2401,-0.1689,-0.1689,0.0,0.0,0.0,0.0,0.0,0.0,0.0,0.0,0.0,0.0,0.0,0.0,0.0,0.0,0.0,0.0,0.0,0.0,-0.3653,-0.2655,-0.157,-0.0632,0.0222,0.1831,0.3339,0.4842,0.6873,0.9467,1.2415,1.4689,1.7506,2.0511,2.1391,2.2399,2.34,2.3511,2.2518,2.0793,1.9367,0.0,0.0,0.0,0.0,0.0,0.0,0.0,0.0,0.0,0.0,-0.4884,-0.5843,-0.6925,-0.8262,-0.9589,-1.1019,-1.2574,-1.4473,-1.5633,-1.6005,-1.7037,-1.72,-1.6328,-1.3373,-1.1906,0.0,0.0,0.0,0.0,0.0,0.0,0.0,0.0,0.0,0.0,0.0,0.0,0.0,0.0,0.0,0.0,0.0,0.0,0.0,0.0,0.0,0.0,0.0,-1.8377,-1.7419,-1.7027,-1.6346,-1.5136,-1.5743,0.0,-1.5567,0.0,0.0,0.0,0.0,0.0,0.0,0.0,0.0,0.0,0.0,-1.6858,-1.6244,-1.5726,-1.5006,-1.3826,-1.1247,-0.7999,-0.3924,-0.2754,-0.2181,0.0,0.0,0.0,0.0,0.0,0.0,0.0,0.0,0.0,0.0,0.0,0.0,0.0,0.0,0.0,0.0,0.0,0.0,-0.4395,-0.3381,-0.2704,-0.2033,-0.1193,0.0297,0.1871,0.3468,0.5341,0.7349,0.9527,1.2574,1.518,1.7301,1.8917,2.0049,2.0548,1.9041,1.6608,1.3464,1.045,0.0,0.0,0.0,0.0,0.0,0.0,0.0,0.0,0.0,0.0,-0.2599,-0.1792,-0.1833,-0.2701,-0.5011,-0.7536,-1.0308,-1.3421,-1.5676,-1.7009,-1.6637,-1.637,-1.6187,-1.3936,-1.1948,0.0,0.0,0.0,0.0,0.0,0.0,0.0,0.0,0.0,0.0,0.0,0.0,0.0,0.0,0.0,0.0,0.0,0.0,0.0,0.0,0.0,0.0,0.0,0.0,-1.7943,-1.599,-1.4774,-1.4904,-1.6276,-1.598,-1.3179,0.0,0.0,0.0,0.0,0.0,0.0,0.0,0.0,0.0,0.0,-1.8806,-1.9314,-1.8034,-1.7288,-1.7844,-1.3762,-0.9971,-0.846,-0.5684,-0.4134,-0.5237,-0.0067,0.2837,0.0,0.0,0.0,0.0,0.0,0.0,0.0,0.0,0.0,0.0,0.0,0.0,0.0,0.0,0.0,-0.4729,-0.3959,-0.3569,-0.2947,-0.21,-0.0935,0.0361,0.1808,0.3445,0.5278,0.7345,0.9959,1.2253,1.4175,1.5568,1.6017,1.5591,1.3988,1.172,0.8757,0.3774,0.0,0.0,0.0,0.0,0.0,0.0,0.0,0.0,0.0,0.0,0.1524,0.1647,0.0226,-0.2639,-0.39,-0.6853,-1.1515,-1.2811,-1.4183,-1.5589,-1.5505,-1.5169,-1.4555,-1.2928,-1.124,-0.9454,0.0,0.0,0.0,0.0,0.0,0.0,0.0,0.0,0.0,0.0,0.0,0.0,0.0,0.0,0.0,0.0,0.0,0.0,0.0,0.0,0.0,0.0,0.0,0.0,-1.4979,-1.3714,-1.3455,-1.3941,-1.3399,-1.1189,-1.2706,0.0,0.0,0.0,0.0,0.0,0.0,0.0,-1.9662,0.0,-1.9154,-2.0648,-1.889,-1.716,-1.6542,-1.3859,-1.2092,-1.2607,-0.7173,-0.2915,-0.2905,-0.0281,0.1638,0.1386,0.0,0.0,0.0,0.0,0.0,0.0,0.0,0.0,0.0,0.0,0.0,0.0,0.0,0.0,-0.4097,-0.421,-0.4021,-0.3545,-0.2937,-0.2219,-0.1117,0.0316,0.1679,0.3227,0.4845,0.6878,0.881,1.0463,1.1315,1.1326,1.0559,0.8579,0.5538,0.155,-0.3479,-0.7012,0.0,0.0,0.0,0.0,0.0,0.0,0.0,0.0,0.0,0.3784,0.28,0.0626,-0.2371,-0.4295,-0.7484,-1.1983,-1.285,-1.3788,-1.4742,-1.4877,-1.4514,-1.353,-1.2341,-1.0732,-0.8763,0.0,0.0,0.0,0.0,-1.0708,0.0,0.0,0.0,0.0,0.0,0.0,0.0,0.0,0.0,0.0,0.0,0.0,0.0,0.0,0.0,0.0,0.0,0.0,0.0,0.0,-1.3162,-1.243,-1.1856,-1.1211,-1.0351,-1.1363,-1.3118,-1.5574,0.0,0.0,0.0,0.0,0.0,0.0,-1.7767,-1.812,-2.0057,-1.8424,-1.6484,-1.5236,-1.3028,-1.146,-1.1221,-0.6871,-0.3131,-0.2062,-0.139,-0.0043,0.28,0.3569,0.3125,0.1176,-0.0153,-0.0932,-0.0982,0.0,0.0,0.0,0.0,0.0,0.0,0.0,0.0,-0.2195,-0.3927,-0.3933,-0.3724,-0.3468,-0.3528,-0.2338,-0.0532,0.0313,0.1198,0.189,0.3361,0.4811,0.6087,0.6149,0.619,0.5809,0.2831,-0.2427,-0.8738,-1.1686,-1.3112,-1.3547,-1.3275,-1.2341,-0.9521,-0.5295,-0.2148,-0.0173,0.0435,0.1677,0.3011,0.1166,-0.0296,-0.1387,-0.599,-0.9306,-1.1081,-1.3712,-1.4995,-1.4888,-1.4937,-1.4492,-1.3507,-1.241,-1.0686,-0.8335,0.0,0.0,0.0,0.0,-0.8488,0.0,0.0,0.0,0.0,0.0,0.0,0.0,0.0,0.0,0.0,0.0,0.0,0.0,0.0,0.0,0.0,0.0,0.0,0.0,0.0,-1.3114,-1.2077,-1.056,-0.9969,-1.0982,-1.2014,-1.2678,0.0,0.0,0.0,0.0,0.0,-1.5965,-1.6111,-1.5432,-1.5529,-1.7275,-1.6509,-1.5447,-1.477,-1.1323,-0.7232,-0.3016,-0.4462,-0.5718,-0.3836,-0.2707,0.0,0.0,0.0,0.0,0.0,0.0,0.0,0.0,0.0,0.0,0.0,0.0,0.0,0.0,0.0,0.0,0.0089,-0.2007,-0.2576,-0.2236,-0.1504,-0.2258,-0.1048,0.1324,0.1032,0.1104,0.1481,0.2133,0.2113,0.1603,0.166,0.1005,-0.0483,-0.4371,-0.7969,-1.1192,-1.2386,-1.3241,-1.3807,-1.199,-1.0377,-0.8836,-0.5966,-0.2969,-0.0097,0.0991,0.2103,0.3118,0.2125,-0.0741,-0.5411,-0.7255,-0.9957,-1.3648,-1.3998,-1.4032,-1.3881,-1.3254,-1.232,-1.1027,-1.0365,-0.8651,-0.5812,-0.4792,0.0,0.0,-0.5671,-0.6973,0.0,0.0,0.0,0.0,0.0,0.0,0.0,0.0,0.0,0.0,0.0,0.0,0.0,0.0,0.0,0.0,0.0,0.0,0.0,0.0,-1.135,-1.1272,-0.9995,-0.9692,-1.121,-1.1679,-1.1674,-1.1161,-1.1913,-1.3531,-1.5882,-1.4759,-1.3633,-1.3338,-1.3474,-1.3819,-1.4445,-1.435,-1.3733,-1.2263,-0.8809,-0.517,-0.1981,-0.2192,-0.3051,-0.3861,-0.0594,0.2695,0.4155,0.3816,0.3737,0.5026,0.4512,0.3729,0.3239,0.1477,-0.0061,-0.0433,-0.1343,-0.1931,-0.1515,-0.1715,-0.1802,0.2873,0.0688,-0.0379,-0.0292,0.0498,-0.0472,0.029,0.2165,0.129,0.0968,0.1016,0.068,0.0212,-0.0575,-0.1622,-0.3349,-0.5651,-0.8538,-1.0818,-1.2251,-1.1984,-1.2204,-1.2891,-1.0493,-0.8902,-0.8018,-0.6481,-0.4698,-0.2661,-0.0977,-0.0094,0.0053,-0.1692,-0.4972,-0.9596,-1.0731,-1.274,-1.5535,-1.4598,-1.3679,-1.2875,-1.2003,-1.0762,-0.9169,-0.8215,-0.6417,-0.3782,-0.3092,-0.2642,0.0,-0.3811,0.0,0.0,0.0,0.0,0.0,0.0,0.0,0.0,0.0,0.0,0.0,0.0,0.0,0.0,0.0,0.0,0.0,0.0,0.0,0.0,-1.1909,-1.029,-1.036,-0.9635,-0.9417,-1.018,-1.0591,-1.0496,-0.9642,-0.9665,-1.1066,-1.4514,-1.2198,-1.0379,-1.0694,-1.1045,-1.1532,-1.2276,-1.2261,-1.1532,-0.9726,-0.6968,-0.4191,-0.1725,-0.118,-0.1381,-0.2284,0.1202,0.4388,0.5309,0.5183,0.5312,0.6293,0.6417,0.5999,0.4796,0.2974,0.1454,0.0834,-0.022,-0.0907,-0.0599,-0.1055,-0.1519,0.5884,0.3995,0.2537,0.2046,0.2097,0.1551,0.148,0.1799,0.1168,0.0842,0.0502,-0.088,-0.1132,-0.0772,-0.3843,-0.6789,-0.9583,-1.0,-1.1037,-1.2352,-1.0966,-1.0579,-1.1104,-0.9358,-0.8122,-0.7352,-0.6914,-0.7044,-0.7612,-0.5544,-0.5014,-0.6268,-0.9831,-1.2267,-1.3358,-1.6228,-1.7437,-1.6548,-1.5595,-1.4047,-1.2003,-1.1138,-0.9834,-0.788,-0.5819,-0.3881,-0.218,-0.1029,-0.0626,-0.1177,-0.1971,0.0,0.0,0.0,0.0,0.0,0.0,0.0,0.0,0.0,0.0,0.0,0.0,0.0,0.0,0.0,0.0,0.0,0.0,0.0,-1.1899,-1.0695,-0.9983,-0.953,-0.9451,-0.9157,-0.8453,-0.919,-0.9318,-0.8058,-0.8567,-1.0057,-1.2689,-0.8883,-0.6428,-0.8285,-0.826,-0.8855,-1.0861,-1.0298,-0.9081,-0.7454,-0.591,-0.4168,-0.1826,-0.1423,-0.0837,0.0728,0.2264,0.3966,0.576,0.6842,0.7342,0.7138,0.791,0.7835,0.5724,0.4144,0.2983,0.2681,0.1705,0.0858,0.0547,-0.0163,-0.1035,0.8205,0.6617,0.5528,0.5284,0.5425,0.407,0.4381,0.5626,0.3751,0.2167,0.0785,-0.1392,-0.344,-0.5456,-0.7302,-0.9366,-1.1383,-1.2073,-1.2341,-1.2292,-1.1648,-1.0953,-1.0103,-0.8865,-0.8211,-0.8092,-0.8242,-0.9325,-1.1229,-1.1913,-1.2255,-1.2375,-1.4594,-1.6368,-1.7708,-1.9176,-1.9212,-1.7746,-1.6114,-1.4168,-1.1834,-0.9322,-0.6588,-0.3613,-0.1314,0.0293,0.1075,0.1789,0.1886,0.1324,0.0189,0.0,-0.4051,0.0,0.0,0.0,0.0,-1.1865,-1.2765,-1.2697,0.0,0.0,0.0,-1.4094,0.0,0.0,0.0,0.0,-1.6351,-1.4977,-1.0311,-0.9937,-0.9688,-0.8931,-0.8785,-0.9497,-1.135,-1.0243,-0.8715,-0.7231,-0.7772,-0.8621,-0.9677,-0.8003,-0.6994,-0.8012,-0.8184,-0.8526,-0.9444,-0.899,-0.8333,-0.7788,-0.5826,-0.4086,-0.2981,-0.2001,-0.0999,0.0107,0.2759,0.5027,0.6056,0.7438,0.8421,0.8399,1.0186,1.0767,0.8157,0.6366,0.5168,0.4416,0.3504,0.2552,0.1763,0.0637,-0.0674,0.8917,0.7771,0.7178,0.7062,0.7166,0.5725,0.5527,0.6233,0.4098,0.205,0.009,-0.2621,-0.5316,-0.8111,-1.1029,-1.2451,-1.2548,-1.3453,-1.3398,-1.2507,-1.2025,-1.1276,-1.0299,-0.9167,-0.8776,-0.9128,-1.0113,-1.1886,-1.4426,-1.6797,-1.8052,-1.8146,-1.8239,-1.9068,-2.0642,-2.083,-2.0303,-1.9018,-1.6426,-1.3798,-1.107,-0.6254,-0.2276,0.0628,0.2394,0.3742,0.483,0.516,0.4891,0.4061,0.2872,0.0875,0.0,-0.4441,-0.6109,-0.6911,-0.8497,-1.0183,-1.1728,-1.1829,0.0,0.0,-1.2833,-1.2542,-1.2773,0.0,0.0,-1.2082,-1.3171,-1.26,-0.945,-0.949,-0.9399,-0.869,-0.8565,-0.9791,-1.2968,-1.0521,-0.8335,-0.7747,-0.823,-0.8822,-0.9484,-0.9532,-0.9316,-0.8915,-0.8644,-0.8491,-0.8345,-0.8222,-0.7833,-0.7051,-0.5517,-0.43,-0.4003,-0.2876,-0.155,0.006,0.2538,0.4839,0.602,0.7453,0.8449,0.8902,1.0805,1.1987,1.0187,0.8947,0.7702,0.6122,0.5029,0.4068,0.3055,0.1565,-0.0105,0.7908,0.7352,0.7178,0.7395,0.7642,0.656,0.558,0.4687,0.2774,0.0841,-0.1266,-0.4268,-0.6982,-0.9507,-1.4564,-1.5586,-1.3492,-1.4373,-1.4241,-1.3198,-1.2188,-1.1595,-1.1262,-1.0059,-0.9717,-1.0319,-1.2337,-1.4661,-1.739,-2.0553,-2.259,-2.3416,-2.1015,-2.0648,-2.2108,-2.1247,-2.0289,-1.9234,-1.5506,-1.1958,-0.8397,-0.1659,0.2876,0.5039,0.5729,0.6951,0.8828,0.8809,0.8155,0.6909,0.5758,0.3571,0.0146,-0.2287,-0.4534,-0.6576,-0.6895,-0.8233,-1.0978,-1.1259,-1.1696,-1.2575,-1.2336,-1.2139,-1.2261,-1.2273,-1.1474,-0.9265,-0.9192,-0.9267,-0.9312,-0.9414,-0.9324,-0.8883,-0.876,-0.997,-1.303,-0.9883,-0.8016,-0.9225,-0.9709,-1.0353,-1.1442,-1.2797,-1.2947,-1.0994,-0.9858,-0.8769,-0.7735,-0.7942,-0.7551,-0.5896,-0.5179,-0.4925,-0.4781,-0.3782,-0.217,0.0117,0.2054,0.3862,0.5614,0.6945,0.7786,0.8287,1.0532,1.2355,1.1995,1.1695,1.068,0.8049,0.6544,0.5437,0.4444,0.2743,0.0831,0.2371,0.2657,0.324,0.4946,0.721,0.6239,0.5746,0.5373,0.2261,-0.0449,-0.2953,-0.6275,-0.9581,-1.2882,-1.5348,-1.6129,-1.5578,-1.5751,-1.5357,-1.4509,-1.3337,-1.2359,-1.1564,-1.0918,-1.1086,-1.2128,-1.4499,-1.7152,-2.0072,-2.3801,-2.5863,-2.5995,-2.2093,-2.0092,-2.0152,-1.8688,-1.5151,-0.9698,-0.6786,-0.2062,0.4439,0.7165,0.8994,1.0086,1.1159,1.1718,1.1705,1.1424,1.0429,0.8522,0.6915,0.4804,0.2182,-0.015,-0.1707,-0.2253,-0.6907,-0.9445,-0.9083,-1.0392,-1.127,-1.1346,-1.1873,-1.1655,-1.0415,-1.0439,-1.0626,-1.0792,-1.0254,-1.0198,-1.0998,-1.0616,-1.0114,-0.96,-0.9253,-0.9219,-0.962,-0.7613,-0.7371,-1.0456,-1.1847,-1.3124,-1.451,-1.5939,-1.671,-1.6273,-1.395,-1.1291,-0.8811,-0.8599,-0.8107,-0.6515,-0.6055,-0.5841,-0.5211,-0.4062,-0.2446,-0.0176,0.2063,0.4079,0.5396,0.6352,0.7469,0.9085,1.2448,1.4487,1.4089,1.3882,1.3202,1.1385,0.9293,0.729,0.594,0.4238,0.2299,-0.1882,-0.1271,-0.017,0.1255,0.2995,0.3857,0.4006,0.3312,0.0467,-0.2296,-0.5149,-0.9209,-1.2592,-1.5352,-1.6764,-1.7294,-1.727,-1.7223,-1.6655,-1.5657,-1.4564,-1.3565,-1.2616,-1.2088,-1.2616,-1.4093,-1.6469,-1.9437,-2.2718,-2.2479,-2.1798,-2.0861,-1.4688,-1.0286,-0.8017,-1.0504,-0.9209,-0.3885,0.1139,0.684,1.3095,1.4209,1.4907,1.5556,1.6892,1.6996,1.5834,1.5907,1.4187,1.0415,0.8537,0.5491,0.1113,0.1233,0.0158,-0.2816,-0.7852,-1.0362,-0.9569,-1.0351,-1.0948,-1.114,-1.1575,-1.1137,-0.9554,-1.0055,-1.076,-1.136,-0.9752,-0.9176,-1.027,-0.9615,-0.9404,-1.0141,-1.0083,-1.041,-1.1571,-0.8836,-0.8731,-1.3437,-1.6403,-1.7869,-1.7426,-1.9356,-2.0997,-2.133,-1.8809,-1.5339,-1.128,-0.9727,-0.8521,-0.7103,-0.681,-0.6352,-0.5225,-0.4256,-0.2871,-0.0505,0.2067,0.4261,0.5745,0.6352,0.7332,0.9607,1.4469,1.8065,1.712,1.612,1.5109,1.3549,1.1392,0.9136,0.7346,0.5433,0.3455,-0.4846,-0.4203,-0.297,-0.2451,-0.223,0.048,0.1069,0.0096,-0.1945,-0.4597,-0.7974,-1.2419,-1.5429,-1.7255,-1.8347,-1.8682,-1.8468,-1.8422,-1.7741,-1.6514,-1.5561,-1.4719,-1.4019,-1.3513,-1.422,-1.6089,-1.8305,-2.1492,-2.5113,-1.8989,-1.4913,-1.2659,-0.3663,0.3385,0.7744,0.1848,0.0109,0.2944,1.0413,1.6417,2.0798,2.0976,2.1193,2.1511,2.2396,2.2017,2.0131,2.0149,1.758,1.1971,0.9714,0.5589,-0.1074,0.1436,0.0607,-0.5068,-0.9009,-1.1171,-1.1223,-1.0873,-1.081,-1.1264,-1.1386,-1.0791,-0.9354,-1.0009,-1.0705,-1.1259,-0.8593,-0.7215,-0.816,-0.7873,-0.8519,-1.0657,-1.0989,-1.2257,-1.5242,-1.199,-1.1444,-1.6943,-2.1539,-2.3172,-2.0521,-2.2789,-2.4909,-2.4822,-2.2891,-1.9512,-1.4837,-1.17,-0.9508,-0.8031,-0.7334,-0.6401,-0.5072,-0.4317,-0.3094,-0.0535,0.217,0.4583,0.6582,0.7134,0.7935,1.0659,1.6592,2.0954,2.0219,1.8277,1.658,1.5041,1.2837,1.0584,0.8514,0.6383,0.4575,-0.5405,-0.4633,-0.3802,-0.3295,-0.2841,-0.3044,-0.2642,-0.1854,-0.3897,-0.7572,-1.2337,-1.4654,-1.6647,-1.837,-1.9162,-1.9248,-1.8765,-1.8253,-1.7607,-1.6845,-1.5647,-1.5132,-1.5191,-1.5184,-1.5891,-1.7374,-2.0205,-2.2936,-2.5232,-1.7084,-1.254,-1.1079,0.3373,1.2428,1.5859,1.9713,2.2058,2.2938,2.7529,3.1122,3.3267,3.1361,2.9837,2.8797,2.6427,2.3949,2.1681,1.9281,1.5778,1.1172,0.8254,0.4434,-0.0666,-0.234,-0.3506,-0.474,-0.94,-1.2175,-1.205,-1.1755,-1.1227,-1.0407,-1.093,-1.1097,-1.0508,-0.7745,-0.7307,-1.0383,-0.7795,-0.5887,-0.598,-0.8006,-1.0001,-1.1527,-1.1499,-1.272,-1.5887,-1.5184,-1.5618,-1.8567,-2.3509,-2.6088,-2.4422,-2.5317,-2.5827,-2.5263,-2.3855,-2.2069,-2.0102,-1.5803,-1.2056,-0.9593,-0.738,-0.6005,-0.4955,-0.3845,-0.2341,0.0055,0.2674,0.5298,0.7577,0.9176,1.0779,1.3106,1.8638,2.2458,2.1251,1.9912,1.7962,1.5613,1.3577,1.1585,0.9257,0.7203,0.5587,-0.5352,-0.43,-0.3751,-0.3458,-0.3423,-0.4512,-0.5009,-0.5118,-0.6461,-1.0046,-1.5219,-1.6746,-1.8614,-2.0655,-2.0426,-2.0321,-2.0226,-1.9168,-1.8379,-1.7796,-1.6537,-1.6201,-1.6617,-1.5855,-1.6588,-1.8592,-2.025,-2.1631,-2.2324,-1.517,-0.7952,-0.0761,1.5704,2.53,2.8172,3.2913,3.5272,3.4931,3.7339,3.9637,4.158,3.9039,3.6512,3.4366,3.1464,2.8032,2.3757,2.0179,1.5425,0.9354,0.5197,0.0482,-0.5068,-0.6478,-0.757,-0.8767,-1.1918,-1.341,-1.2775,-1.2205,-1.1152,-0.9507,-0.9169,-0.8355,-0.6683,-0.3516,-0.3355,-0.7252,-0.5814,-0.5236,-0.6772,-0.856,-0.983,-1.0294,-1.1111,-1.3095,-1.6518,-1.8156,-1.9405,-2.1265,-2.5226,-2.7525,-2.6028,-2.6396,-2.6054,-2.4466,-2.3107,-2.2213,-2.1844,-1.8505,-1.3903,-0.8225,-0.551,-0.4134,-0.3782,-0.2805,-0.1155,0.1258,0.3702,0.628,0.9118,1.0857,1.2747,1.5612,2.0424,2.3493,2.1506,1.9832,1.7883,1.5186,1.2941,1.0831,0.8806,0.7417,0.6245,-0.532,-0.3946,-0.3442,-0.3559,-0.4028,-0.5423,-0.7396,-0.9578,-0.9947,-1.2912,-1.7532,-1.9092,-2.0965,-2.299,-2.1941,-2.146,-2.1412,-2.002,-1.9075,-1.8541,-1.7505,-1.7367,-1.7869,-1.6505,-1.7149,-1.9605,-1.9805,-1.9819,-1.9349,-1.1625,-0.1931,1.0151,2.6971,3.7056,3.9787,4.2425,4.39,4.4051,4.452,4.5935,4.8164,4.5573,4.2546,3.9282,3.6236,3.1793,2.5558,2.1177,1.5042,0.7044,0.169,-0.3985,-0.9984,-1.013,-1.1182,-1.3881,-1.4773,-1.4593,-1.3439,-1.235,-1.0658,-0.8236,-0.7326,-0.521,-0.1243,0.0538,0.0,-0.3372,-0.3697,-0.5453,-0.9374,-0.9958,-0.9943,-0.9544,-1.139,-1.4231,-1.8021,-2.086,-2.2669,-2.3638,-2.6125,-2.7659,-2.6193,-2.6283,-2.5747,-2.3204,-2.1712,-2.0996,-2.0972,-1.8131,-1.3155,-0.631,-0.347,-0.2193,-0.2122,-0.1466,0.0184,0.2684,0.4882,0.734,1.0258,1.2421,1.4579,1.7278,2.1524,2.2621,2.091,1.8997,1.6908,1.4385,1.1825,0.9487,0.7889,0.68,0.618,-0.5767,-0.4388,-0.3495,-0.3698,-0.4881,-0.7442,-1.1369,-1.5811,-1.5831,-1.7562,-2.0687,-2.243,-2.3768,-2.4713,-2.3772,-2.2357,-2.0652,-1.9702,-1.887,-1.8122,-1.7928,-1.8121,-1.8519,-1.8032,-1.8499,-1.9825,-2.0162,-1.9581,-1.6737,-0.3434,0.6124,1.1934,2.9602,4.1031,4.4705,4.6455,4.8954,5.2507,5.2247,5.2784,5.4107,5.1836,4.876,4.4795,3.8839,3.2498,2.5756,1.973,1.2767,0.4597,-0.0852,-0.6363,-1.2003,-1.2437,-1.3534,-1.609,-1.6149,-1.5383,-1.3859,-1.2214,-0.9634,-0.6284,-0.678,-0.4239,0.3091,0.2104,0.0841,0.0464,-0.2536,-0.7413,-1.365,-1.343,-1.2681,-1.2979,-1.4685,-1.7341,-2.0751,-2.3325,-2.4607,-2.4132,-2.5285,-2.5801,-2.5017,-2.4597,-2.3733,-2.164,-1.9913,-1.8656,-1.6627,-1.3827,-0.9996,-0.5153,-0.2646,-0.1531,-0.0998,-0.0131,0.1434,0.4056,0.6093,0.8163,1.0629,1.3211,1.5799,1.8504,2.0213,2.0313,1.8684,1.7934,1.5796,1.312,1.0668,0.8472,0.6281,0.5008,0.4551,-0.5826,-0.4685,-0.4495,-0.5232,-0.6754,-1.1347,-1.5878,-2.0159,-2.1998,-2.3125,-2.3959,-2.5596,-2.6736,-2.73,-2.5909,-2.4232,-2.243,-2.073,-1.9685,-1.913,-1.8578,-1.8753,-1.9341,-1.8588,-1.8622,-1.9473,-1.9311,-1.8118,-1.5106,-0.5754,0.3409,1.2954,3.079,4.1163,4.3891,4.6516,4.9521,5.289,5.4205,5.5609,5.7249,5.4872,5.1684,4.7716,4.0595,3.2784,2.4527,1.5805,0.7348,-0.0788,-0.6338,-1.1233,-1.515,-1.592,-1.71,-1.8925,-1.81,-1.6273,-1.35,-1.1031,-0.862,-0.6121,-0.4725,-0.3385,-0.1402,-0.0466,0.0277,0.0895,-0.2989,-0.8958,-1.6715,-1.6597,-1.5936,-1.6089,-1.7407,-1.9516,-2.2248,-2.3941,-2.4348,-2.3201,-2.3062,-2.3445,-2.4183,-2.3266,-2.1767,-1.9638,-1.7423,-1.5321,-1.4063,-1.197,-0.8995,-0.4925,-0.2425,-0.1121,-0.0648,0.035,0.201,0.4325,0.6203,0.8281,1.0469,1.2788,1.4944,1.7472,1.7559,1.5914,1.4209,1.3115,1.1757,1.0412,0.8271,0.6198,0.4242,0.2776,0.2549,-0.6648,-0.5755,-0.6905,-0.8449,-1.0602,-1.6121,-2.052,-2.3977,-2.7236,-2.8482,-2.819,-2.9009,-2.9705,-3.0053,-2.8207,-2.6358,-2.4614,-2.2191,-2.0635,-1.9914,-1.9182,-1.9325,-1.9967,-1.8799,-1.8563,-1.9092,-1.84,-1.6602,-1.3593,-0.8424,0.1951,1.6687,3.1198,3.9371,4.1599,4.4904,4.806,5.0888,5.3168,5.5607,5.8119,5.6239,5.3271,4.9082,4.2187,3.3142,2.2178,1.2527,0.3102,-0.6153,-1.1262,-1.4799,-1.6894,-1.8568,-1.9813,-2.0332,-1.9041,-1.6678,-1.3314,-1.0667,-0.8398,-0.6767,-0.4094,-0.427,-0.7999,-0.6442,-0.3141,-0.0763,-0.4374,-1.0693,-1.7322,-1.8554,-1.8403,-1.8602,-1.9251,-2.0448,-2.2557,-2.3157,-2.2687,-2.1219,-2.078,-2.1421,-2.2309,-2.1676,-1.9805,-1.7305,-1.4635,-1.2892,-1.239,-1.0795,-0.8304,-0.555,-0.2923,-0.1581,-0.1161,0.015,0.1787,0.3886,0.5445,0.7225,0.9168,1.0548,1.2513,1.4989,1.39,1.165,0.9561,0.8207,0.744,0.6799,0.5389,0.3414,0.1258,-0.0202,-0.0309,-0.9218,-0.9268,-1.1497,-1.4579,-1.7714,-2.1724,-2.4975,-2.7794,-3.0846,-3.2798,-3.3532,-3.2819,-3.2512,-3.2383,-3.0591,-2.8584,-2.6444,-2.3863,-2.1594,-1.9797,-1.966,-1.9814,-1.9909,-1.8877,-1.8847,-1.9301,-1.7896,-1.5745,-1.2743,-0.4817,0.7636,2.3317,3.0622,3.5551,3.9346,4.2045,4.5046,4.8403,4.9304,5.1829,5.5998,5.6164,5.39,4.9363,4.4121,3.39,1.8329,1.2196,0.2704,-1.0234,-1.3253,-1.4508,-1.5381,-1.8782,-2.0288,-1.8819,-1.7414,-1.5752,-1.3982,-1.2158,-1.0134,-0.7713,-0.7186,-0.9404,-1.5514,-1.6313,-1.1837,-0.489,-0.6828,-1.2707,-1.8085,-1.8606,-1.8667,-1.9531,-1.9659,-2.0089,-2.0716,-2.0497,-1.976,-1.8665,-1.9358,-1.9808,-1.9555,-1.9054,-1.7701,-1.5163,-1.3218,-1.1793,-1.1378,-0.9895,-0.8308,-0.6485,-0.5031,-0.3654,-0.2141,-0.0489,0.0801,0.2479,0.3786,0.5224,0.6561,0.7744,0.92,1.1385,1.0912,0.8529,0.6162,0.4626,0.4087,0.3813,0.2507,0.0492,-0.207,-0.3846,-0.3636,-1.2341,-1.1806,-1.4282,-1.776,-2.1829,-2.5867,-2.8785,-3.0998,-3.3529,-3.543,-3.6713,-3.6387,-3.5587,-3.445,-3.2997,-3.0897,-2.8129,-2.5409,-2.3002,-2.1039,-2.0482,-2.0154,-1.9862,-1.8959,-1.8673,-1.8758,-1.7239,-1.486,-1.0456,-0.1254,0.9292,1.9115,2.5638,3.0601,3.4347,3.6703,3.9578,4.2788,4.367,4.5268,4.7571,4.952,4.8548,4.4142,3.718,2.7428,1.493,0.6797,-0.2174,-1.1903,-1.4106,-1.5056,-1.5377,-1.5654,-1.5458,-1.4759,-1.4673,-1.4535,-1.4325,-1.4411,-1.3761,-1.1938,-1.3225,-1.4788,-1.576,-1.6943,-1.5505,-1.2359,-1.2321,-1.4459,-1.7191,-1.7511,-1.7947,-1.8884,-1.8961,-1.8805,-1.8672,-1.8494,-1.823,-1.8116,-1.7981,-1.8133,-1.8034,-1.6601,-1.505,-1.3608,-1.2179,-1.0887,-1.0587,-0.915,-0.7824,-0.7145,-0.7462,-0.7041,-0.4709,-0.2428,-0.0916,0.0168,0.0511,0.1187,0.3672,0.4678,0.5848,0.8034,0.6971,0.4949,0.1902,0.2263,0.2247,0.1206,-0.1046,-0.3209,-0.497,-0.6293,-0.6434,-1.6718,-1.645,-1.8695,-2.2104,-2.6046,-2.9664,-3.2095,-3.3584,-3.5446,-3.6905,-3.798,-3.8341,-3.7553,-3.5906,-3.4874,-3.2711,-2.9582,-2.6606,-2.3951,-2.1794,-2.0892,-2.0304,-1.9712,-1.903,-1.8403,-1.7806,-1.6482,-1.3592,-0.8717,0.0273,0.8245,1.3871,2.0253,2.5006,2.8202,3.0571,3.3085,3.5911,3.7074,3.7888,3.8792,4.0501,4.0857,3.89,3.0612,2.0964,1.0955,0.3179,-0.4872,-1.3114,-1.419,-1.4405,-1.4173,-1.229,-1.1289,-1.1572,-1.2268,-1.3314,-1.4481,-1.6241,-1.7076,-1.6632,-1.7577,-1.6941,-1.5405,-1.6269,-1.7423,-1.7365,-1.651,-1.6036,-1.6272,-1.6603,-1.7104,-1.7955,-1.7885,-1.7575,-1.7059,-1.6956,-1.7246,-1.7517,-1.7427,-1.7103,-1.7335,-1.5467,-1.3687,-1.31,-1.1742,-1.0317,-1.0045,-0.8894,-0.7862,-0.7926,-0.9741,-0.9633,-0.718,-0.5074,-0.3353,-0.2698,-0.2751,-0.1968,0.0517,0.1287,0.23,0.389,0.3111,0.1798,-0.0727,-0.0725,-0.041,-0.2477,-0.4592,-0.6331,-0.7508,-0.8419,-0.8997,-2.2843,-2.3329,-2.6336,-2.8764,-3.1177,-3.3273,-3.4601,-3.5302,-3.6392,-3.697,-3.7185,-3.7874,-3.769,-3.6452,-3.5491,-3.3697,-3.0516,-2.7276,-2.4059,-2.1198,-2.0701,-2.0113,-1.9246,-1.8951,-1.8216,-1.6942,-1.5495,-1.171,-0.5763,-0.0286,0.4939,1.0031,1.5076,1.8818,2.1725,2.388,2.5982,2.8394,2.9505,3.0138,3.035,2.9753,3.173,3.414,2.6823,1.7098,0.8015,0.3872,-0.3081,-1.4403,-1.3173,-1.182,-1.0547,-0.9807,-0.9718,-1.03,-1.0825,-1.2213,-1.4607,-1.6974,-1.8899,-1.9713,-1.7332,-1.527,-1.4719,-1.6463,-1.7589,-1.7372,-1.765,-1.7288,-1.6185,-1.6075,-1.6319,-1.6741,-1.685,-1.6566,-1.623,-1.629,-1.6419,-1.6771,-1.7308,-1.7335,-1.6688,-1.5451,-1.4026,-1.3028,-1.2227,-1.1447,-0.9991,-0.8983,-0.8944,-0.977,-1.0691,-1.1131,-0.8874,-0.7309,-0.6536,-0.5703,-0.4985,-0.4674,-0.3542,-0.2313,-0.0915,-0.0092,-0.0476,-0.1507,-0.3452,-0.4355,-0.4491,-0.566,-0.7159,-0.8569,-0.9296,-1.0348,-1.0834,-2.8478,-2.8825,-3.0887,-3.2431,-3.3617,-3.5771,-3.6492,-3.6232,-3.6596,-3.658,-3.6153,-3.5828,-3.5352,-3.4813,-3.3354,-3.1785,-3.0043,-2.7071,-2.4177,-2.1575,-2.0772,-2.0066,-1.9221,-1.836,-1.7593,-1.6633,-1.4649,-1.0658,-0.4975,-0.0298,0.3833,0.7425,1.1515,1.4665,1.6727,1.8261,2.012,2.229,2.3231,2.3877,2.4648,2.5237,2.5131,2.3315,1.9173,1.3157,0.5743,0.1476,-0.3865,-1.0156,-0.9918,-0.9522,-0.9085,-0.9254,-0.9682,-1.0221,-1.01,-1.1105,-1.3529,-1.5575,-1.7374,-1.862,-1.6782,-1.5455,-1.5941,-1.77,-1.8737,-1.7909,-1.835,-1.8298,-1.7185,-1.5879,-1.5177,-1.5567,-1.5581,-1.59,-1.627,-1.5948,-1.5753,-1.6536,-1.6876,-1.6579,-1.6185,-1.5315,-1.4429,-1.356,-1.2945,-1.212,-1.0875,-0.9989,-0.9922,-1.0768,-1.1715,-1.2257,-1.2024,-1.0083,-0.8648,-0.7841,-0.7131,-0.6311,-0.531,-0.5019,-0.3953,-0.2664,-0.3166,-0.4239,-0.5886,-0.7184,-0.7491,-0.7803,-0.9317,-1.0156,-1.0826,-1.1493,-1.2126,-3.4211,-3.4515,-3.5377,-3.6042,-3.6593,-3.7757,-3.7785,-3.6896,-3.6251,-3.5494,-3.4566,-3.3425,-3.2754,-3.2127,-3.0334,-2.8955,-2.8077,-2.5863,-2.3582,-2.1297,-2.049,-1.9795,-1.8995,-1.8145,-1.7265,-1.6109,-1.3451,-0.9242,-0.4111,-0.0,0.3191,0.5955,0.8869,1.1004,1.2233,1.325,1.459,1.61,1.722,1.8181,1.8838,2.0492,1.9334,1.5242,1.3377,1.0284,0.4989,0.0822,-0.2927,-0.5972,-0.6989,-0.7647,-0.8475,-0.9343,-0.9934,-1.0224,-0.991,-1.0538,-1.2484,-1.3997,-1.5514,-1.7332,-1.6934,-1.6396,-1.6078,-1.8143,-1.8961,-1.8772,-1.9165,-1.9489,-1.8596,-1.6931,-1.5604,-1.5454,-1.5198,-1.5521,-1.6585,-1.6181,-1.5946,-1.6009,-1.6338,-1.6266,-1.6081,-1.5802,-1.5314,-1.4831,-1.4329,-1.3593,-1.2233,-1.1699,-1.1702,-1.2557,-1.3544,-1.3958,-1.3585,-1.2191,-1.0791,-0.9931,-0.8753,-0.7944,-0.7577,-0.7464,-0.6788,-0.5598,-0.5813,-0.6895,-0.8178,-0.9561,-0.9993,-1.0064,-1.0677,-1.1534,-1.2044,-1.2388,-1.2562,-4.0081,-3.994,-4.0047,-4.0134,-4.0238,-3.9729,-3.8681,-3.7711,-3.5644,-3.425,-3.2965,-3.1174,-3.0357,-2.9229,-2.7436,-2.573,-2.4947,-2.3879,-2.2221,-2.0262,-1.9831,-1.9322,-1.8577,-1.8119,-1.6913,-1.5199,-1.1662,-0.7247,-0.2277,0.0855,0.3382,0.5056,0.6925,0.8153,0.8108,0.8959,0.9248,1.0332,1.1971,1.2678,1.2822,1.5026,1.4489,1.115,1.0373,0.8512,0.5079,0.2394,-0.05,-0.3313,-0.459,-0.6276,-0.8324,-0.9553,-1.0169,-0.9939,-0.9996,-1.065,-1.1722,-1.2772,-1.4505,-1.6509,-1.7933,-1.7316,-1.521,-1.6785,-1.8733,-1.9607,-2.042,-2.0743,-2.0538,-1.925,-1.7684,-1.6378,-1.5816,-1.5908,-1.626,-1.6977,-1.6773,-1.5307,-1.5764,-1.6596,-1.6646,-1.6742,-1.6678,-1.6437,-1.6327,-1.5652,-1.4104,-1.3838,-1.4502,-1.5456,-1.5912,-1.5951,-1.5126,-1.4254,-1.3113,-1.201,-1.0687,-0.9681,-0.9698,-0.9556,-0.8695,-0.7755,-0.853,-0.9696,-1.058,-1.1652,-1.1599,-1.1646,-1.2429,-1.2635,-1.2689,-1.2727,-1.2574,-4.4465,-4.385,-4.4302,-4.4092,-4.3551,-4.3183,-4.2043,-4.0066,-3.7809,-3.5661,-3.3547,-3.1125,-2.9547,-2.8345,-2.6223,-2.4634,-2.3644,-2.244,-2.1126,-2.0087,-1.9495,-1.9023,-1.8432,-1.7593,-1.5711,-1.2632,-0.8091,-0.3843,-0.0108,0.3223,0.5065,0.5903,0.7217,0.7423,0.6818,0.703,0.7204,0.7433,0.8176,0.8673,0.9158,1.0222,1.004,0.87,0.7588,0.6405,0.5031,0.3057,0.1036,-0.1065,-0.2491,-0.4526,-0.6934,-0.8304,-0.8731,-0.8539,-0.9182,-1.0192,-1.163,-1.3158,-1.4801,-1.6623,-1.8374,-1.7104,-1.3849,-1.4848,-1.6941,-1.8913,-2.0891,-2.2321,-2.2283,-2.1037,-1.9029,-1.6637,-1.6233,-1.5915,-1.5689,-1.5702,-1.5515,-1.5263,-1.5675,-1.6191,-1.6688,-1.7237,-1.7838,-1.7736,-1.7827,-1.7389,-1.6361,-1.6042,-1.658,-1.7627,-1.781,-1.8071,-1.7704,-1.6771,-1.5272,-1.4217,-1.2936,-1.1845,-1.1854,-1.2002,-1.1026,-1.0422,-1.1374,-1.2272,-1.3161,-1.3231,-1.2988,-1.2658,-1.2866,-1.2935,-1.3005,-1.2848,-1.2522,-4.9306,-4.8548,-4.8648,-4.8296,-4.7471,-4.6715,-4.5016,-4.2741,-3.9761,-3.7118,-3.4654,-3.1952,-2.9902,-2.845,-2.6505,-2.498,-2.3824,-2.2381,-2.1242,-2.0346,-1.9502,-1.8995,-1.8231,-1.6411,-1.3661,-0.9895,-0.5107,-0.0962,0.2358,0.5715,0.7503,0.7541,0.7897,0.7461,0.6228,0.5928,0.5594,0.533,0.5733,0.6064,0.656,0.7359,0.7509,0.6894,0.6102,0.5511,0.4959,0.3791,0.2412,0.0591,-0.1607,-0.4074,-0.6037,-0.7177,-0.7871,-0.8154,-0.8805,-0.996,-1.1719,-1.3653,-1.5374,-1.6772,-1.7615,-1.6132,-1.277,-1.2746,-1.4303,-1.7055,-1.9867,-2.185,-2.1917,-2.1728,-1.9974,-1.7733,-1.6588,-1.5812,-1.5097,-1.4659,-1.4428,-1.4567,-1.5262,-1.6018,-1.6727,-1.78,-1.8885,-1.9237,-1.9498,-1.9462,-1.8635,-1.8374,-1.8883,-1.9372,-1.9753,-2.0167,-2.0619,-1.9298,-1.7453,-1.6369,-1.5347,-1.4534,-1.4074,-1.4836,-1.4614,-1.3088,-1.3184,-1.4335,-1.5192,-1.4423,-1.4056,-1.375,-1.3231,-1.3105,-1.3105,-1.2415,-1.2102,-5.4621,-5.3898,-5.3337,-5.2888,-5.2228,-5.0293,-4.8263,-4.5696,-4.1906,-3.8825,-3.628,-3.3796,-3.1447,-2.9487,-2.8418,-2.6937,-2.5178,-2.4008,-2.2695,-2.1587,-2.037,-1.9329,-1.7823,-1.5116,-1.1838,-0.7785,-0.3067,0.0992,0.423,0.7829,0.9888,0.9039,0.8371,0.7397,0.6111,0.5174,0.4334,0.3611,0.4035,0.4525,0.4833,0.6,0.6524,0.6017,0.5977,0.5606,0.5135,0.4613,0.3439,0.1457,-0.1852,-0.4115,-0.5261,-0.6565,-0.7629,-0.8312,-0.8829,-1.0172,-1.2039,-1.3921,-1.5649,-1.68,-1.6298,-1.3811,-1.1242,-1.0496,-1.1524,-1.4377,-1.749,-1.9568,-2.0045,-2.0903,-2.0559,-1.9048,-1.6846,-1.5296,-1.4239,-1.4076,-1.399,-1.3871,-1.4862,-1.6279,-1.679,-1.8106,-1.955,-2.0842,-2.1047,-2.0706,-2.0696,-2.0419,-2.0467,-2.1029,-2.1658,-2.2208,-2.2736,-2.123,-1.9571,-1.9629,-1.8611,-1.7793,-1.65,-1.6813,-1.7074,-1.5677,-1.5246,-1.6409,-1.6529,-1.5579,-1.4921,-1.4265,-1.3872,-1.3468,-1.2896,-1.2173,-1.1305,-6.036,-6.0315,-6.0087,-5.9348,-5.8084,-5.6079,-5.3255,-4.9992,-4.6489,-4.3378,-4.0736,-3.7741,-3.573,-3.4342,-3.1903,-3.0079,-2.8656,-2.7217,-2.5593,-2.4054,-2.2473,-1.9807,-1.6969,-1.4257,-1.123,-0.7496,-0.2828,0.1477,0.5017,0.8254,0.94,0.8604,0.8659,0.7541,0.5659,0.4702,0.3643,0.2813,0.3298,0.3804,0.4306,0.5517,0.6188,0.6363,0.6673,0.6542,0.5762,0.4849,0.3147,0.0863,-0.1385,-0.3552,-0.5226,-0.6612,-0.7734,-0.8484,-0.9751,-1.0801,-1.1883,-1.3739,-1.5488,-1.6859,-1.7004,-1.5154,-1.0619,-0.9023,-0.953,-1.1594,-1.4469,-1.7103,-1.8313,-1.9835,-1.9888,-1.8726,-1.6669,-1.4981,-1.4477,-1.4141,-1.4077,-1.4655,-1.5079,-1.595,-1.7023,-1.8195,-1.9477,-2.0802,-2.1319,-2.1613,-2.181,-2.2149,-2.2099,-2.2867,-2.3541,-2.4231,-2.4231,-2.2824,-2.212,-2.2629,-2.2128,-2.149,-1.974,-1.8249,-1.8071,-1.7218,-1.7506,-1.8428,-1.7385,-1.6404,-1.5603,-1.4707,-1.3847,-1.3105,-1.2294,-1.1592,-1.0575,-6.7715,-6.771,-6.7334,-6.612,-6.4309,-6.1756,-5.8647,-5.4978,-5.0904,-4.7778,-4.5076,-4.2003,-3.9649,-3.8089,-3.5805,-3.379,-3.2121,-3.0375,-2.85,-2.6023,-2.3112,-1.9709,-1.6374,-1.3776,-1.0897,-0.7323,-0.2798,0.1389,0.509,0.8004,0.9029,0.9219,0.8871,0.7714,0.6059,0.4947,0.4001,0.33,0.3551,0.3937,0.4444,0.5571,0.635,0.6667,0.7245,0.7334,0.6074,0.4677,0.2754,0.0335,-0.1969,-0.3934,-0.5262,-0.6709,-0.7871,-0.8733,-1.0329,-1.1439,-1.2319,-1.3905,-1.534,-1.6457,-1.732,-1.5152,-1.1227,-0.8709,-0.8299,-0.9335,-1.2342,-1.4765,-1.6677,-1.8519,-1.922,-1.8748,-1.7476,-1.6086,-1.4902,-1.4882,-1.4966,-1.5221,-1.5503,-1.5872,-1.6918,-1.7946,-1.9269,-2.0527,-2.1406,-2.2115,-2.2861,-2.3209,-2.3764,-2.4534,-2.5211,-2.57,-2.6299,-2.5419,-2.4968,-2.5367,-2.5743,-2.5152,-2.2863,-2.0512,-1.9737,-1.9533,-1.9898,-1.9705,-1.8291,-1.7027,-1.571,-1.4701,-1.3725,-1.2715,-1.2009,-1.0785,-0.9644,-7.6115,-7.5972,-7.4805,-7.3111,-7.0728,-6.7332,-6.3811,-6.0126,-5.545,-5.1724,-4.9001,-4.5898,-4.3397,-4.1177,-3.9522,-3.756,-3.5254,-3.3307,-3.039,-2.711,-2.314,-1.9076,-1.6195,-1.3682,-1.063,-0.7073,-0.3107,0.0823,0.4303,0.7054,0.9073,0.9533,0.9093,0.8187,0.6941,0.5928,0.495,0.4378,0.4538,0.4931,0.5452,0.6443,0.7093,0.7342,0.7568,0.7241,0.5822,0.4234,0.2112,-0.0328,-0.3015,-0.4521,-0.5397,-0.6908,-0.8222,-0.9465,-1.0845,-1.2126,-1.3105,-1.4383,-1.5397,-1.6101,-1.698,-1.5627,-1.1406,-0.914,-0.8073,-0.7433,-1.0623,-1.3415,-1.5299,-1.7303,-1.8465,-1.8755,-1.9237,-1.8208,-1.6343,-1.6087,-1.6291,-1.547,-1.616,-1.6266,-1.666,-1.7462,-1.8948,-2.03,-2.125,-2.2362,-2.3242,-2.3743,-2.4748,-2.6117,-2.6707,-2.7121,-2.7759,-2.8168,-2.8119,-2.8255,-2.8954,-2.8347,-2.5732,-2.3737,-2.2394,-2.1828,-2.1997,-2.0831,-1.8845,-1.7517,-1.6205,-1.4952,-1.4111,-1.292,-1.1614,-1.004,-0.8671,-8.479,-8.4234,-8.2388,-8.0019,-7.716,-7.3029,-6.8802,-6.4784,-6.0373,-5.6417,-5.3041,-4.9754,-4.7428,-4.5699,-4.2855,-4.0479,-3.8268,-3.5671,-3.2141,-2.6543,-2.2975,-1.9514,-1.6432,-1.3674,-1.0675,-0.7489,-0.4229,-0.0717,0.277,0.6463,0.861,0.897,0.9163,0.8503,0.8056,0.7075,0.6094,0.586,0.6005,0.6413,0.6967,0.768,0.8156,0.8402,0.7812,0.6685,0.5174,0.3345,0.0894,-0.1539,-0.3218,-0.4763,-0.6009,-0.6957,-0.8354,-1.0241,-1.1885,-1.3105,-1.3905,-1.4976,-1.5818,-1.6084,-1.5846,-1.4545,-1.1903,-1.0078,-0.8245,-0.7328,-0.9786,-1.2999,-1.4839,-1.6068,-1.7421,-1.8548,-1.9546,-1.9846,-1.9006,-1.8427,-1.7894,-1.7335,-1.6561,-1.6225,-1.6638,-1.7364,-1.8652,-1.9932,-2.1247,-2.2536,-2.339,-2.4137,-2.5565,-2.7046,-2.7575,-2.798,-2.8503,-2.923,-2.9945,-3.0078,-3.0755,-3.0874,-2.8341,-2.6409,-2.4889,-2.4174,-2.3907,-2.2084,-1.9598,-1.809,-1.6651,-1.5574,-1.4318,-1.2982,-1.1439,-0.9607,-0.8023,-9.3032,-9.1761,-8.8875,-8.5765,-8.2172,-7.7337,-7.2967,-6.9009,-6.4462,-6.0607,-5.7117,-5.3633,-5.0882,-4.8649,-4.5573,-4.2903,-3.9916,-3.5764,-3.123,-2.6623,-2.2978,-1.9693,-1.6537,-1.3483,-1.0616,-0.7825,-0.4603,-0.1228,0.2594,0.5912,0.8412,0.9731,0.9822,1.0165,1.0186,0.9258,0.915,0.9226,0.9067,0.9067,0.9207,0.9316,0.8947,0.8295,0.7057,0.5584,0.3817,0.1549,-0.0724,-0.2898,-0.4613,-0.5911,-0.6878,-0.7611,-0.898,-1.1215,-1.3576,-1.4467,-1.4966,-1.5724,-1.6479,-1.6372,-1.5632,-1.4129,-1.1836,-0.9723,-0.8222,-0.8045,-0.9898,-1.2186,-1.4401,-1.5651,-1.6807,-1.785,-1.9406,-2.021,-2.0075,-1.943,-1.8715,-1.8156,-1.7344,-1.7052,-1.7254,-1.7687,-1.8557,-1.9948,-2.1287,-2.2549,-2.3493,-2.4372,-2.6148,-2.7512,-2.8197,-2.8701,-2.9168,-2.9973,-3.1264,-3.1504,-3.1846,-3.1577,-3.029,-2.8589,-2.7086,-2.6067,-2.4607,-2.2619,-2.031,-1.8823,-1.7023,-1.5461,-1.4201,-1.2978,-1.1234,-0.9238,-0.8006,-10.0137,-9.8104,-9.4054,-9.0083,-8.5985,-8.076,-7.6576,-7.3128,-6.857,-6.5016,-6.1363,-5.7614,-5.4466,-5.1272,-4.8004,-4.4735,-4.0162,-3.4943,-3.002,-2.6637,-2.2559,-1.9325,-1.6111,-1.2952,-0.9797,-0.7495,-0.464,-0.1012,0.2529,0.589,0.8783,1.09,1.1614,1.2101,1.2704,1.2593,1.2273,1.2597,1.2242,1.1704,1.1071,1.068,0.9525,0.7351,0.5396,0.3602,0.1615,-0.0502,-0.2722,-0.4546,-0.682,-0.81,-0.8683,-0.8696,-0.9694,-1.2276,-1.4901,-1.606,-1.5989,-1.664,-1.7219,-1.6881,-1.6327,-1.4874,-1.2676,-0.9184,-0.7452,-0.8358,-0.9905,-1.1492,-1.386,-1.4804,-1.5741,-1.6786,-1.8633,-1.9753,-2.018,-1.9536,-1.856,-1.8393,-1.7856,-1.7557,-1.7631,-1.8007,-1.8921,-1.9953,-2.1341,-2.2532,-2.3496,-2.4754,-2.6443,-2.8098,-2.8907,-2.9258,-2.9668,-3.0208,-3.1413,-3.2062,-3.236,-3.2007,-3.1517,-3.0533,-2.8702,-2.6231,-2.4585,-2.262,-2.0939,-1.9334,-1.7529,-1.5574,-1.3985,-1.2686,-1.085,-0.8744,-0.7848,-10.383,-10.0764,-9.5706,-9.1603,-8.7717,-8.3357,-7.9811,-7.7165,-7.3766,-7.0324,-6.6504,-6.2448,-5.8756,-5.5187,-5.059,-4.5199,-3.9413,-3.3861,-2.9725,-2.6104,-2.1933,-1.8267,-1.51,-1.1826,-0.8584,-0.5992,-0.3675,-0.1034,0.2703,0.6392,0.928,1.1225,1.2756,1.4042,1.5206,1.5412,1.5258,1.5226,1.4676,1.3667,1.2377,1.0677,0.8689,0.5787,0.3276,0.1114,-0.084,-0.2865,-0.4892,-0.7011,-0.868,-1.0375,-1.1412,-1.072,-1.1032,-1.2811,-1.5569,-1.7143,-1.7109,-1.7723,-1.7992,-1.7971,-1.7994,-1.6891,-1.4112,-1.0096,-0.7301,-0.6893,-0.9079,-1.1515,-1.3531,-1.4004,-1.4569,-1.5696,-1.6334,-1.746,-1.9095,-1.8778,-1.7757,-1.7773,-1.7775,-1.8008,-1.8163,-1.8489,-1.9257,-2.0398,-2.1758,-2.2791,-2.364,-2.5047,-2.6693,-2.8275,-2.9724,-2.9893,-3.0083,-3.0537,-3.1286,-3.1877,-3.2202,-3.2185,-3.1771,-3.1614,-3.0072,-2.753,-2.506,-2.3,-2.1354,-1.9952,-1.823,-1.6498,-1.4642,-1.2673,-1.102,-0.938,-0.7612,-10.4192,-10.0638,-9.5322,-9.124,-8.8039,-8.4607,-8.178,-7.9545,-7.7222,-7.4546,-7.1122,-6.7337,-6.3406,-5.9269,-5.4492,-4.7641,-3.9652,-3.3068,-2.9042,-2.5268,-2.0833,-1.6833,-1.4113,-1.0855,-0.7753,-0.4768,-0.2477,0.0134,0.3309,0.6677,0.9615,1.1949,1.3742,1.57,1.727,1.7812,1.7937,1.7742,1.6808,1.5235,1.285,1.0163,0.636,0.3538,0.0931,-0.1308,-0.3214,-0.4968,-0.6684,-0.8471,-1.0417,-1.2435,-1.3648,-1.3999,-1.3544,-1.453,-1.6409,-1.7796,-1.801,-1.8582,-1.8957,-1.8761,-1.9162,-1.7879,-1.4644,-1.0656,-0.6988,-0.6378,-0.8366,-1.1473,-1.319,-1.3369,-1.3771,-1.3838,-1.3937,-1.5247,-1.677,-1.6644,-1.6678,-1.6843,-1.7045,-1.7574,-1.8668,-1.9097,-1.971,-2.0805,-2.2178,-2.3036,-2.3834,-2.531,-2.6895,-2.8825,-3.0245,-3.0591,-3.0572,-3.0702,-3.1129,-3.1692,-3.1902,-3.1915,-3.1893,-3.1639,-3.044,-2.8575,-2.6104,-2.3693,-2.2184,-2.0862,-1.9112,-1.7348,-1.5185,-1.311,-1.1556,-0.9901,-0.8175,-10.2346,-9.8794,-9.3775,-9.0122,-8.7536,-8.4971,-8.2882,-8.114,-7.9857,-7.7782,-7.5192,-7.1807,-6.7851,-6.3104,-5.695,-4.9496,-4.0226,-3.3553,-2.8872,-2.4441,-1.9596,-1.5485,-1.2971,-0.965,-0.636,-0.3081,-0.0289,0.1984,0.4095,0.6684,0.9429,1.2004,1.4347,1.6596,1.8292,1.91,1.991,1.9594,1.853,1.6389,1.2284,0.753,0.3356,0.0741,-0.1477,-0.3564,-0.5372,-0.6851,-0.8471,-1.0248,-1.2303,-1.4572,-1.6447,-1.7072,-1.7161,-1.7207,-1.7836,-1.8246,-1.8689,-1.9154,-1.9476,-1.9214,-1.9405,-1.7771,-1.448,-1.0364,-0.6475,-0.5976,-0.808,-1.1088,-1.2756,-1.3225,-1.3125,-1.2807,-1.2504,-1.2618,-1.4016,-1.4705,-1.5275,-1.56,-1.6118,-1.7038,-1.8104,-1.9026,-1.9524,-2.1159,-2.2498,-2.3159,-2.4002,-2.5488,-2.7157,-2.9328,-3.066,-3.1096,-3.1086,-3.0796,-3.1152,-3.1552,-3.1437,-3.1341,-3.1422,-3.1398,-3.0206,-2.9206,-2.6749,-2.4436,-2.309,-2.1477,-1.9585,-1.754,-1.5382,-1.3389,-1.163,-0.9883,-0.8215,-9.8061,-9.4623,-9.0889,-8.8113,-8.608,-8.4329,-8.3295,-8.2596,-8.2101,-8.0549,-7.7951,-7.5484,-7.1676,-6.5777,-5.7201,-4.9507,-4.2506,-3.554,-2.9397,-2.4244,-1.8817,-1.4677,-1.1723,-0.662,-0.3876,-0.107,0.1643,0.3186,0.4608,0.6732,0.9062,1.1592,1.4332,1.6915,1.8368,1.9324,1.991,1.9496,1.808,1.4794,0.9973,0.5216,0.181,-0.0899,-0.3445,-0.5668,-0.7208,-0.8621,-1.024,-1.2403,-1.4402,-1.6972,-1.9424,-1.9807,-2.0585,-2.0858,-2.0704,-1.9668,-1.9601,-1.9736,-1.955,-1.9265,-1.9199,-1.7721,-1.3796,-0.9201,-0.5482,-0.5289,-0.7579,-1.031,-1.224,-1.2186,-1.239,-1.2228,-1.1792,-1.1142,-1.1516,-1.3108,-1.3678,-1.4504,-1.5071,-1.6303,-1.749,-1.8404,-1.9431,-2.122,-2.2716,-2.3292,-2.4379,-2.5959,-2.7456,-2.9596,-3.0479,-3.0865,-3.0992,-3.0749,-3.0851,-3.1227,-3.0997,-3.0813,-3.083,-3.1004,-3.1031,-2.9621,-2.7262,-2.5182,-2.3678,-2.185,-1.9979,-1.7892,-1.5836,-1.3613,-1.1438,-0.9821,-0.8274,-8.9409,-9.0711,-8.7322,-8.536,-8.4534,-8.3818,-8.3221,-8.2818,-8.2962,-8.1994,-7.9908,-7.7823,-7.3205,-6.6014,-5.8291,-5.1403,-4.4155,-3.6265,-2.9726,-2.4185,-1.8583,-1.3606,-0.9268,-0.4961,-0.146,0.0475,0.2614,0.3867,0.5146,0.6669,0.8796,1.0863,1.3412,1.5556,1.7514,1.8606,1.8935,1.8183,1.5931,1.284,0.9115,0.4606,0.0359,-0.239,-0.494,-0.6873,-0.846,-1.0185,-1.1978,-1.4279,-1.673,-1.9618,-2.1797,-2.2698,-2.3342,-2.3611,-2.3016,-2.162,-2.0189,-2.0289,-1.9748,-1.8798,-1.7992,-1.5863,-1.1541,-0.7656,-0.4953,-0.5036,-0.7009,-0.9629,-1.1926,-1.1859,-1.1815,-1.1656,-1.1213,-1.049,-1.0194,-1.1084,-1.2216,-1.3131,-1.4076,-1.5349,-1.6694,-1.8033,-1.9168,-2.0615,-2.2246,-2.3291,-2.4914,-2.705,-2.846,-2.9902,-3.0374,-3.0481,-3.047,-3.0396,-3.0295,-3.0578,-3.0491,-3.0331,-3.0376,-3.0487,-3.0499,-3.017,-2.8497,-2.6428,-2.4356,-2.2274,-2.0361,-1.8259,-1.631,-1.4053,-1.1854,-1.0088,-0.8565,-8.1019,-8.5467,-8.3848,-8.316,-8.2886,-8.2908,-8.2425,-8.2017,-8.2247,-8.1677,-8.0075,-7.7572,-7.2197,-6.5748,-5.9764,-5.3172,-4.6128,-3.7147,-3.0523,-2.4829,-1.882,-1.2963,-0.8357,-0.3816,-0.0842,0.1638,0.3617,0.4694,0.5486,0.6868,0.8394,0.9875,1.2507,1.4495,1.621,1.7502,1.8249,1.7412,1.419,1.1401,0.8462,0.388,-0.0201,-0.3304,-0.5864,-0.7875,-0.9514,-1.1609,-1.3701,-1.6262,-1.9309,-2.2143,-2.4232,-2.5103,-2.5723,-2.5987,-2.5689,-2.4135,-2.2182,-2.1049,-2.0013,-1.8589,-1.673,-1.4349,-0.9003,-0.6038,-0.4933,-0.4986,-0.6733,-0.922,-1.117,-1.1384,-1.1315,-1.107,-1.0709,-1.0038,-0.9569,-1.0153,-1.077,-1.1571,-1.2697,-1.4246,-1.5745,-1.7518,-1.8902,-2.0185,-2.1583,-2.3075,-2.5168,-2.7426,-2.835,-2.9378,-2.9142,-2.9305,-2.9738,-2.9823,-2.9746,-2.9754,-2.9759,-2.9806,-2.9806,-2.9874,-3.0054,-2.9575,-2.8873,-2.6786,-2.4175,-2.2435,-2.0695,-1.8768,-1.6782,-1.4489,-1.2487,-1.0493,-0.8587,-7.4592,-7.801,-8.0552,-8.1319,-8.0968,-8.0752,-8.0755,-8.0491,-8.0249,-7.9277,-7.7455,-7.4213,-7.0596,-6.5898,-6.0458,-5.4414,-4.7953,-4.0261,-3.2956,-2.5858,-1.9191,-1.3447,-0.8575,-0.4693,-0.157,0.1843,0.3681,0.488,0.5812,0.6586,0.7923,0.9385,1.1673,1.3713,1.5618,1.7124,1.7322,1.6255,1.3527,1.0289,0.7101,0.2968,-0.0898,-0.4066,-0.6687,-0.9033,-1.1127,-1.3481,-1.5644,-1.8162,-2.1679,-2.4339,-2.635,-2.7306,-2.7972,-2.8222,-2.8033,-2.6348,-2.4259,-2.2181,-2.0139,-1.8369,-1.6208,-1.3388,-0.8281,-0.5984,-0.5054,-0.5079,-0.6551,-0.8327,-0.9842,-1.0388,-1.0378,-1.0268,-0.969,-0.8394,-0.8161,-0.8844,-0.9455,-1.0107,-1.1423,-1.3188,-1.4615,-1.6396,-1.8107,-1.9397,-2.1259,-2.2775,-2.4972,-2.6969,-2.7604,-2.8056,-2.7615,-2.7865,-2.8711,-2.8815,-2.893,-2.8851,-2.879,-2.8902,-2.8992,-2.9173,-2.9218,-2.8813,-2.801,-2.6027,-2.4171,-2.2522,-2.0915,-1.9223,-1.7169,-1.4831,-1.2065,-0.964,-0.7826,-7.0051,-7.283,-7.5764,-7.7319,-7.7885,-7.8366,-7.8231,-7.7667,-7.7284,-7.604,-7.3996,-7.1151,-6.8179,-6.4361,-5.9939,-5.4432,-4.8554,-4.2019,-3.49,-2.8202,-2.1821,-1.5678,-1.0675,-0.6354,-0.324,0.0172,0.2436,0.4406,0.5876,0.6541,0.7601,0.928,1.1202,1.295,1.481,1.6634,1.6803,1.5813,1.3598,1.0651,0.6865,0.2865,-0.1167,-0.5165,-0.7665,-0.9799,-1.1957,-1.5597,-1.755,-1.9936,-2.3865,-2.6485,-2.8265,-2.9245,-2.9847,-2.9871,-2.9405,-2.7757,-2.5838,-2.3833,-2.173,-1.8137,-1.5977,-1.3041,-0.8191,-0.5943,-0.5062,-0.5327,-0.6138,-0.772,-0.8756,-0.9212,-0.9349,-0.9312,-0.8589,-0.7163,-0.6818,-0.7529,-0.8533,-0.936,-1.0859,-1.2592,-1.3871,-1.5215,-1.6927,-1.8618,-2.0555,-2.2493,-2.4464,-2.6038,-2.6497,-2.6852,-2.6445,-2.6603,-2.7386,-2.768,-2.7906,-2.7895,-2.7877,-2.7856,-2.7855,-2.7944,-2.7899,-2.7679,-2.7108,-2.5275,-2.3725,-2.2564,-2.1065,-1.9228,-1.713,-1.4876,-1.1935,-0.8937,-0.7437,-6.5389,-6.8009,-7.0524,-7.3014,-7.4959,-7.553,-7.4931,-7.383,-7.3068,-7.1495,-6.903,-6.6937,-6.4389,-6.1034,-5.7168,-5.3109,-4.7861,-4.2115,-3.6095,-3.0105,-2.4107,-1.8373,-1.3284,-0.8903,-0.5387,-0.2121,0.0164,0.2286,0.5357,0.6057,0.7403,0.9087,1.0738,1.2733,1.4646,1.648,1.7249,1.6037,1.3891,1.0827,0.708,0.2914,-0.137,-0.5538,-0.8268,-1.0915,-1.3595,-1.7082,-1.9509,-2.1867,-2.4998,-2.8425,-2.9775,-3.0605,-3.1274,-3.0757,-2.966,-2.816,-2.6905,-2.4372,-2.2186,-1.8963,-1.6331,-1.275,-0.8723,-0.5872,-0.4835,-0.4948,-0.5784,-0.684,-0.7976,-0.8486,-0.8814,-0.8919,-0.7958,-0.6728,-0.6016,-0.6282,-0.7519,-0.8662,-1.0358,-1.2035,-1.3265,-1.4627,-1.6704,-1.8276,-1.9682,-2.1431,-2.3083,-2.4371,-2.5055,-2.5363,-2.5338,-2.5596,-2.5981,-2.625,-2.6516,-2.6628,-2.656,-2.6515,-2.6558,-2.6646,-2.6605,-2.6411,-2.5658,-2.4354,-2.3089,-2.1784,-2.0508,-1.922,-1.6775,-1.4205,-1.2239,-0.9444,-0.7951,-6.0329,-6.3301,-6.5055,-6.8413,-7.1681,-7.2178,-7.0884,-6.8673,-6.7478,-6.5397,-6.248,-6.0395,-5.8577,-5.5976,-5.2705,-4.9706,-4.6188,-4.1429,-3.621,-3.1033,-2.6117,-2.071,-1.6073,-1.1644,-0.8067,-0.4937,-0.2363,0.0766,0.4428,0.5626,0.725,0.9305,1.1194,1.3251,1.4687,1.681,1.7495,1.6523,1.4122,1.0613,0.6957,0.2819,-0.1629,-0.5529,-0.8777,-1.1614,-1.5036,-1.8895,-2.126,-2.3072,-2.7016,-2.9642,-3.0308,-3.0935,-3.1655,-3.2247,-3.0015,-2.8822,-2.8333,-2.3966,-2.149,-2.0078,-1.7786,-1.3595,-0.8769,-0.596,-0.471,-0.4894,-0.5596,-0.6594,-0.7436,-0.8123,-0.8454,-0.8147,-0.7215,-0.6467,-0.5753,-0.5351,-0.6624,-0.7882,-0.971,-1.1487,-1.2697,-1.4232,-1.6494,-1.8113,-1.9177,-2.0442,-2.1813,-2.2554,-2.3198,-2.3733,-2.3875,-2.4378,-2.4652,-2.4808,-2.5083,-2.5225,-2.5284,-2.5114,-2.513,-2.5213,-2.518,-2.5146,-2.444,-2.3406,-2.2189,-2.0813,-1.9651,-1.8324,-1.5678,-1.3277,-1.1563,-0.9914,-0.8383,-5.4769,-5.6816,-5.8694,-5.9667,-6.0861,-6.4239,-6.4291,-6.2058,-5.9546,-5.7087,-5.515,-5.3346,-5.1668,-4.9663,-4.8255,-4.5752,-4.2632,-4.0362,-3.5905,-3.1539,-2.6894,-2.2735,-1.8236,-1.4352,-1.0956,-0.7673,-0.465,-0.0926,0.2989,0.4787,0.6859,0.8913,1.1654,1.4407,1.6126,1.7439,1.7209,1.5999,1.3518,1.0707,0.7675,0.2834,-0.1899,-0.6144,-0.9271,-1.2545,-1.6022,-2.0083,-2.2767,-2.4548,-2.859,-3.064,-3.1067,-3.1568,-3.1742,-3.1524,-2.9565,-2.8299,-2.7153,-2.4441,-2.2665,-2.1272,-1.9242,-1.479,-0.8588,-0.6432,-0.5419,-0.5078,-0.5689,-0.694,-0.8678,-0.8228,-0.8099,-0.7533,-0.6739,-0.6176,-0.5567,-0.5304,-0.5859,-0.7065,-0.8656,-1.1106,-1.2784,-1.4154,-1.6218,-1.7169,-1.8062,-1.8986,-2.0276,-2.061,-2.1043,-2.1797,-2.2298,-2.2932,-2.3327,-2.3639,-2.3659,-2.3676,-2.3669,-2.3539,-2.3614,-2.3827,-2.4129,-2.4227,-2.3426,-2.2479,-2.1292,-2.0055,-1.8964,-1.7265,-1.5208,-1.3457,-1.2085,-1.0317,-0.8339,-4.811,-4.9456,-5.0751,-5.0383,-5.0102,-5.5913,-5.6813,-5.3177,-4.9817,-4.7428,-4.6095,-4.5688,-4.4334,-4.2628,-4.1682,-4.1115,-3.8183,-3.6538,-3.4368,-3.0565,-2.7171,-2.337,-1.9792,-1.6628,-1.3744,-1.0532,-0.6773,-0.271,0.2206,0.388,0.6549,0.9552,1.1712,1.3058,1.4746,1.5341,1.5499,1.3943,1.1668,0.911,0.5949,0.2076,-0.237,-0.6213,-0.9709,-1.3019,-1.6837,-2.0553,-2.4114,-2.642,-2.9016,-3.139,-3.1661,-3.1777,-3.1742,-3.0896,-2.9561,-2.8155,-2.6589,-2.5123,-2.3469,-2.2319,-2.0694,-1.5577,-0.903,-0.6328,-0.5687,-0.5522,-0.5968,-0.7057,-0.8309,-0.7762,-0.7782,-0.7209,-0.7054,-0.6491,-0.5588,-0.535,-0.5734,-0.6865,-0.8622,-1.0942,-1.2958,-1.4364,-1.5995,-1.6461,-1.6903,-1.7819,-1.8737,-1.9179,-1.9519,-2.0267,-2.1192,-2.1978,-2.2449,-2.2676,-2.2533,-2.2165,-2.2197,-2.2266,-2.2473,-2.2785,-2.3162,-2.3327,-2.2465,-2.1516,-2.0449,-1.9299,-1.8359,-1.7313,-1.5747,-1.412,-1.2783,-1.0842,-0.8676,-4.0312,-4.1467,-4.1536,-4.0583,-4.057,-4.6519,-4.687,-4.2363,-3.9286,-3.6962,-3.5451,-3.783,-3.655,-3.4071,-3.3811,-3.3736,-3.3409,-3.1727,-3.0254,-2.845,-2.5685,-2.2913,-2.0009,-1.683,-1.4717,-1.2727,-0.9432,-0.3821,0.1569,0.4397,0.7311,0.9429,1.0334,1.0914,1.1466,1.1531,1.1994,1.085,0.9155,0.6805,0.411,0.0795,-0.3238,-0.6878,-1.0021,-1.3487,-1.7209,-2.0927,-2.4393,-2.7198,-2.9807,-3.0825,-3.1389,-3.1663,-3.1741,-3.115,-2.964,-2.7876,-2.6602,-2.5167,-2.3798,-2.2322,-1.9722,-1.4253,-0.9372,-0.6075,-0.5485,-0.558,-0.5935,-0.6521,-0.7125,-0.7488,-0.7818,-0.7718,-0.7757,-0.6939,-0.5858,-0.5761,-0.6222,-0.7451,-0.9357,-1.1379,-1.3059,-1.4562,-1.5326,-1.5708,-1.6113,-1.6651,-1.7531,-1.8338,-1.8784,-1.9233,-2.0195,-2.1136,-2.1565,-2.1909,-2.1689,-2.1367,-2.1288,-2.137,-2.157,-2.1741,-2.194,-2.193,-2.1503,-2.0727,-1.9654,-1.876,-1.797,-1.6818,-1.5726,-1.456,-1.3035,-1.1114,-0.9239,-3.24,-3.2295,-3.1576,-3.0303,-2.9186,-3.0324,-3.1134,-3.1479,-2.9029,-2.7354,-2.6561,-2.6446,-2.6336,-2.5292,-2.6493,-2.681,-2.6964,-2.6673,-2.6355,-2.4976,-2.3402,-2.131,-1.9178,-1.6615,-1.4753,-1.249,-0.9164,-0.4867,0.0758,0.4395,0.6436,0.7832,0.8079,0.7614,0.6783,0.6105,0.704,0.7288,0.5845,0.4452,0.2403,-0.051,-0.4271,-0.7769,-1.0292,-1.3782,-1.7626,-2.1309,-2.466,-2.7113,-3.0094,-3.1506,-3.1399,-3.1852,-3.1917,-3.0211,-2.8386,-2.6627,-2.6229,-2.4828,-2.3455,-2.208,-1.9503,-1.4177,-0.9182,-0.6004,-0.5267,-0.5404,-0.5916,-0.6524,-0.707,-0.7507,-0.7978,-0.8268,-0.8334,-0.7956,-0.7028,-0.6993,-0.7486,-0.8638,-1.0511,-1.1262,-1.2993,-1.3915,-1.4624,-1.4957,-1.5417,-1.5894,-1.6433,-1.7324,-1.8302,-1.8829,-1.9675,-2.0724,-2.1024,-2.1389,-2.0938,-2.062,-2.0542,-2.0458,-2.0439,-2.0605,-2.0789,-2.0515,-2.0018,-1.9523,-1.8964,-1.813,-1.7412,-1.6684,-1.5677,-1.4558,-1.3305,-1.1401,-0.9903,-2.4012,-2.3089,-2.1496,-1.9786,-1.7917,-1.6604,-1.7187,-1.8967,-2.0074,-1.9795,-1.7721,-1.7597,-1.7567,-1.8358,-1.9364,-2.0413,-2.1632,-2.206,-2.2309,-2.1972,-2.0576,-1.918,-1.7625,-1.5644,-1.3409,-1.1156,-0.8482,-0.4702,0.047,0.3703,0.5961,0.594,0.561,0.3996,0.282,0.1856,0.1565,0.2096,0.2095,0.1644,0.0168,-0.1824,-0.5205,-0.8272,-1.0532,-1.4066,-1.7919,-2.1562,-2.4638,-2.7301,-3.045,-3.1711,-3.1776,-3.2295,-3.1633,-2.9916,-2.7808,-2.6481,-2.5755,-2.4505,-2.3407,-2.1797,-1.8933,-1.3776,-0.95,-0.6037,-0.5361,-0.5105,-0.5815,-0.6496,-0.7021,-0.7617,-0.8209,-0.8802,-0.8938,-0.9062,-0.8799,-0.8599,-0.9279,-1.0208,-1.0967,-1.1499,-1.2381,-1.323,-1.399,-1.4584,-1.5134,-1.5644,-1.6083,-1.6607,-1.7846,-1.8882,-1.9679,-2.0596,-2.0696,-2.0894,-2.0644,-2.033,-1.9813,-1.9714,-1.9598,-1.965,-1.9919,-1.9272,-1.8443,-1.8028,-1.7834,-1.7384,-1.6759,-1.6218,-1.5709,-1.4842,-1.3655,-1.1953,-1.06,-1.5518,-1.4227,-1.1629,-0.9381,-0.7065,-0.6241,-0.598,-0.6394,-1.2213,-1.2852,-1.0056,-1.0372,-1.1504,-1.2966,-1.3892,-1.5397,-1.7011,-1.8205,-1.9161,-1.9139,-1.8,-1.691,-1.6031,-1.3886,-1.2071,-1.0169,-0.7729,-0.4629,0.0156,0.2845,0.3775,0.3957,0.1971,0.0381,-0.0819,-0.2009,-0.2402,-0.2419,-0.1595,-0.1428,-0.2013,-0.3585,-0.5346,-0.7721,-1.0664,-1.3984,-1.7817,-2.1469,-2.4993,-2.8033,-3.0442,-3.1993,-3.2463,-3.2632,-3.1608,-2.9816,-2.7647,-2.6298,-2.5263,-2.4024,-2.3322,-2.1231,-1.7939,-1.3561,-0.9595,-0.647,-0.5565,-0.4937,-0.5452,-0.6069,-0.6649,-0.7643,-0.845,-0.8998,-0.9309,-0.9551,-0.9663,-0.9564,-0.9902,-1.0692,-1.1029,-1.152,-1.2014,-1.2889,-1.3269,-1.4029,-1.4808,-1.5362,-1.6009,-1.6375,-1.7611,-1.8933,-1.9589,-2.0256,-2.0507,-2.0641,-2.0586,-2.0156,-1.9519,-1.9237,-1.9151,-1.9103,-1.9016,-1.8185,-1.7145,-1.681,-1.6587,-1.6209,-1.6092,-1.6138,-1.5666,-1.508,-1.3844,-1.2445,-1.1479,-0.7852,-0.5341,-0.2235,-0.0378,0.0261,-0.0266,-0.1059,-0.208,-0.3955,-0.5318,-0.4971,-0.572,-0.7114,-0.8889,-1.0612,-1.2325,-1.4115,-1.5786,-1.6599,-1.6982,-1.6352,-1.5722,-1.4938,-1.3264,-1.1295,-0.9697,-0.7464,-0.4786,-0.102,0.0717,0.081,-0.0,-0.1717,-0.317,-0.42,-0.5268,-0.5661,-0.5616,-0.4735,-0.382,-0.3803,-0.4373,-0.5713,-0.8018,-1.0787,-1.4615,-1.8626,-2.3059,-2.6428,-2.9519,-3.1999,-3.3064,-3.3276,-3.3057,-3.1679,-2.9539,-2.7487,-2.5925,-2.476,-2.3626,-2.2762,-2.15,-1.8457,-1.4075,-1.0331,-0.7568,-0.581,-0.5237,-0.503,-0.5662,-0.6518,-0.7669,-0.8702,-0.9233,-0.9766,-1.0089,-1.0414,-1.0416,-1.0501,-1.0795,-1.1083,-1.142,-1.1895,-1.2269,-1.2651,-1.3389,-1.4377,-1.5184,-1.6075,-1.6741,-1.8055,-1.9187,-1.952,-2.0018,-2.0286,-2.0294,-2.0293,-1.9931,-1.9265,-1.9005,-1.8718,-1.8549,-1.8313,-1.7056,-1.6103,-1.5644,-1.5315,-1.5378,-1.5321,-1.5616,-1.5622,-1.5048,-1.482,-1.3778,-1.2794,-0.1282,0.1613,0.4763,0.6168,0.5993,0.4797,0.303,0.1181,-0.0233,-0.1331,-0.2349,-0.3712,-0.5301,-0.7064,-0.899,-1.0955,-1.2788,-1.4135,-1.5452,-1.5975,-1.561,-1.5059,-1.3789,-1.2841,-1.087,-0.9291,-0.6945,-0.4287,-0.2673,-0.2356,-0.2601,-0.3816,-0.5362,-0.6545,-0.74,-0.7847,-0.7761,-0.7307,-0.6587,-0.5882,-0.5197,-0.5535,-0.644,-0.8603,-1.1583,-1.5418,-1.989,-2.4368,-2.8042,-3.1118,-3.3796,-3.4187,-3.408,-3.3542,-3.1556,-2.8782,-2.6401,-2.4798,-2.399,-2.3132,-2.2098,-2.0764,-1.8837,-1.4392,-1.3075,-1.0376,-0.7301,-0.6492,-0.5011,-0.5289,-0.6932,-0.8196,-0.9258,-0.9971,-1.063,-1.1145,-1.0733,-1.0291,-1.0625,-1.1096,-1.1148,-1.0989,-1.1455,-1.1916,-1.2301,-1.2834,-1.3825,-1.4607,-1.5629,-1.6642,-1.807,-1.9163,-1.9312,-1.979,-2.0282,-2.0203,-1.9957,-1.957,-1.882,-1.8235,-1.7668,-1.7803,-1.7509,-1.6245,-1.5108,-1.4072,-1.39,-1.4109,-1.4848,-1.533,-1.5312,-1.5007,-1.4878,-1.4867,-1.4391,0.4512,0.7828,1.0723,1.169,1.1285,0.9891,0.766,0.5071,0.2776,0.1232,-0.0,-0.2594,-0.4771,-0.6745,-0.8523,-1.0693,-1.2345,-1.3617,-1.484,-1.5499,-1.4914,-1.4616,-1.402,-1.2864,-1.0793,-0.8598,-0.6534,-0.6307,-0.5913,-0.5787,-0.6179,-0.7631,-0.8708,-0.9822,-0.994,-0.9549,-0.9069,-0.8342,-0.7643,-0.7068,-0.6706,-0.6518,-0.7605,-0.9573,-1.2543,-1.6576,-2.1177,-2.5662,-2.9698,-3.2536,-3.5039,-3.4835,-3.4534,-3.3783,-3.1073,-2.8326,-2.4952,-2.3864,-2.3242,-2.2499,-2.1468,-2.0089,-1.7942,-1.6483,-1.5225,-1.3214,-1.0123,-0.7867,-0.6393,-0.592,-0.7533,-0.8787,-0.9817,-1.0429,-1.1137,-1.1381,-1.0609,-0.9908,-1.0307,-1.084,-1.0711,-1.0476,-1.0981,-1.1446,-1.1855,-1.2409,-1.312,-1.3937,-1.4829,-1.5887,-1.7125,-1.8068,-1.8548,-1.9155,-1.9614,-2.0017,-1.974,-1.8362,-1.7518,-1.7018,-1.6624,-1.665,-1.633,-1.5576,-1.4339,-1.3078,-1.2869,-1.3236,-1.4035,-1.4782,-1.4717,-1.4636,-1.544,-1.5558,-1.5913,0.9889,1.5327,1.7124,1.741,1.679,1.5944,1.4508,1.247,1.0167,0.7661,0.5027,0.1318,-0.215,-0.6151,-0.8301,-1.0254,-1.1952,-1.3042,-1.4082,-1.4796,-1.4515,-1.4376,-1.3857,-1.2461,-1.0739,-0.8871,-0.7699,-0.8049,-0.883,-0.9129,-1.0008,-1.1537,-1.2447,-1.2837,-1.2483,-1.1755,-1.0548,-0.9563,-0.8641,-0.81,-0.8063,-0.8073,-0.8473,-1.0759,-1.3873,-1.8346,-2.2971,-2.7951,-3.1646,-3.4331,-3.5725,-3.5277,-3.449,-3.3712,-3.1371,-2.7852,-2.4453,-2.3318,-2.2773,-2.2131,-2.1252,-2.0686,-1.9139,-1.8535,-1.7478,-1.6634,-1.3708,-1.1063,-0.9486,-0.7973,-0.8893,-0.9749,-1.066,-1.0461,-1.0779,-1.0097,-0.9327,-0.8744,-0.8582,-0.902,-0.9278,-0.9616,-1.0385,-1.0729,-1.0876,-1.1556,-1.2413,-1.3221,-1.4037,-1.5079,-1.6196,-1.6804,-1.7582,-1.7388,-1.7384,-1.9287,-1.9265,-1.7685,-1.614,-1.5403,-1.5129,-1.5335,-1.498,-1.4368,-1.318,-1.1765,-1.1882,-1.246,-1.3106,-1.3804,-1.3983,-1.4249,-1.5301,-1.6038,-1.6425]},{"header":{"parameterUnit":"m.s-1","parameterCategory":1,"la1":31.0,"la2":29.5877,"lo1":-88.7671,"lo2":-86.6584,"dy":0.0162,"dx":0.0185,"nx":115,"ny":88,"refTime":"2026-05-10T00:00:00:Z","depth":0,"parameterNumber":3,"parameterNumberName":"V-component_of_WINDS"},"data":[0.0,0.0,0.0,0.0,0.0,0.0,0.0,0.0,0.0,0.0,0.0,0.0,0.0,0.0,0.0,0.0,0.0,0.0,0.0,0.0,0.0,0.0,0.0,0.0,0.0,0.0,0.0,0.0,0.0,0.0,0.0,0.0,0.0,0.0,0.0,0.0,0.0,0.0,0.0,0.0,0.0,0.2556,0.3925,0.4877,0.5875,0.7073,0.8401,0.0,0.0,0.0,0.0,0.0,0.0,0.0,0.0,0.0,0.0,0.0,0.0,0.0,0.0,0.0,0.0,0.0,0.0,0.0,0.0,0.0,0.0,0.0,0.0,0.0,0.0,0.0,0.0,0.0,0.0,0.0,0.0,0.0,0.0,0.0,0.0,0.0,0.0,0.0,0.0,0.0,0.0,0.0,0.0,0.0,0.0,0.0,0.0,0.0,0.0,0.0,0.0,0.0,0.0,0.0,0.0,0.0,0.0,0.0,0.0,0.0,0.0,0.0,0.0,0.0,0.0,0.0,0.0,0.0,0.0,0.0,0.0,0.0,0.0,0.0,0.0,0.0,0.0,0.0,0.0,0.0,0.0,0.0,0.0,0.0,0.0,0.0,0.0,0.0,0.0,0.0,0.0,0.0,0.0,0.0,0.0,0.0,0.0,0.0,0.0,0.0,0.0,0.0,0.0,0.0,0.0,0.0,0.0,0.0,0.0,0.5673,0.6817,0.7504,0.8513,0.9887,0.0,0.0,0.0,0.0,0.0,0.0,0.0,0.0,0.0,0.0,0.0,0.0,0.0,0.0,0.0,0.0,0.0,0.0,0.0,0.0,0.0,0.0,0.0,0.0,0.0,0.0,0.0,0.0,0.0,0.0,0.0,0.0,0.0,0.0,0.0,0.0,0.0,0.0,0.0,0.0,0.0,0.0,0.0,0.0,0.0,0.0,0.0,0.0,0.0,0.0,0.0,0.0,0.0,0.0,0.0,0.0,0.0,0.0,0.0,0.0,0.0,0.0,0.0,0.0,0.0,0.0,0.0,0.0,0.0,0.0,0.0,0.0,0.0,0.0,0.0,0.0,0.0,0.0,0.0,0.0,0.0,0.0,0.0,0.0,0.0,0.0,0.0,0.0,0.0,0.0,0.0,0.0,0.0,0.0,0.0,0.0,0.0,0.0,0.0,0.0,0.0,0.0,0.0,0.0,0.0,0.0,0.0,0.0,0.0,0.0,0.5664,0.7031,0.8177,0.9041,0.9505,0.0,0.0,0.0,0.0,0.0,0.0,0.0,0.0,0.0,0.0,0.0,0.0,0.0,0.0,0.0,0.0,0.0,0.0,0.0,0.0,0.0,0.0,0.0,0.0,0.0,0.0,0.0,0.0,0.0,0.0,0.0,0.0,0.0,0.0,0.0,0.0,0.0,0.0,0.0,0.0,0.0,0.0,0.0,0.0,0.0,0.0,0.0,0.0,0.0,0.0,0.0,0.0,0.0,0.0,0.0,0.0,0.0,0.0,0.0,0.0,0.0,0.0,0.0,0.0,0.0,0.0,0.0,0.0,0.0,0.0,0.0,0.0,0.0,0.0,0.0,0.0,0.0,0.0,0.0,0.0,0.0,0.0,0.0,0.0,0.0,0.0,0.0,0.0,0.0,0.0,0.0,0.0,0.0,0.0,0.0,0.0,0.0,0.0,0.0,0.0,0.0,0.0,0.0,0.0,0.0,0.0,0.0,0.0,0.0,0.0,0.52,0.682,0.8089,0.8855,0.9088,0.917,0.0,0.0,0.0,0.0,0.0,0.0,0.0,0.0,0.0,0.0,0.0,0.0,0.0,0.0,0.0,0.0,0.0,0.0,0.0,0.0,0.0,0.0,0.0,0.0,0.0,0.0,0.0,0.0,0.0,0.0,0.0,0.0,0.0,0.0,0.0,0.0,0.0,0.0,0.0,0.0,0.0,0.0,0.0,0.0,0.0,0.0,0.0,0.0,0.0,0.0,0.0,0.0,0.0,0.0,0.0,0.0,0.0,0.0,0.0,0.0,0.0,0.0,0.0,0.0,0.0,0.0,0.0,0.0,0.0,0.0,0.0,0.0,0.0,0.0,0.0,0.0,0.0,0.0,0.0,0.0,0.0,0.0,0.0,0.0,0.0,0.0,0.0,0.0,0.0,0.0,0.0,0.0,0.0,0.0,0.0,0.0,0.0,0.0,0.0,0.0,0.0,0.0,0.0,0.0,0.0,0.0,0.0,0.0,0.0,0.4548,0.6335,0.7482,0.8221,0.8515,0.8703,0.0,0.0,0.0,0.0,0.0,0.0,0.0,0.0,0.0,0.0,0.0,0.0,0.0,0.0,0.0,0.0,0.0,0.0,0.0,0.0,0.0,0.0,0.0,0.0,0.0,0.0,0.0,0.0,0.0,0.0,0.0,0.0,0.0,0.0,0.0,0.0,0.0,0.0,0.0,0.0,0.0,0.0,0.0,0.0,0.0,0.0,0.0,0.0,0.0,0.0,0.0,0.0,0.0,0.0,0.0,0.0,0.0,0.0,0.0,0.0,0.0,0.0,0.0,0.0,0.0,0.0,0.0,0.0,0.0,0.0,0.0,0.0,0.0,0.0,0.0,0.0,0.0,0.0,0.0,0.0,0.0,0.0,0.0,0.0,0.0,0.0,0.0,0.0,0.0,0.0,0.0,0.0,0.0,0.0,0.0,0.0,0.0,0.0,0.0,0.0,0.0,0.0,0.0,0.0,0.0,0.0,0.0,0.0,0.0,0.4076,0.5628,0.645,0.7072,0.7543,0.7167,0.0,0.0,0.0,0.0,0.0,0.0,0.0,0.0,0.0,0.0,0.0,0.0,0.0,0.0,0.0,0.0,0.0,0.0,0.0,0.0,0.0,0.0,0.0,0.0,0.0,0.0,0.0,0.0,0.0,0.0,0.0,0.0,0.0,0.0,0.0,0.0,0.0,0.0,0.0,0.0,0.0,0.0,0.0,0.0,0.0,0.0,0.0,0.0,0.0,0.0,0.0,0.0,0.0,0.0,0.0,0.0,0.0,0.0,0.0,0.0,0.0,0.0,0.0,0.0,0.0,0.0,0.0,0.0,0.0,0.0,0.0,0.0,0.0,0.0,0.0,0.0,0.0,0.0,0.0,0.0,0.0,0.0,0.0,0.0,0.0,0.0,0.0,0.0,0.0,0.0,0.0,0.0,0.0,0.0,0.0,0.0,0.0,0.0,0.0,0.0,0.0,0.0,0.0,0.0,0.0,0.0,0.0,0.0,0.0,0.2612,0.4027,0.4937,0.5685,0.6282,0.6386,0.0,0.0,0.0,0.0,0.0,0.0,0.0,0.0,0.0,0.0,0.0,0.0,0.0,0.0,0.0,0.0,0.0,0.0,0.0,0.0,0.0,0.0,0.0,0.0,0.0,0.0,0.0,0.0,0.0,0.0,0.0,0.0,0.0,0.0,0.0,0.0,0.0,0.0,0.0,0.0,0.0,0.0,0.0,0.0,0.0,0.0,0.0,0.0,0.0,0.0,0.0,0.0,0.0,0.0,0.0,0.0,0.0,0.0,0.0,0.0,0.0,0.0,0.0,0.0,0.0,0.0,0.0,0.0,0.0,0.0,0.0,0.0,0.0,0.0,0.0,0.0,0.0,0.0,0.0,0.0,0.0,0.0,0.0,0.0,0.0,0.0,0.0,0.0,0.0,0.0,0.0,0.0,0.0,0.0,0.0,0.0,0.0,0.0,0.0,0.0,0.0,0.0,0.0,0.0,0.0,0.0,0.0,0.0,-0.0328,0.1235,0.2585,0.373,0.4672,0.5385,0.6108,0.0,0.0,0.0,0.0,0.0,0.0,0.0,0.0,0.0,0.0,0.0,0.0,0.0,0.0,0.0,0.0,0.0,0.0,0.0,0.0,0.0,0.0,0.0,0.0,0.0,0.0,0.0,0.0,0.0,0.0,0.0,0.0,0.0,0.0,0.0,0.0,0.0,0.0,0.0,0.0,0.0,0.0,0.0,0.0,0.0,0.0,0.0,0.0,0.0,0.0,0.0,0.0,0.0,0.0,0.0,0.0,0.0,0.0,0.0,0.0,0.0,0.0,0.0,0.0,0.0,0.0,0.0,0.0,0.0,0.0,0.0,0.0,0.0,0.0,0.0,0.0,0.0,0.0,0.0,0.0,0.0,0.0,0.0,0.0,0.0,0.0,0.0,0.0,0.0,0.0,0.0,0.0,0.0,0.0,0.0,0.0,0.0,0.0,0.0,0.0,0.0,0.0,0.0,0.0,0.0,0.0,0.0,-0.2973,-0.0747,0.1082,0.226,0.3632,0.497,0.6178,0.6548,0.0,0.0,0.0,0.0,0.0,0.0,0.0,0.0,0.0,0.0,0.0,0.0,0.0,0.0,0.0,0.0,0.0,0.0,0.0,0.0,0.0,0.0,0.0,0.0,0.0,0.0,0.0,0.0,0.0,0.0,0.0,0.0,0.0,0.0,0.0,0.0,0.0,0.0,0.0,0.0,0.0,0.0,0.0,0.0,0.0,0.0,0.0,0.0,0.0,0.0,0.0,0.0,0.0,0.0,0.0,0.0,0.0,0.0,0.0,0.0,0.0,0.0,0.0,0.0,0.0,0.0,0.0,0.0,0.0,0.0,0.0,0.0,0.0,0.0,0.0,0.0,0.0,0.0,0.0,0.0,0.0,0.0,0.0,0.0,0.0,0.0,0.0,0.0,0.0,0.0,0.0,0.0,0.0,0.0,0.0,0.0,0.0,0.0,0.0,0.0,0.0,0.0,0.0,0.0,0.0,0.0,-0.2645,-0.2215,-0.041,0.1474,0.3217,0.3971,0.4969,0.6246,0.6848,0.0,0.0,0.0,0.0,0.0,0.0,0.0,0.0,0.0,0.0,0.0,0.0,0.0,0.0,0.0,0.0,0.0,0.0,0.0,0.0,0.0,0.0,0.0,0.0,0.0,0.0,0.0,0.0,0.0,0.0,0.0,0.0,0.0,0.0,0.0,0.0,0.0,0.0,0.0,0.0,0.0,0.0,0.0,0.0,0.0,0.0,0.0,0.0,0.0,0.0,0.0,0.0,0.0,0.0,0.0,0.0,0.0,0.0,0.0,0.0,0.0,0.0,0.0,0.0,0.0,0.0,0.0,0.0,0.0,0.0,0.0,0.0,0.0,0.0,0.0,0.0,0.0,0.0,0.0,0.0,0.0,0.0,0.0,0.0,0.0,0.0,0.0,0.0,0.0,0.0,0.0,0.0,0.0,0.0,0.0,0.0,0.0,0.0,0.0,0.0,0.0,0.0,0.0,0.0,0.0,0.0,-0.0983,0.1902,0.1482,0.2798,0.6107,0.6138,0.6592,0.7864,0.0,0.0,0.0,0.0,0.0,0.0,0.0,0.0,0.0,0.0,0.0,0.0,0.0,0.0,0.0,0.0,0.0,0.0,0.0,0.0,0.0,0.0,0.0,0.0,0.0,0.0,0.0,0.0,0.0,0.0,0.0,0.0,0.0,0.0,0.0,0.0,0.0,0.0,0.0,0.0,0.0,0.0,0.0,0.0,0.0,0.0,0.0,0.0,0.0,0.0,0.0,0.0,0.0,0.0,0.0,0.0,0.0,0.0,0.0,0.0,0.0,0.0,0.0,0.0,0.0,0.0,0.0,0.0,0.0,0.0,0.0,0.0,0.0,0.0,0.0,0.0,0.0,0.0,0.0,0.0,0.0,0.0,0.0,0.0,0.0,0.0,0.0,0.0,0.0,0.0,0.0,0.0,0.0,0.0,0.0,0.0,0.0,0.0,0.0,0.0,0.0,0.0,0.0,0.0,0.0,0.0,0.0,0.2801,1.1682,0.598,0.572,1.2832,1.1776,1.1734,1.2981,0.0,0.0,0.0,0.0,0.0,0.0,0.0,0.0,0.0,0.0,0.0,0.0,0.0,0.0,0.0,0.0,0.0,0.0,0.0,0.0,0.0,0.0,0.0,0.0,0.0,0.0,0.0,0.0,0.0,0.0,0.0,0.0,0.0,0.0,0.0,0.0,0.0,0.0,0.0,0.0,0.0,0.0,0.0,0.0,0.0,0.0,0.0,0.0,0.0,0.0,0.0,0.0,0.0,0.0,0.0,0.0,0.0,0.0,0.0,0.0,0.0,0.0,0.0,0.0,0.0,0.0,0.0,0.0,0.0,0.0,0.0,0.0,0.0,0.0,0.0,0.0,0.0,0.0,0.0,0.0,0.0,0.0,0.0,0.0,0.0,0.0,0.0,0.0,0.0,0.0,0.0,0.0,0.0,0.0,0.0,0.0,0.0,0.0,0.0,0.0,0.0,0.0,0.0,0.0,0.0,0.0,-0.1235,0.1705,0.6559,0.663,0.8426,1.2301,1.3266,1.3873,1.4026,0.0,0.0,0.0,0.0,0.0,0.0,0.0,0.0,0.0,0.0,0.0,0.0,0.0,0.0,0.0,0.0,0.0,0.0,0.0,0.0,0.0,0.0,0.0,0.0,0.0,0.0,0.0,0.0,0.0,0.0,0.0,0.0,0.0,0.0,0.0,0.0,0.0,0.0,0.0,0.0,0.0,0.0,0.0,0.0,0.0,0.0,0.0,0.0,0.0,0.0,0.0,0.0,0.0,0.0,0.0,0.0,0.0,0.0,0.0,0.0,0.0,0.0,0.0,0.0,0.0,0.0,0.0,0.0,0.0,0.0,0.0,0.0,0.0,0.0,0.0,0.0,0.0,0.0,0.0,0.0,0.0,0.0,0.0,0.0,0.0,0.0,0.0,0.0,0.0,0.0,0.0,0.0,0.0,0.0,0.0,0.0,0.0,0.0,0.0,0.0,0.0,0.0,0.0,0.0,0.0,-0.1796,-0.0555,0.175,0.5218,0.8298,1.1101,1.3738,1.5748,1.6161,1.4797,0.0,0.0,0.0,0.0,0.0,0.0,0.0,0.0,0.0,0.0,0.0,0.0,0.0,0.0,0.0,0.0,0.0,0.0,0.0,0.0,0.0,0.0,0.0,0.0,0.0,0.0,0.0,0.0,0.0,0.0,0.0,0.0,0.0,0.0,0.0,0.0,0.0,0.0,0.0,0.0,0.0,0.0,0.0,0.0,0.0,0.0,0.0,0.0,0.0,0.0,0.0,0.0,0.0,0.0,0.0,0.0,0.0,0.0,0.0,0.0,0.0,0.0,0.0,0.0,0.0,0.0,0.0,0.0,0.0,0.0,0.0,0.0,0.0,0.0,0.0,0.0,0.0,0.0,0.0,0.0,0.0,0.0,0.0,0.0,0.0,0.0,0.0,0.0,0.0,0.0,0.0,0.0,0.0,0.0,0.0,0.0,0.0,0.0,0.0,0.0,0.0,0.0,0.0,0.0,0.0,0.0,-0.0099,0.5043,1.3617,1.2075,1.3876,1.9825,2.0705,1.9437,1.624,0.0,0.0,0.0,0.0,0.0,0.0,0.0,0.0,0.0,0.0,0.0,0.0,0.0,0.0,0.0,0.0,0.0,0.0,0.0,0.0,0.0,0.0,0.0,0.0,0.0,0.0,0.0,0.0,0.0,0.0,0.0,0.0,0.0,0.0,0.0,0.0,0.0,0.0,0.0,0.0,0.0,0.0,0.0,0.0,0.0,0.0,0.0,0.0,0.0,0.0,0.0,0.0,0.0,0.0,0.0,0.0,0.0,0.0,0.0,0.0,0.0,0.0,0.0,0.0,0.0,0.0,0.0,0.0,0.0,0.0,0.0,0.0,0.0,0.0,0.0,0.0,0.0,0.0,0.0,0.0,0.0,0.0,0.0,0.0,0.0,0.0,0.0,0.0,0.0,0.0,0.0,0.0,0.0,0.0,0.0,0.0,0.0,0.0,0.0,0.0,0.0,0.0,0.0,0.0,0.0,0.0,0.0744,0.3919,0.8867,1.2502,1.7591,2.3969,2.1326,1.9373,1.8772,0.0,0.0,0.0,0.0,0.0,0.0,0.0,0.0,0.0,0.0,0.0,0.0,0.0,0.0,0.0,0.0,0.0,0.0,0.0,0.0,0.0,0.0,0.0,0.0,0.0,0.0,0.0,0.0,0.0,0.0,0.0,0.0,0.0,0.0,0.0,0.0,0.0,0.0,0.0,0.0,0.0,0.0,0.0,0.0,0.0,0.0,0.0,0.0,0.0,0.0,0.0,0.0,0.0,0.0,0.0,0.0,0.0,0.0,0.0,0.0,0.0,0.0,0.0,0.0,0.0,0.0,0.0,0.0,0.0,0.0,0.0,0.0,0.0,0.0,0.0,0.0,0.0,0.0,0.0,0.0,0.0,0.0,0.0,0.0,0.0,0.0,0.0,0.0,0.0,0.0,0.0,0.0,0.0,0.0,0.0,0.0,0.0,0.0,0.0,0.0,0.0,0.0,0.0,0.0,0.0,0.0,0.1681,0.4913,0.9889,1.6343,2.157,2.5066,2.1801,1.923,0.0,0.0,0.0,0.0,0.0,0.0,0.0,0.0,0.0,0.0,0.0,0.0,0.0,0.0,0.0,0.0,0.0,0.0,0.0,0.0,0.0,0.0,0.0,0.0,0.0,0.0,0.0,0.0,0.0,0.0,0.0,0.0,0.0,0.0,0.0,0.0,0.0,0.0,0.0,0.0,0.0,0.0,0.0,0.0,0.0,0.0,0.0,0.0,0.0,0.0,0.0,0.0,0.0,0.0,0.0,0.0,0.0,0.0,0.0,0.0,0.0,0.0,0.0,0.0,0.0,0.0,0.0,0.0,0.0,0.0,0.0,0.0,0.0,0.0,0.0,0.0,0.0,0.0,0.0,0.0,0.0,0.0,0.0,0.0,0.0,0.0,0.0,0.0,0.0,0.0,0.0,0.0,0.0,0.0,0.0,0.0,0.0,0.0,0.0,0.0,0.0,0.0,0.0,0.0,0.0,0.0,0.0,0.2894,0.8525,1.8288,2.3661,2.5171,2.3172,2.2293,1.9093,0.0,0.0,0.0,0.0,0.0,0.0,0.0,0.0,0.0,0.0,0.0,0.0,0.0,0.0,0.0,0.0,0.0,0.0,0.0,0.0,0.0,0.0,0.0,0.0,0.0,0.0,0.0,0.0,0.0,0.0,0.0,0.0,0.0,0.0,0.0,0.0,0.0,0.0,0.0,0.0,0.0,0.0,0.0,0.0,0.0,0.0,0.0,0.0,0.0,0.0,0.0,0.0,0.0,0.0,0.0,0.0,0.0,0.0,0.0,0.0,0.0,0.0,0.0,0.0,0.0,0.0,0.0,0.0,0.0,0.0,0.0,0.0,0.0,0.0,0.0,0.0,0.0,0.0,0.0,0.0,0.0,0.0,0.0,0.0,0.0,0.0,0.0,0.0,0.0,0.0,0.0,0.0,0.0,0.0,0.0,0.0,0.0,0.0,0.0,0.0,0.0,0.0,0.0,0.0,0.0,0.0,0.0,1.1676,1.4978,1.7433,2.1031,2.2885,2.2834,2.1302,1.8989,1.5984,0.0,0.0,0.0,0.0,0.0,0.0,0.0,0.0,0.0,0.0,0.0,0.0,0.0,0.0,0.0,0.0,0.0,0.0,0.0,0.0,0.0,0.0,0.0,0.0,0.0,0.0,0.0,0.0,0.0,0.0,0.0,0.0,0.0,0.0,0.0,0.0,0.0,0.0,0.0,0.0,0.0,0.0,0.0,0.0,0.0,0.0,0.0,0.0,0.0,0.0,0.0,0.0,0.0,0.0,0.0,0.0,0.0,0.0,0.0,0.0,0.0,0.0,0.0,0.0,0.0,0.0,0.0,0.0,0.0,0.0,0.0,0.0,0.0,0.0,0.0,0.0,0.0,0.0,0.0,0.0,0.0,0.0,0.0,0.0,0.0,0.0,0.0,0.0,0.0,0.0,0.0,0.0,0.0,0.0,0.0,0.0,0.0,0.0,0.0,0.0,0.0,0.0,0.0,0.0,0.0,0.0,1.5518,1.7468,1.6265,2.0303,2.2406,2.2152,2.0657,1.8721,1.6265,0.0,0.0,0.0,0.0,0.0,0.0,0.0,0.0,0.0,0.0,0.0,0.0,0.0,0.0,0.0,0.0,0.0,0.0,0.0,0.0,0.0,0.0,0.0,0.0,0.0,0.0,0.0,0.0,0.0,0.0,0.0,0.0,0.0,0.0,0.0,0.0,0.0,0.0,0.0,0.0,0.0,0.0,0.0,0.0,0.0,0.0,0.0,0.0,0.0,0.0,0.0,0.0,0.0,0.0,0.0,0.0,0.0,0.0,0.0,0.0,0.0,0.0,0.0,0.0,0.0,0.0,0.0,0.0,0.0,0.0,0.0,0.0,0.0,0.0,0.0,0.0,0.0,0.0,0.0,0.0,0.0,0.0,0.0,0.0,0.0,0.0,0.0,0.0,0.0,0.0,0.0,0.0,0.0,0.0,0.0,0.0,0.0,0.0,0.0,0.0,0.0,0.0,0.0,0.0,0.0,0.0,0.0,1.6249,1.4386,2.0413,2.2317,2.0219,1.9623,1.7842,1.4604,0.0,0.0,0.0,0.0,0.0,0.0,0.0,0.0,0.0,0.0,0.0,0.0,0.0,0.0,0.0,0.0,0.0,0.0,0.0,0.0,0.0,0.0,0.0,0.0,0.0,0.0,0.0,0.0,0.0,0.0,0.0,0.0,0.0,0.0,0.0,0.0,0.0,0.0,0.0,0.0,0.0,0.0,0.0,0.0,0.0,0.0,0.0,0.0,0.0,0.0,0.0,0.0,0.0,0.0,0.0,0.0,0.0,0.0,0.0,0.0,0.0,0.0,0.0,0.0,0.0,0.0,0.0,0.0,0.0,0.0,0.0,0.0,0.0,0.0,0.0,0.0,0.0,0.0,0.0,0.0,0.0,0.0,0.0,0.0,0.0,0.0,0.0,0.0,0.0,0.0,0.0,0.0,0.0,0.0,0.0,0.0,0.0,0.0,0.0,0.0,0.0,0.0,0.0,0.0,0.0,0.0,1.2696,1.2649,1.163,0.9193,0.8926,1.1141,1.2207,1.2121,1.0865,0.0,0.0,0.0,0.0,0.0,0.0,0.0,0.0,0.0,0.0,0.0,0.0,0.0,0.0,0.0,0.0,0.0,0.0,0.0,0.0,0.0,0.0,0.0,0.0,0.0,0.0,0.0,0.0,0.0,0.0,0.0,0.0,0.0,0.0,0.0,0.0,0.0,0.0,0.0,0.0,0.0,0.0,0.0,0.0,0.0,0.0,0.0,0.0,0.0,0.0,0.0,0.0,0.0,0.0,0.0,0.0,0.0,0.0,0.0,0.0,0.0,0.0,0.0,0.0,0.0,0.0,0.0,0.0,0.0,0.0,0.0,0.0,0.0,0.0,0.0,0.0,0.0,0.0,0.0,0.0,0.0,0.0,0.0,0.0,0.0,0.0,0.0,0.0,0.0,0.0,0.0,0.0,0.0,0.0,0.0,0.0,0.0,0.0,0.0,0.0,0.0,0.0,0.0,0.0,0.0,0.0,1.1106,0.935,0.6309,0.0753,-0.1781,-0.0956,0.3497,0.6507,0.7671,0.0,0.0,0.0,0.0,0.0,0.0,0.0,0.0,0.0,0.0,0.0,0.0,0.0,0.0,0.0,0.0,0.0,0.0,0.0,0.0,0.0,0.0,0.0,0.0,0.0,0.0,0.0,0.0,0.0,0.0,0.0,0.0,0.0,0.0,0.0,0.0,0.0,0.0,0.0,0.0,0.0,0.0,0.0,0.0,0.0,0.0,0.0,0.0,0.3459,0.0,0.0,0.0,0.0,0.0,0.0,0.0,0.0,0.0,0.0,0.0,0.0,0.0,0.0,0.0,0.0,0.0,0.0,0.0,0.0,0.0,0.0,0.0,0.0,0.0,0.0,0.0,0.0,0.0,0.0,0.0,0.0,0.0,0.0,0.0,0.0,0.0,0.0,0.0,0.0,0.0,0.0,0.0,0.0,0.0,0.0,0.0,0.0,0.0,0.0,0.0,0.0,0.0,0.0,0.0,0.8179,0.9346,0.8629,0.5514,-0.0313,-0.5682,-1.0031,-1.3074,-0.535,0.0802,0.4465,0.0,0.0,0.0,0.0,0.0,0.0,0.0,0.0,0.0,0.0,0.0,0.0,0.0,0.0,0.0,0.0,0.0,0.0,0.0,0.0,0.0,0.0,0.0,0.0,0.0,0.0,0.0,0.0,0.0,0.0,0.0,0.0,0.0,0.0,0.0,0.0,0.0,0.0,0.0,0.0,0.0,0.0,0.0,0.0,0.0,0.0,0.0,0.0715,0.245,0.0,0.0,0.0,0.0,0.0,0.0,0.0,0.0,0.0,0.0,0.0,0.0,0.0,0.0,0.0,0.0,0.0,0.0,0.0,0.0,0.0,0.0,0.0,0.0,0.0,0.0,0.0,0.088,0.0,0.3418,0.0,0.0,0.0,0.0,0.0,0.0,0.0,0.0,0.0,0.0,0.0,0.0,0.0,0.0,0.0,0.0,0.0,0.0,0.0,0.0,0.0,0.0,0.0,0.0,0.3441,0.4353,0.4002,0.0335,-0.2819,-0.508,-1.0967,-1.4907,-1.6598,-1.0575,-0.5161,-0.0719,0.0,0.0,0.0,0.0,0.0,0.0,0.0,0.0,0.0,0.0,0.0,0.0,0.0,0.0,0.0,0.0,0.0,0.0,0.0,0.0,0.0,0.0,0.0,0.0,0.0,0.0,0.0,0.0,0.0,0.0,0.0,0.0,0.0,0.0,0.0,0.0,0.0,0.0,0.0,0.0,0.0,0.0,0.0,0.0,0.0,0.0,0.0,-0.577,0.0,0.0,0.0,0.0,0.0,0.0,0.0,0.0,0.0,0.0,0.0,0.0,0.0,0.0,0.0,0.0,0.0,0.0,0.0,0.0,0.0,0.0,0.0,0.0,0.0,0.0,0.0,0.0,0.0124,0.1053,0.2316,0.0,0.0,0.0,0.0,0.0,0.0,0.0,0.0,0.0,0.0,0.0,0.0,0.0,0.0,0.0,0.0,0.0,0.0,0.0,0.0,0.0,0.0,0.0,0.4544,0.489,0.4644,0.356,-0.1625,-0.5617,-0.8047,-1.3208,-1.6461,-1.7307,-1.2959,-0.8687,-0.4845,0.0,0.0,0.0,0.0,0.0,0.0,0.0,0.0,0.0,0.0,0.0,0.0,0.0,0.0,0.0,0.0,0.0,0.0,0.0,0.0,0.0,0.0,0.0,0.0,0.0,0.0,0.0,0.0,0.0,0.0,0.0,0.0,0.0,0.0,0.0,0.0,0.0,0.2471,0.059,0.0,0.0,0.0,0.0,0.0,0.0,0.0,0.0,-0.9491,-0.7304,0.0,0.0,0.0,0.0,0.0,0.0,0.0,0.0,0.0,0.0,0.0,0.0,0.0,0.0,0.0,0.0,0.0,0.0,0.0,0.0,0.0,0.0,0.0,0.0,0.0,0.0,0.0,-0.1177,-0.0377,0.0771,0.0,0.0,0.0,0.0,0.0,0.0,0.0,0.0,0.0,0.0,0.0,0.0,0.0,0.0,0.0,0.0,0.0,0.0,0.0,0.0,0.0,0.0,0.0,0.7603,0.6846,0.5409,0.3129,-0.1951,-0.6544,-1.03,-1.3914,-1.6193,-1.6921,-1.3596,-1.0305,-0.7417,0.0,0.0,0.0,0.0,0.0,0.0,0.0,0.0,0.0,0.0,0.0,0.0,0.0,0.0,0.0,0.0,0.0,0.0,0.0,0.0,0.0,0.0,0.0,0.0,0.0,0.0,0.0,0.0,0.0,0.0,0.0,0.0,0.0,0.0,0.0,0.0,0.0,0.1008,-0.2317,-0.7529,-1.1071,0.0,0.0,0.0,0.0,0.0,0.0,0.0,-1.4003,-1.3281,-0.6145,0.0,0.0,0.0,0.0,0.0,0.0,0.0,0.0,0.0,0.0,0.0,0.0,0.0,0.0,0.0,0.0,0.0,0.0,0.0,0.0,0.0,0.0,0.0,0.0,0.0,-0.3209,-0.2037,-0.0767,0.0,0.0,0.0,0.0,0.0,0.0,0.0,0.0,0.0,0.0,0.0,0.0,0.0,0.0,0.0,0.0,0.0,0.0,0.0,0.0,0.0,0.0,0.0,0.0,0.4295,0.1148,-0.4973,-0.6801,-0.9503,-1.3292,-1.4377,-1.5007,-1.5127,-1.2113,-0.9002,-0.6138,-0.4239,0.0,0.0,0.0,0.0,0.0,0.0,0.0,0.0,0.0,0.0,0.0,0.0,0.0,0.0,0.0,0.0,0.0,0.0,0.0,0.0,0.0,0.0,0.0,0.0,0.0,0.0,0.0,0.0,0.0,0.0,0.0,0.0,0.0,0.0,0.0,0.0,-0.0861,-0.8535,-1.2539,-1.5599,-1.7988,0.0,0.0,0.0,0.0,0.0,-1.4622,-1.606,-1.5497,-1.0532,-0.5459,0.0,0.0,0.0,0.0,0.0,0.0,0.0,0.0,0.0,0.0,0.0,0.0,0.0,0.0,0.0,0.0,0.0,0.0,0.0,0.0,0.0,0.0,0.0,0.0,-0.5279,-0.4166,-0.2885,-0.1558,-0.0317,0.0,0.0,0.0,0.0,0.078,0.0,0.0,0.0,0.0,0.0,0.0,0.0,0.0,0.0,0.0,0.0,0.0,0.0,0.0,0.0,0.0,0.0,0.4651,0.0687,-0.4338,-0.7759,-1.0731,-1.328,-1.3342,-1.3227,-1.2958,-0.865,-0.5321,-0.3345,0.0,0.0,0.0,0.0,0.0,0.0,0.0,0.0,0.0,0.0,0.0,0.0,0.0,0.0,0.0,0.0,0.0,0.0,0.0,0.0,0.0,0.0,0.0,0.0,0.0,0.0,0.0,0.0,0.0,0.0,0.0,0.0,0.0,0.0,0.0,0.0,0.0,0.0,-1.1688,-1.4569,-1.7509,-2.2027,-2.0421,-1.7322,-1.3469,-1.5208,-1.7275,-1.7892,-1.7068,-1.5416,-1.2598,0.0,0.0,0.0,0.0,0.0,0.0,0.0,0.0,0.0,0.0,0.0,0.0,0.0,0.0,0.0,0.0,0.0,0.0,0.0,0.0,0.0,0.0,0.0,0.0,0.0,0.0,-0.6656,-0.5424,-0.4066,-0.2802,-0.1685,0.0,0.0,0.0,-0.0823,-0.1226,0.0,0.0,0.0,0.0,0.0,0.0,0.0,0.0,0.0,0.0,0.0,0.0,0.0,0.0,0.0,0.0,0.5689,0.1289,-0.2962,-0.743,-1.066,-1.2418,-1.1914,-1.1314,-1.0654,-0.5353,-0.1705,-0.0124,0.0,0.0,0.0,0.0,0.0,0.0,0.0,0.0,0.0,0.0,0.0,0.0,0.0,0.0,0.0,0.0,0.0,0.0,0.0,0.0,0.0,0.0,0.0,0.0,0.0,0.0,0.0,0.0,0.0,0.0,0.0,0.0,0.0,0.0,0.0,0.0,0.0,0.0,0.0,-1.527,-1.8569,-2.4024,-2.2868,-2.0276,-1.7246,-1.791,-1.9288,-2.0327,-1.8176,-1.5556,0.0,0.0,0.0,0.0,0.0,0.0,0.0,0.0,0.0,0.0,0.0,0.0,0.0,0.0,0.0,0.0,0.0,0.0,0.0,0.0,0.0,0.0,-0.9626,-0.9507,0.0,0.0,-1.0253,-0.9557,-0.8513,-0.7299,-0.5906,-0.4414,-0.3439,-0.2851,0.0,-0.2603,-0.2508,-0.2272,0.0,0.0,0.0,0.0,0.0,0.0,0.0,0.0,0.0,0.0,0.0,0.0,0.0,0.0,0.0,0.0,0.167,-0.5688,-0.6748,-0.8757,-1.185,-1.0879,-0.9649,-0.8456,-0.4038,-0.022,0.2789,0.0,0.0,0.0,0.0,0.0,0.0,0.0,0.0,0.0,0.0,0.0,0.0,0.0,0.0,0.0,0.0,0.0,0.0,0.0,0.0,0.0,0.0,0.0,0.0,0.0,1.5693,0.0,0.0,0.0,0.0,0.0,0.0,0.0,0.0,0.0,0.0,0.0,0.0,0.0,0.0,-1.9596,-2.3438,-2.2678,-2.0535,-1.7256,-1.7957,-1.9333,-2.036,-2.0165,-1.8026,0.0,0.0,0.0,0.0,0.0,0.0,0.0,0.0,0.0,0.0,0.0,0.0,0.0,0.0,0.0,0.0,0.0,0.0,0.0,0.0,0.0,0.0,-1.0887,-1.208,-1.2658,-1.2801,-1.3007,-1.2665,-1.1783,-1.0195,-0.8648,-0.7245,-0.669,-0.5967,-0.5317,-0.5534,-0.486,-0.3356,0.0,0.0,0.0,0.0,0.0,0.0,0.0,0.0,0.0,0.0,0.0,0.0,1.4912,1.1948,0.6982,0.3936,-0.0525,-0.6317,-0.7176,-0.8244,-0.9677,-0.7937,-0.6123,-0.4393,0.0265,0.3953,0.0,0.0,0.0,0.0,0.0,0.0,0.0,0.0,0.0,0.0,0.0,0.0,0.0,0.0,0.0,0.0,0.0,0.0,0.0,0.0,0.0,0.0,0.0,0.0,0.0,1.5568,1.5235,1.4315,0.0,0.0,0.0,0.0,0.0,0.0,0.0,0.0,0.0,0.0,0.0,0.0,0.0,-1.6485,-2.1362,-1.9755,-1.7716,-1.6765,-1.7122,-1.7882,-1.8871,-1.9301,-1.7536,0.0,0.0,0.0,0.0,0.0,0.0,0.0,0.0,0.0,0.0,0.0,0.0,0.0,0.0,0.0,0.0,0.0,0.0,-0.893,-1.0086,-1.0666,-1.1584,-1.2732,-1.4652,-1.5544,-1.5594,-1.6094,-1.5912,-1.5128,-1.3284,-1.1697,-1.0338,-0.9861,-0.9107,-0.8229,-0.8499,-0.7425,-0.5088,-0.2207,0.0,0.0,0.0,0.0,0.0,0.0,0.0,0.0,0.0,0.0,1.4595,1.3518,1.0029,0.4347,0.1071,-0.2267,-0.6031,-0.6672,-0.6757,-0.6264,-0.4327,-0.2226,0.0071,0.4474,0.7843,0.0,0.0,0.0,0.0,0.0,0.0,0.0,0.0,0.0,0.0,0.0,0.0,0.0,0.0,0.0,0.0,0.0,0.0,0.0,0.0,0.0,0.0,0.0,1.4038,1.5209,1.5064,1.4654,1.4239,1.3625,0.0,1.2494,0.0,0.0,0.0,0.0,0.0,0.0,0.0,0.0,0.0,0.0,-1.2417,-1.6458,-1.4923,-1.369,-1.4506,-1.4014,-1.3785,-1.4518,-1.542,-1.4169,0.0,0.0,0.0,0.0,0.0,0.0,0.0,0.0,0.0,0.0,0.0,0.0,0.0,0.0,0.0,0.0,0.0,0.0,-1.1158,-1.1057,-1.2724,-1.4467,-1.6049,-1.7029,-1.8185,-1.9419,-1.976,-1.9271,-1.8205,-1.6839,-1.5313,-1.3639,-1.282,-1.1987,-1.1273,-1.116,-0.9979,-0.7852,-0.4762,0.0,0.0,0.0,0.0,0.0,0.0,0.0,0.0,0.0,0.0,1.0423,1.0037,0.6138,-0.1324,-0.1215,-0.234,-0.4698,-0.4199,-0.3083,-0.1451,-0.0327,0.1576,0.4337,0.7488,1.025,0.0,0.0,0.0,0.0,0.0,0.0,0.0,0.0,0.0,0.0,0.0,0.0,0.0,0.0,0.0,0.0,0.0,0.0,0.0,0.0,0.0,0.0,0.0,0.0,1.4401,1.4524,1.4392,1.4144,1.4024,1.3588,1.2838,0.0,0.0,0.0,0.0,0.0,0.0,0.0,0.0,0.0,0.0,-0.808,-0.7125,-0.7701,-0.8573,-0.9289,-0.7317,-0.5699,-0.576,-0.7308,-0.6949,-0.254,0.1092,0.407,0.0,0.0,0.0,0.0,0.0,0.0,0.0,0.0,0.0,0.0,0.0,0.0,0.0,0.0,0.0,-1.2994,-1.2555,-1.4449,-1.6298,-1.8082,-1.947,-2.07,-2.1761,-2.2709,-2.2635,-2.1639,-2.0306,-1.8778,-1.7272,-1.6621,-1.5467,-1.3916,-1.3686,-1.1978,-0.8644,-0.328,0.0,0.0,0.0,0.0,0.0,0.0,0.0,0.0,0.0,0.0,0.5496,0.4886,0.3038,0.0301,-0.0221,-0.1178,-0.2738,-0.0224,0.1459,0.2191,0.401,0.5937,0.7903,1.0101,1.2429,1.4912,0.0,0.0,0.0,0.0,0.0,0.0,0.0,0.0,0.0,0.0,0.0,0.0,0.0,0.0,0.0,0.0,0.0,0.0,0.0,0.0,0.0,0.0,0.0,0.0,1.3194,1.3071,1.3338,1.2887,1.2494,1.2211,1.1045,0.0,0.0,0.0,0.0,0.0,0.0,0.0,-0.2371,0.0,-0.4202,-0.6214,-0.5685,-0.4318,-0.2141,-0.1548,-0.1164,-0.0495,-0.3194,-0.4301,-0.1152,-0.1218,0.01,0.5613,0.0,0.0,0.0,0.0,0.0,0.0,0.0,0.0,0.0,0.0,0.0,0.0,0.0,0.0,-1.5159,-1.4804,-1.659,-1.8452,-2.0257,-2.2037,-2.3254,-2.4139,-2.5609,-2.5815,-2.4924,-2.3791,-2.2224,-2.0535,-1.9898,-1.8302,-1.6105,-1.5477,-1.2968,-0.8572,-0.3024,0.1173,0.0,0.0,0.0,0.0,0.0,0.0,0.0,0.0,0.0,-0.0796,-0.0263,-0.0399,-0.1281,-0.0131,0.0491,0.0471,0.3929,0.6103,0.6835,0.8763,1.0593,1.2236,1.3646,1.547,1.7673,0.0,0.0,0.0,0.0,1.2482,0.0,0.0,0.0,0.0,0.0,0.0,0.0,0.0,0.0,0.0,0.0,0.0,0.0,0.0,0.0,0.0,0.0,0.0,0.0,0.0,1.206,1.243,1.2118,1.1763,1.1495,1.0322,0.856,0.6292,0.0,0.0,0.0,0.0,0.0,0.0,0.0465,-0.0435,-0.3672,-0.2507,-0.0108,0.2893,0.3128,0.3531,0.5143,0.3006,0.151,0.2652,0.1372,0.1992,0.7294,0.9675,0.991,0.6932,0.5388,0.4793,0.5499,0.0,0.0,0.0,0.0,0.0,0.0,0.0,0.0,-1.7874,-1.7534,-1.9331,-2.1119,-2.2863,-2.471,-2.6067,-2.7104,-2.867,-2.8881,-2.7905,-2.7372,-2.5646,-2.3118,-2.2171,-2.0247,-1.7745,-1.6477,-1.2938,-0.7867,-0.496,-0.2757,-0.1126,-0.0406,0.0269,0.0437,0.0428,-0.0033,-0.0842,-0.2024,-0.4835,-0.8216,-0.5103,-0.4522,-0.7052,-0.1314,0.2691,0.5167,0.8199,1.0795,1.2942,1.4052,1.5541,1.7602,1.8486,1.9578,2.1025,0.0,0.0,0.0,0.0,1.508,0.0,0.0,0.0,0.0,0.0,0.0,0.0,0.0,0.0,0.0,0.0,0.0,0.0,0.0,0.0,0.0,0.0,0.0,0.0,0.0,1.1705,1.1561,1.1936,1.1776,1.0839,0.9557,0.8795,0.0,0.0,0.0,0.0,0.0,0.3944,0.4317,0.4135,0.3407,0.193,0.2874,0.3923,0.4728,0.6637,0.8971,1.1768,1.226,1.1987,0.9992,1.096,0.0,0.0,0.0,0.0,0.0,0.0,0.0,0.0,0.0,0.0,0.0,0.0,0.0,0.0,0.0,0.0,-2.039,-1.9506,-2.1762,-2.3762,-2.5503,-2.7917,-3.0021,-3.1926,-3.3773,-3.3732,-3.231,-3.149,-2.9299,-2.6201,-2.4514,-2.193,-1.8431,-1.4186,-1.0868,-0.8319,-0.7296,-0.671,-0.6438,-0.7787,-0.914,-1.0484,-1.1339,-0.9712,-0.6327,-0.9047,-1.0694,-1.0525,-0.7233,-0.4431,-0.2036,0.2322,0.6684,1.0954,1.3226,1.5381,1.7608,1.8327,1.9246,2.0415,2.1369,2.2537,2.3752,2.382,0.0,0.0,2.0277,1.8286,0.0,0.0,0.0,0.0,0.0,0.0,0.0,0.0,0.0,0.0,0.0,0.0,0.0,0.0,0.0,0.0,0.0,0.0,0.0,0.0,0.9566,1.0933,1.16,1.155,1.0545,0.9843,0.9666,1.0138,0.9433,0.7891,0.5585,0.661,0.7713,0.8214,0.8216,0.7621,0.6057,0.5981,0.6773,0.8706,1.185,1.491,1.7387,1.5352,1.3086,1.1971,1.4324,1.6104,1.4981,1.1657,0.9863,1.2209,1.1908,1.1562,1.2194,1.068,0.9297,0.9443,0.987,1.0051,0.9568,0.9852,1.0352,-2.2985,-2.2528,-2.4802,-2.6795,-2.8511,-3.0934,-3.3241,-3.5403,-3.6931,-3.6979,-3.5806,-3.4603,-3.2343,-2.9291,-2.6513,-2.2407,-1.7263,-1.2899,-1.0221,-0.9316,-0.9279,-0.9882,-1.101,-1.3016,-1.5112,-1.7294,-1.8051,-1.6249,-1.2653,-1.442,-1.4336,-1.2109,-0.8505,-0.4284,0.0503,0.461,0.9046,1.3744,1.65,1.8742,2.0605,2.2108,2.3212,2.3886,2.5096,2.5977,2.6489,2.6618,2.6234,0.0,2.3403,0.0,0.0,0.0,0.0,0.0,0.0,0.0,0.0,0.0,0.0,0.0,0.0,0.0,0.0,0.0,0.0,0.0,0.0,0.0,0.0,0.7624,0.8148,0.9451,1.0243,1.0232,0.9126,0.9662,1.0496,1.1491,1.1776,1.064,0.7395,0.9702,1.194,1.2801,1.2706,1.1942,1.0164,1.0425,1.1942,1.5341,1.7576,1.9716,2.1924,1.93,1.6191,1.3836,1.7185,1.9593,1.7779,1.4947,1.3315,1.4472,1.5396,1.5731,1.4871,1.3144,1.1628,1.0906,1.1209,1.1527,1.143,1.2063,1.3076,-2.5742,-2.6339,-2.8285,-3.0204,-3.2002,-3.3832,-3.5672,-3.7457,-3.8224,-3.8584,-3.8356,-3.6669,-3.4591,-3.2178,-2.7782,-2.1697,-1.4409,-1.246,-1.128,-1.0738,-1.0966,-1.2386,-1.4669,-1.5886,-1.7719,-2.0063,-1.939,-1.9094,-1.8959,-1.7584,-1.5662,-1.3067,-0.8813,-0.4556,-0.0204,0.5039,0.9715,1.3641,1.7861,2.0728,2.2108,2.5314,2.739,2.8177,2.959,2.9984,2.9333,2.9474,2.8704,2.6966,2.6528,0.0,0.0,0.0,0.0,0.0,0.0,0.0,0.0,0.0,0.0,0.0,0.0,0.0,0.0,0.0,0.0,0.0,0.0,0.0,0.59,0.6912,0.7523,0.7214,0.8001,0.8102,0.7124,0.915,1.1354,1.3021,1.3578,1.2814,1.0276,1.342,1.6529,1.8075,1.7613,1.6394,1.4413,1.6088,1.9255,2.3822,2.3486,2.3342,2.5325,2.4138,2.1312,1.6664,2.0264,2.2782,2.0089,1.9457,1.852,1.632,1.7559,1.8019,1.5208,1.4944,1.4501,1.2888,1.2738,1.3097,1.3935,1.4921,1.6334,-2.9586,-2.9541,-3.0956,-3.2899,-3.5249,-3.7161,-3.9209,-4.1338,-4.1824,-4.1349,-3.9992,-3.7513,-3.4163,-3.0175,-2.6107,-2.0672,-1.4504,-1.2722,-1.2075,-1.2346,-1.3165,-1.4734,-1.6898,-1.8276,-1.9345,-2.0029,-1.9417,-1.7913,-1.5597,-1.3347,-1.1939,-1.1241,-0.6308,-0.2264,0.0967,0.568,0.9789,1.3252,1.7818,2.1305,2.3606,2.7073,3.0028,3.2338,3.3451,3.3592,3.2834,3.2764,3.1976,3.0323,2.8945,0.0,2.558,0.0,0.0,0.0,0.0,1.365,1.043,1.0513,0.0,0.0,0.0,0.9066,0.0,0.0,0.0,0.0,0.6236,0.5674,0.5057,0.5912,0.6382,0.6109,0.6383,0.6932,0.7692,1.1277,1.4222,1.5506,1.6114,1.665,1.7279,1.8627,2.0603,2.3434,2.2794,2.137,1.9471,2.0924,2.274,2.4331,2.5235,2.6167,2.722,2.5429,2.4081,2.4492,2.469,2.417,2.2601,2.2555,2.2082,2.0029,2.0543,2.0465,1.8004,1.6803,1.6023,1.5151,1.5027,1.5455,1.6429,1.8231,2.0575,-3.2429,-3.3004,-3.4136,-3.5914,-3.8201,-4.0101,-4.1981,-4.3659,-4.3558,-4.2685,-4.1054,-3.7487,-3.3566,-2.9248,-2.3519,-1.8459,-1.4246,-1.3395,-1.334,-1.4074,-1.5391,-1.7363,-1.9784,-2.059,-2.1057,-2.1119,-1.9221,-1.6664,-1.3512,-1.0344,-0.861,-0.8032,-0.4674,-0.1668,0.0946,0.4002,0.749,1.1427,1.6498,2.0847,2.4575,2.974,3.3595,3.5971,3.6523,3.637,3.5493,3.5052,3.4262,3.3072,3.202,3.0847,0.0,2.6901,2.4966,2.3904,2.2136,1.9051,1.4679,1.263,0.0,0.0,0.9583,0.8987,0.8656,0.0,0.0,0.6057,0.6675,0.7238,0.7383,0.7893,0.751,0.5697,0.6483,0.8143,1.0737,1.2993,1.5432,1.8141,1.8485,1.9246,2.1176,2.2731,2.4917,2.8276,2.7624,2.6526,2.5875,2.6078,2.6442,2.6783,2.7738,2.8348,2.8036,2.6799,2.6282,2.7461,2.5774,2.4328,2.4144,2.419,2.3695,2.2313,2.2154,2.185,1.9886,1.8757,1.7821,1.6935,1.6843,1.7622,1.9568,2.1701,2.4062,-3.4255,-3.6135,-3.7364,-3.8953,-4.0735,-4.2623,-4.3865,-4.4598,-4.3779,-4.2804,-4.1426,-3.6745,-3.2501,-2.8413,-2.0512,-1.5791,-1.385,-1.4186,-1.4811,-1.5799,-1.7407,-1.9782,-2.2713,-2.246,-2.2482,-2.2642,-1.8816,-1.5382,-1.2347,-0.8461,-0.5947,-0.4817,-0.4275,-0.2673,-0.0241,0.0325,0.2987,0.7869,1.3659,1.961,2.5653,3.3044,3.7585,3.8933,3.8916,3.8439,3.749,3.6692,3.6042,3.5546,3.5354,3.47,3.3359,3.1714,2.9458,2.6622,2.6904,2.4967,1.9908,1.5285,1.2218,1.1077,1.0214,0.9962,1.0243,0.9983,0.8529,0.5959,0.8062,1.0158,1.1759,1.1678,0.9999,0.6514,0.7784,1.0785,1.5122,1.4584,1.5732,2.0479,2.047,2.0765,2.2579,2.5527,2.8742,3.2157,3.1747,3.1619,3.2851,3.1273,3.0284,3.0689,3.054,2.983,2.8191,2.7791,2.7571,2.6914,2.4719,2.3711,2.4562,2.4625,2.3962,2.2923,2.2716,2.2405,2.1309,2.0671,1.9981,1.8735,1.8609,1.9774,2.3132,2.5046,2.7214,-3.3902,-3.5761,-3.7987,-4.0283,-4.2518,-4.3697,-4.4395,-4.456,-4.3144,-4.1169,-3.8598,-3.4274,-2.8429,-2.1653,-1.797,-1.5576,-1.4337,-1.4496,-1.5357,-1.6838,-1.8024,-1.9684,-2.1635,-2.1662,-2.096,-1.9598,-1.7052,-1.3889,-1.0338,-0.739,-0.6389,-0.727,-0.7824,-0.6918,-0.4745,-0.5403,-0.4273,-0.1148,0.6468,1.7103,3.0617,3.5614,3.8575,3.9716,4.0239,4.0202,3.9514,3.9514,3.9263,3.8842,3.7771,3.7112,3.7006,3.4296,3.2572,3.2226,2.9916,2.7237,2.4295,2.0396,1.6095,1.1248,1.177,1.4587,1.99,1.7288,1.4296,1.1675,1.0948,1.1941,1.5137,1.2764,1.0704,0.9898,0.9253,1.1283,1.7266,1.8156,1.8592,1.9258,2.0314,2.1416,2.2667,2.5508,2.8511,3.1427,3.2865,3.4241,3.6008,3.4813,3.3767,3.3911,3.1891,2.9704,2.8115,2.7593,2.7273,2.6874,2.5503,2.4705,2.4851,2.4785,2.4431,2.3668,2.3288,2.296,2.2656,2.2325,2.219,2.2345,2.2026,2.2603,2.5729,2.8357,3.093,-3.448,-3.6384,-3.8984,-4.1074,-4.2825,-4.4089,-4.4664,-4.4565,-4.2849,-4.0443,-3.7224,-3.0842,-2.4448,-1.8377,-1.6546,-1.5234,-1.43,-1.484,-1.5874,-1.7388,-1.881,-2.0111,-2.1311,-2.0625,-1.952,-1.8038,-1.5158,-1.2383,-0.9761,-0.9426,-0.9029,-0.8534,-1.1841,-1.2931,-1.1885,-1.2245,-1.0782,-0.7269,0.5189,1.8294,3.1614,3.6303,3.909,4.0263,4.0781,4.078,4.0197,4.0126,4.0062,3.9913,3.9318,3.9069,3.9242,3.7675,3.6132,3.4808,3.3346,3.0969,2.7401,2.6277,2.3082,1.6751,1.4552,1.5759,2.0844,1.9734,1.7136,1.372,1.3484,1.4901,1.8245,1.6324,1.462,1.4022,1.314,1.3627,1.6073,1.8116,1.9159,1.858,1.9636,2.1108,2.2916,2.557,2.8246,3.0605,3.2577,3.486,3.748,3.6944,3.5837,3.5308,3.1699,2.836,2.688,2.6496,2.621,2.5698,2.4875,2.4476,2.5133,2.4341,2.3614,2.3629,2.3156,2.2915,2.3242,2.3237,2.349,2.4824,2.5586,2.6723,2.8925,3.121,3.3573,-3.5609,-3.7617,-3.9968,-4.1568,-4.2559,-4.4021,-4.4518,-4.4219,-4.2416,-3.9578,-3.5602,-2.7094,-2.1043,-1.7105,-1.5809,-1.4728,-1.3917,-1.5051,-1.6256,-1.7555,-1.9216,-2.0352,-2.0982,-1.9388,-1.8038,-1.6881,-1.3483,-1.1248,-1.021,-1.2214,-1.2184,-1.0436,-1.5711,-1.8958,-1.9914,-1.964,-1.6601,-1.0615,0.6103,1.9827,3.0261,3.5609,3.9032,4.0457,4.0822,4.0762,4.0377,4.0193,4.019,4.0413,4.0853,4.1067,4.1001,4.1108,3.9722,3.6643,3.7166,3.5429,3.0626,3.1579,2.9903,2.3883,1.8311,1.5998,1.8162,1.9539,1.8356,1.3904,1.5826,1.8318,2.0716,2.0116,1.8912,1.7476,1.7084,1.5902,1.3544,1.6056,1.8137,1.817,1.8806,2.0321,2.2891,2.5421,2.7665,2.9451,3.1363,3.3795,3.7189,3.7392,3.6436,3.4788,3.0257,2.6664,2.5795,2.5457,2.5201,2.4525,2.42,2.4139,2.5452,2.4083,2.2882,2.3389,2.3047,2.2867,2.3674,2.4035,2.4814,2.6721,2.8663,3.0522,3.2053,3.3618,3.596,-3.6714,-3.9141,-4.0407,-4.1863,-4.3344,-4.3526,-4.32,-4.2459,-4.0477,-3.6009,-2.9602,-2.3914,-1.9839,-1.713,-1.5379,-1.4178,-1.3447,-1.4325,-1.5646,-1.7292,-1.7763,-1.8356,-1.9012,-1.77,-1.6313,-1.4904,-1.2996,-1.2195,-1.2512,-1.0989,-1.254,-1.6979,-1.7768,-2.0787,-2.5879,-2.7008,-2.1301,-0.8805,0.2651,1.4595,2.6699,3.3192,3.751,3.9818,4.05,4.1066,4.1427,4.2554,4.3351,4.3591,4.3998,4.4035,4.3589,4.2866,4.2198,4.1606,4.1127,3.9821,3.7363,3.2967,2.9247,2.659,2.3307,2.0333,1.8019,1.9662,1.9036,1.476,1.8036,2.0703,2.1204,1.9092,1.741,1.6772,1.5399,1.3882,1.2468,1.3493,1.5148,1.7774,1.87,1.9838,2.1797,2.3712,2.5603,2.7449,2.959,3.1518,3.3128,3.5081,3.4766,3.1134,2.7786,2.5754,2.6096,2.573,2.5479,2.5195,2.5446,2.547,2.5377,2.5384,2.4789,2.4265,2.3856,2.4083,2.5103,2.5834,2.6756,2.8459,3.0856,3.2944,3.3956,3.5806,3.795,-3.8694,-4.0907,-4.1824,-4.2751,-4.3498,-4.2928,-4.2322,-4.1679,-3.9673,-3.4749,-2.774,-2.3369,-2.0136,-1.7798,-1.5603,-1.4629,-1.4628,-1.5247,-1.6189,-1.7336,-1.7426,-1.7526,-1.7511,-1.5855,-1.4676,-1.3947,-1.3213,-1.4453,-1.7363,-1.7298,-1.8734,-2.1784,-2.3614,-2.5633,-2.7564,-2.9119,-2.3568,-1.093,-0.057,1.0992,2.3525,3.1053,3.6353,3.9534,4.0454,4.0978,4.1357,4.2785,4.356,4.3538,4.3912,4.4216,4.4478,4.3347,4.2931,4.358,4.2258,4.037,3.7905,3.4465,3.1274,2.8413,2.6257,2.4266,2.2383,2.3528,2.2446,1.8177,2.0277,2.1601,2.0841,1.8893,1.7463,1.6965,1.4811,1.2756,1.162,1.2479,1.4556,1.7375,1.9357,2.0461,2.0427,2.2445,2.4296,2.5895,2.8032,3.0019,3.1342,3.3556,3.3774,3.0431,2.8018,2.6476,2.6489,2.6689,2.6459,2.6181,2.6343,2.6412,2.611,2.5733,2.5289,2.4744,2.4776,2.5414,2.6916,2.7549,2.8207,2.9965,3.2436,3.4881,3.6331,3.7715,3.943,-4.1102,-4.2944,-4.3732,-4.3997,-4.3839,-4.2625,-4.1415,-4.0283,-3.8461,-3.4081,-2.7921,-2.3895,-2.0965,-1.8783,-1.6384,-1.552,-1.5916,-1.643,-1.6876,-1.729,-1.7353,-1.6992,-1.6231,-1.4475,-1.358,-1.3474,-1.3803,-1.6853,-2.2258,-2.4101,-2.5239,-2.6103,-2.9433,-3.0276,-2.8907,-3.0122,-2.5988,-1.6251,-0.4679,0.7378,1.9582,2.8202,3.4607,3.8941,4.0068,4.0693,4.11,4.2474,4.3074,4.2665,4.3014,4.3372,4.3678,4.3444,4.3629,4.4363,4.2009,3.9292,3.6428,3.5366,3.3297,2.9699,2.8326,2.7439,2.712,2.7417,2.6172,2.2562,2.2392,2.1668,1.9765,1.8728,1.7847,1.713,1.4449,1.2208,1.1261,1.2909,1.529,1.7571,2.0046,2.1127,1.9828,2.1666,2.3593,2.4883,2.7052,2.9166,3.0946,3.3048,3.3611,3.1364,2.9877,2.8666,2.7731,2.7969,2.8046,2.7251,2.7341,2.7393,2.6899,2.6188,2.5637,2.5616,2.5995,2.7319,2.918,2.9535,2.9884,3.1564,3.4102,3.6684,3.8776,3.9576,4.0745,-4.3802,-4.557,-4.5687,-4.571,-4.5481,-4.331,-3.9977,-3.6146,-3.494,-3.2513,-2.9003,-2.4693,-2.1589,-1.957,-1.7913,-1.6543,-1.5563,-1.6386,-1.6695,-1.6534,-1.6572,-1.6244,-1.5608,-1.4602,-1.3877,-1.3498,-1.4381,-1.8179,-2.3903,-2.4053,-2.6007,-3.0104,-3.0387,-3.1484,-3.3687,-3.3752,-3.1337,-2.6179,-1.1583,0.1728,1.324,2.3214,3.0914,3.6113,3.8334,4.0132,4.1621,4.3294,4.3802,4.284,4.339,4.2574,4.0199,4.3735,4.606,4.5438,4.0996,3.76,3.6103,3.4255,3.2264,3.0213,2.9665,2.8791,2.7129,2.7498,2.7526,2.6597,2.4125,2.1078,1.7788,1.7661,1.7294,1.5675,1.3635,1.2484,1.3156,1.522,1.723,1.8601,2.0294,2.1269,2.0807,2.1953,2.3221,2.4352,2.691,2.9567,3.1771,3.3382,3.3746,3.2998,3.2706,3.1877,3.0491,3.0117,2.9848,2.8857,2.8976,2.8705,2.751,2.7542,2.7504,2.705,2.7949,2.9694,3.2198,3.2354,3.2931,3.4629,3.6602,3.8613,4.0808,4.1535,4.2413,-4.5015,-4.6522,-4.5638,-4.5049,-4.453,-4.0917,-3.7181,-3.355,-3.171,-2.9867,-2.7928,-2.461,-2.2039,-2.0109,-1.8566,-1.7686,-1.7289,-1.7165,-1.7188,-1.7225,-1.6436,-1.5875,-1.5592,-1.472,-1.3842,-1.3321,-1.6061,-2.1307,-2.8113,-2.7969,-2.9924,-3.4191,-3.4196,-3.5468,-3.7986,-3.7836,-3.5979,-3.2411,-1.7351,-0.4377,0.6143,1.6384,2.493,3.1733,3.5289,3.8216,4.0221,4.1172,4.1146,4.0109,3.7872,3.5901,3.4431,3.8435,4.154,4.2757,3.5144,3.0766,3.1613,3.1151,3.0565,3.0087,3.0258,2.8078,2.2926,2.3706,2.535,2.7329,2.3915,2.0725,1.906,1.9008,1.8495,1.6881,1.5401,1.5247,1.6689,1.7554,1.8768,2.0169,2.1319,2.1767,2.1301,2.2468,2.3445,2.4359,2.7481,3.0728,3.2732,3.3802,3.4471,3.4494,3.4681,3.4239,3.3001,3.2068,3.1733,3.1777,3.1186,3.0376,2.9361,2.941,2.886,2.8372,3.0412,3.3178,3.5168,3.5549,3.6185,3.6919,3.8497,4.0268,4.2131,4.3818,4.4889,-4.5849,-4.6874,-4.4862,-4.2966,-4.0995,-3.7076,-3.3651,-3.0689,-2.8327,-2.6676,-2.5494,-2.3702,-2.1981,-2.0271,-1.9026,-1.8542,-1.8548,-1.797,-1.7702,-1.7696,-1.6456,-1.586,-1.5811,-1.502,-1.4308,-1.4257,-1.8003,-2.4044,-3.0892,-3.1996,-3.4359,-3.8151,-3.8872,-4.0065,-4.2147,-4.2057,-4.0686,-3.7484,-2.536,-1.335,-0.2284,0.7654,1.6414,2.3939,2.8055,3.1866,3.515,3.489,3.4588,3.4455,3.0528,2.7833,2.7168,3.0449,3.3302,3.4175,2.4927,2.0874,2.5305,2.7789,2.9288,2.9908,2.9601,2.5861,1.8288,1.8066,2.1017,2.4988,2.1991,1.9797,2.1107,2.1344,2.0801,1.9774,1.8753,1.8737,2.0132,2.0219,2.0338,2.1592,2.2283,2.2376,2.1827,2.2942,2.4676,2.6395,2.9193,3.1908,3.3359,3.4237,3.4925,3.5546,3.6132,3.6215,3.545,3.4492,3.4094,3.4783,3.3901,3.2928,3.2237,3.1524,3.0586,3.0064,3.3352,3.667,3.7995,3.9029,3.966,4.0092,4.0936,4.2206,4.4357,4.6328,4.7225,-4.6876,-4.6069,-4.3668,-3.9255,-3.3848,-3.1757,-2.9372,-2.6607,-2.4536,-2.2965,-2.188,-2.1826,-2.1013,-1.9748,-1.9302,-1.874,-1.8005,-1.831,-1.7959,-1.7058,-1.6497,-1.6188,-1.6194,-1.591,-1.5885,-1.6557,-2.005,-2.5076,-3.0956,-3.4272,-3.8388,-4.2945,-4.3936,-4.4694,-4.5865,-4.6085,-4.5441,-4.3966,-3.8347,-2.7995,-1.3057,-0.4297,0.3651,1.1056,1.3069,1.7273,2.3996,2.2002,2.2022,2.4554,2.2387,1.9878,1.825,2.0407,2.0918,1.8413,0.8493,0.6972,1.7578,2.4927,2.8817,2.9557,2.6585,2.0998,1.2121,1.0952,1.3983,1.9433,1.8507,1.8663,2.3148,2.4029,2.4327,2.4444,2.3533,2.2908,2.2608,2.2965,2.2832,2.1662,2.2765,2.2687,2.1341,2.3425,2.6743,2.9758,3.1139,3.2621,3.3759,3.4508,3.5285,3.5864,3.6964,3.7949,3.7713,3.738,3.671,3.6596,3.6798,3.6029,3.4976,3.4573,3.4336,3.26,3.5142,3.928,4.1853,4.3112,4.3441,4.3583,4.4148,4.5075,4.7416,4.8872,4.8927,-4.4127,-4.2573,-3.9239,-3.4484,-2.9233,-2.7258,-2.5355,-2.3253,-2.167,-2.0352,-1.9316,-1.9347,-1.9022,-1.8414,-1.8385,-1.82,-1.8006,-1.8124,-1.7891,-1.7343,-1.7035,-1.7062,-1.7342,-1.7757,-1.772,-1.78,-2.2568,-2.8243,-3.3933,-3.83,-4.2352,-4.5864,-4.6975,-4.8034,-4.9053,-4.9376,-4.8875,-4.7521,-4.4439,-3.8662,-2.987,-1.7901,-0.856,-0.2603,0.1867,0.6395,1.1148,1.1091,1.1873,1.3875,1.1628,0.9592,0.8436,0.9593,0.9612,0.7601,-0.1251,-0.2108,0.8313,1.7482,2.313,2.4209,1.854,1.2519,0.7517,0.882,1.1684,1.3787,1.4749,1.8097,2.5486,2.7888,2.8582,2.8396,2.7589,2.6363,2.4667,2.4655,2.4413,2.3716,2.3328,2.3209,2.3187,2.5082,2.801,3.0927,3.2145,3.3017,3.4097,3.4753,3.6035,3.8086,3.9775,3.9931,3.9053,3.8322,3.8153,3.8437,3.902,3.8849,3.728,3.6774,3.6408,3.5148,3.8078,4.1817,4.5859,4.506,4.4748,4.6039,4.7957,4.8957,5.0459,5.1256,5.1474,-4.1905,-3.9229,-3.4432,-2.9467,-2.5043,-2.3385,-2.1853,-2.048,-1.9446,-1.8602,-1.7913,-1.7879,-1.7811,-1.7804,-1.7769,-1.7853,-1.8039,-1.8115,-1.813,-1.8207,-1.8241,-1.8605,-1.9287,-2.0497,-2.0801,-2.1315,-2.5997,-3.1828,-3.7757,-4.1679,-4.5033,-4.759,-4.9197,-5.043,-5.1405,-5.19,-5.1684,-5.0579,-4.8755,-4.6373,-4.1965,-3.1785,-2.2415,-1.5815,-1.0916,-0.611,-0.1151,-0.1087,0.033,0.327,0.0899,-0.0503,-0.0433,0.059,-0.0049,-0.3291,-0.9802,-0.9852,-0.0569,0.7316,1.3103,1.5442,0.9945,0.5751,0.5645,0.8424,1.0366,1.0538,1.3192,1.9281,2.8043,3.09,3.1339,3.0634,2.9766,2.84,2.6648,2.611,2.5449,2.4786,2.3986,2.3978,2.5341,2.7199,2.952,3.1823,3.293,3.3486,3.4464,3.5343,3.6986,3.9844,4.1369,4.1314,3.9707,3.9204,3.931,3.9831,4.061,4.0968,3.9528,3.9315,3.8995,3.8633,4.0662,4.3361,4.7572,4.7455,4.7029,4.9313,5.1201,5.251,5.342,5.3917,5.4496,-4.1423,-3.7334,-2.9899,-2.4784,-2.1327,-2.039,-1.9278,-1.8475,-1.8144,-1.8031,-1.8036,-1.7863,-1.7977,-1.8373,-1.8279,-1.7917,-1.8155,-1.8658,-1.9137,-1.9595,-2.0343,-2.1194,-2.214,-2.4256,-2.5775,-2.6722,-3.0246,-3.5254,-4.1003,-4.3632,-4.6025,-4.8226,-5.0492,-5.2055,-5.2773,-5.3635,-5.3866,-5.3122,-5.1885,-5.0158,-4.7869,-4.4952,-3.7982,-2.8774,-2.6707,-2.1688,-1.4761,-1.5822,-1.4041,-0.7181,-0.8761,-0.9487,-0.8389,-0.5269,-0.7224,-1.5198,-1.8377,-1.6133,-0.8604,-0.5271,-0.1322,0.4733,0.3369,0.2214,0.5798,0.8892,1.0621,1.075,1.4942,2.1637,2.9349,3.1046,3.1183,3.0202,2.9333,2.8549,2.8112,2.6714,2.5527,2.4402,2.4264,2.5104,2.6836,2.9212,3.0955,3.2863,3.4291,3.4971,3.513,3.6368,3.7985,3.9553,4.0972,4.1542,4.0444,3.9922,4.0135,4.0578,4.1341,4.2674,4.2626,4.2359,4.1943,4.2031,4.363,4.603,4.9372,5.1064,5.1327,5.2744,5.4374,5.5672,5.6308,5.6521,5.7066,-3.7282,-3.0911,-2.6148,-2.2603,-2.0199,-1.9422,-1.8895,-1.8461,-1.8346,-1.8638,-1.9122,-1.915,-1.9697,-2.0711,-2.1146,-2.0839,-2.0074,-2.0866,-2.1484,-2.1955,-2.2768,-2.3599,-2.4491,-2.6343,-2.871,-3.1282,-3.4096,-3.8432,-4.3663,-4.5585,-4.7384,-4.9682,-5.1942,-5.3333,-5.3869,-5.4976,-5.528,-5.4484,-5.3749,-5.2394,-5.0258,-4.9,-4.5337,-3.9581,-3.5683,-3.1376,-2.6174,-2.5035,-2.2205,-1.7591,-1.6507,-1.5238,-1.3661,-1.0692,-1.2064,-1.863,-2.0368,-1.8665,-1.4195,-1.1525,-0.8662,-0.4599,-0.0696,0.2552,0.632,0.9312,1.0982,1.1797,1.6163,2.1615,2.4543,2.7503,2.8694,2.8083,2.7539,2.6993,2.6681,2.6282,2.5209,2.3183,2.3228,2.458,2.6412,2.8355,3.0251,3.2139,3.3943,3.5198,3.6133,3.6955,3.8024,3.9496,4.0854,4.1713,4.1252,4.0442,4.0253,4.0816,4.1501,4.2226,4.2482,4.4051,4.4081,4.3551,4.528,4.8448,5.1658,5.4568,5.5039,5.6416,5.8006,5.8341,5.9134,5.9128,5.9599,-3.451,-2.82,-2.5002,-2.2522,-2.0598,-2.0182,-1.988,-1.9721,-1.9683,-2.0082,-2.0667,-2.0886,-2.1782,-2.3235,-2.4237,-2.4621,-2.4086,-2.4329,-2.4634,-2.5269,-2.6226,-2.6997,-2.7897,-2.9609,-3.1963,-3.4942,-3.8251,-4.2123,-4.5832,-4.7305,-4.8684,-5.0313,-5.23,-5.3489,-5.4063,-5.5189,-5.5416,-5.4793,-5.4615,-5.3561,-5.1756,-5.104,-4.9398,-4.6224,-4.2106,-3.8049,-3.4406,-3.1395,-2.8443,-2.5361,-2.2862,-2.0453,-1.8072,-1.594,-1.6452,-2.0174,-2.0894,-1.9924,-1.7341,-1.4558,-1.2121,-1.0057,-0.3561,0.2341,0.6293,0.9046,1.0349,1.1901,1.5313,1.9068,2.0206,2.1769,2.3353,2.4613,2.468,2.4247,2.4245,2.4563,2.331,2.1245,2.1584,2.3231,2.5001,2.696,2.9108,3.127,3.3553,3.541,3.7098,3.7678,3.8577,4.0439,4.1683,4.2328,4.2121,4.1488,4.0986,4.1364,4.2546,4.2864,4.3525,4.5208,4.6104,4.5595,4.734,5.0666,5.3914,5.7135,5.8924,6.014,6.055,6.0751,6.1249,6.1579,6.1743,-3.3483,-2.9689,-2.6758,-2.4594,-2.2882,-2.2592,-2.222,-2.2103,-2.2273,-2.2777,-2.3406,-2.3279,-2.4583,-2.5973,-2.7198,-2.845,-2.96,-2.8711,-2.8442,-2.9207,-3.0391,-3.1224,-3.1854,-3.3722,-3.586,-3.8096,-4.2775,-4.5758,-4.7406,-4.8977,-4.9925,-5.0215,-5.1726,-5.297,-5.3451,-5.4265,-5.4534,-5.4418,-5.4561,-5.384,-5.2399,-5.1973,-5.0948,-4.8781,-4.6313,-4.2794,-3.7943,-3.5349,-3.273,-3.0249,-2.8183,-2.5408,-2.1826,-2.0371,-2.0508,-2.049,-2.0723,-1.982,-1.8051,-1.5289,-1.2609,-1.0216,-0.4763,0.0983,0.5016,0.7342,0.9086,1.1037,1.3452,1.5702,1.641,1.5519,1.649,2.0962,2.0705,2.0089,2.0905,2.1535,2.0898,1.8818,1.9554,2.1337,2.2912,2.5175,2.7894,3.059,3.3107,3.5363,3.7473,3.8279,4.0115,4.2179,4.2844,4.2662,4.2713,4.26,4.223,4.2232,4.3672,4.4586,4.5142,4.6449,4.7492,4.7615,5.0971,5.4297,5.7789,6.0649,6.1096,6.2081,6.2487,6.2804,6.3072,6.3264,6.3215,-3.5211,-3.2152,-2.9601,-2.7552,-2.6039,-2.5819,-2.589,-2.6019,-2.6229,-2.6995,-2.79,-2.778,-2.8784,-3.0397,-3.0976,-3.1959,-3.361,-3.3113,-3.2531,-3.199,-3.2445,-3.2949,-3.3596,-3.5095,-3.7929,-4.1642,-4.4743,-4.7501,-4.9648,-5.0874,-5.1431,-5.1813,-5.3027,-5.3669,-5.3591,-5.4312,-5.4723,-5.4614,-5.4705,-5.3995,-5.2607,-5.3207,-5.2883,-5.1299,-4.9302,-4.7066,-4.5032,-3.9961,-3.6509,-3.4866,-3.2561,-2.8985,-2.4588,-2.2209,-2.0822,-1.9757,-1.925,-1.8869,-1.7738,-1.4486,-1.1826,-0.9646,-0.4454,0.0411,0.3549,0.461,0.6334,0.9072,1.1461,1.2822,1.2415,1.1842,1.314,1.7004,1.6304,1.5571,1.5689,1.523,1.4918,1.5397,1.6736,1.8791,2.1265,2.3834,2.6322,2.8943,3.1832,3.4498,3.5901,3.8257,4.0275,4.2294,4.2472,4.2573,4.2219,4.2305,4.2537,4.2489,4.3671,4.499,4.5836,4.7693,4.8729,5.0658,5.409,5.7734,6.1258,6.2921,6.3131,6.3636,6.3953,6.4298,6.4642,6.4594,6.4419,-3.7833,-3.4789,-3.2659,-3.0916,-2.9663,-2.9617,-3.0079,-3.0487,-3.0509,-3.1423,-3.26,-3.2514,-3.3209,-3.4512,-3.4856,-3.5345,-3.5994,-3.5991,-3.5178,-3.403,-3.4296,-3.4624,-3.5208,-3.7077,-4.0244,-4.4179,-4.6635,-4.8975,-5.143,-5.2188,-5.2553,-5.2824,-5.364,-5.3939,-5.3624,-5.4129,-5.4361,-5.4113,-5.4543,-5.4272,-5.3427,-5.4072,-5.4288,-5.3266,-5.1554,-5.0324,-4.9243,-4.4448,-4.0905,-3.8667,-3.5041,-3.0432,-2.6148,-2.3294,-2.0912,-1.9327,-1.8565,-1.8061,-1.6972,-1.3359,-1.0665,-0.9059,-0.427,0.0106,0.2023,0.2391,0.3666,0.625,0.828,0.9107,0.8413,0.8889,1.0013,1.1351,1.1723,1.1331,1.0719,0.9981,1.0244,1.1743,1.4047,1.6733,1.9413,2.2278,2.4947,2.7731,3.0606,3.3372,3.4863,3.7672,3.9811,4.1308,4.1647,4.1578,4.1356,4.186,4.2662,4.2922,4.3339,4.44,4.5326,4.8525,5.0547,5.2494,5.5446,5.9709,6.328,6.374,6.4062,6.4688,6.5035,6.514,6.514,6.5394,6.5294,-4.0974,-3.7915,-3.5976,-3.4675,-3.3756,-3.3923,-3.4585,-3.5222,-3.5319,-3.6204,-3.7242,-3.7535,-3.7811,-3.8428,-3.8935,-3.8649,-3.7861,-3.7505,-3.6854,-3.5927,-3.6004,-3.6353,-3.7158,-3.9637,-4.2686,-4.5907,-4.8418,-5.0498,-5.229,-5.3177,-5.3349,-5.3301,-5.3608,-5.3475,-5.3637,-5.3736,-5.3575,-5.3315,-5.4303,-5.4461,-5.3885,-5.4789,-5.5123,-5.4945,-5.3495,-5.2239,-5.0992,-4.7903,-4.4947,-4.1732,-3.5342,-3.0741,-2.7708,-2.4082,-2.096,-1.9004,-1.851,-1.7356,-1.5479,-1.2208,-0.945,-0.8058,-0.4064,-0.0694,0.1033,0.1034,0.1338,0.3187,0.4605,0.5152,0.4859,0.5895,0.663,0.6097,0.7589,0.7752,0.6527,0.6601,0.7715,0.9051,1.1875,1.5247,1.7616,2.0646,2.3927,2.704,2.937,3.1733,3.4275,3.6648,3.9109,4.0181,4.0733,4.048,4.0186,4.1001,4.1732,4.1619,4.2297,4.3493,4.5333,4.8827,5.2159,5.4225,5.6899,6.1238,6.3913,6.4272,6.4628,6.5016,6.5261,6.5465,6.558,6.5678,6.5793,-4.3253,-4.1067,-3.9583,-3.8357,-3.772,-3.8542,-3.9407,-4.0123,-4.095,-4.2073,-4.3304,-4.3225,-4.3344,-4.3956,-4.2723,-4.1976,-4.1307,-3.9973,-3.8851,-3.7939,-3.7218,-3.7646,-3.8795,-4.1114,-4.3818,-4.6667,-4.9802,-5.2049,-5.3319,-5.4417,-5.4706,-5.4323,-5.467,-5.452,-5.3844,-5.374,-5.3783,-5.3676,-5.3923,-5.4398,-5.4713,-5.6018,-5.6498,-5.5849,-5.5341,-5.4255,-5.2615,-4.8155,-4.3637,-3.9561,-3.5246,-3.1794,-2.9264,-2.4676,-2.0963,-1.9056,-1.7774,-1.6553,-1.4352,-1.1027,-0.7892,-0.5114,-0.2503,-0.0265,0.0976,0.0118,0.0166,0.104,0.1713,0.2062,0.2452,0.3587,0.4318,0.4974,0.5821,0.6091,0.5666,0.6075,0.7134,0.898,1.1209,1.3804,1.6729,1.9512,2.2405,2.5123,2.7659,3.0022,3.2642,3.5446,3.7894,3.921,3.9765,3.9348,3.9348,4.0136,4.0528,4.0201,4.0968,4.2405,4.5129,4.8809,5.2112,5.5025,5.8165,6.2211,6.3766,6.459,6.4989,6.4997,6.5146,6.514,6.5536,6.5743,6.5836,-4.5675,-4.3553,-4.269,-4.2123,-4.1763,-4.3242,-4.4394,-4.532,-4.6441,-4.757,-4.8551,-4.8319,-4.8313,-4.8315,-4.6874,-4.5457,-4.4211,-4.2389,-4.0702,-3.9316,-3.8656,-3.9103,-4.0528,-4.2716,-4.539,-4.8276,-5.1252,-5.3029,-5.4097,-5.5204,-5.5441,-5.5093,-5.5229,-5.489,-5.4233,-5.3836,-5.3836,-5.3962,-5.418,-5.4585,-5.4938,-5.6562,-5.6834,-5.6325,-5.5978,-5.4785,-5.1321,-4.6445,-4.2019,-3.8397,-3.4671,-3.1474,-2.9098,-2.461,-2.0912,-1.8728,-1.653,-1.451,-1.2812,-0.9423,-0.5927,-0.3162,-0.0908,0.0364,0.0711,-0.0171,-0.0599,-0.0143,-0.0215,-0.0161,0.0291,0.1661,0.3001,0.3857,0.4806,0.5227,0.495,0.6126,0.7626,0.9327,1.0957,1.2738,1.5708,1.8182,2.0754,2.3303,2.5738,2.8179,3.0754,3.377,3.6593,3.8142,3.9007,3.8828,3.8991,3.9709,4.0546,4.0205,4.1399,4.2488,4.5606,4.9217,5.1755,5.5159,5.9042,6.2023,6.3268,6.4105,6.4199,6.4318,6.4573,6.466,6.4795,6.5326,6.5505,-4.8025,-4.5423,-4.5617,-4.5685,-4.6151,-4.7806,-4.9408,-5.0675,-5.1482,-5.2406,-5.3009,-5.28,-5.2412,-5.1999,-5.0814,-4.9171,-4.6997,-4.5425,-4.3001,-4.1547,-4.09,-4.1618,-4.303,-4.4752,-4.7457,-5.0326,-5.2682,-5.3861,-5.4675,-5.5451,-5.5711,-5.5476,-5.5075,-5.4782,-5.456,-5.4129,-5.3874,-5.412,-5.4616,-5.4975,-5.5357,-5.6548,-5.6746,-5.5769,-5.4713,-5.2353,-4.8283,-4.3976,-4.0296,-3.7577,-3.3615,-3.025,-2.7443,-2.3701,-2.0608,-1.7707,-1.4523,-1.2126,-1.0755,-0.7132,-0.3803,-0.1515,0.063,0.1539,0.0948,-0.014,-0.092,-0.065,-0.1304,-0.1647,-0.1676,0.0264,0.1819,0.2678,0.4001,0.4794,0.5192,0.6377,0.8122,0.9667,1.09,1.2425,1.4356,1.6499,1.8948,2.1769,2.4124,2.6415,2.8829,3.1509,3.4695,3.7648,3.8142,3.8376,3.8737,3.9309,4.0158,4.0729,4.2524,4.4282,4.7146,5.0047,5.1813,5.4713,5.8835,6.1365,6.2616,6.3163,6.323,6.3498,6.365,6.3504,6.3438,6.4299,6.4774,-4.9697,-4.8633,-4.8773,-4.9517,-5.0589,-5.2332,-5.3996,-5.5087,-5.6053,-5.6664,-5.688,-5.6485,-5.6273,-5.6183,-5.4606,-5.3233,-5.1717,-4.955,-4.7206,-4.4615,-4.4848,-4.5695,-4.6726,-4.7687,-4.9167,-5.1647,-5.374,-5.4761,-5.5165,-5.5641,-5.5943,-5.5847,-5.5499,-5.5248,-5.4723,-5.4661,-5.4543,-5.4608,-5.4828,-5.5215,-5.5738,-5.6433,-5.6248,-5.4591,-5.2271,-4.9117,-4.5409,-4.1349,-3.7255,-3.3558,-3.0613,-2.7719,-2.5272,-2.3116,-1.9921,-1.5846,-1.2307,-0.9609,-0.7708,-0.4722,-0.1593,0.0562,0.17,0.2304,0.1752,0.0,-0.0776,-0.09,-0.1638,-0.2527,-0.3086,-0.1441,0.0114,0.1297,0.266,0.3948,0.4827,0.6707,0.8487,0.9658,1.05,1.1627,1.3715,1.5566,1.7855,2.0283,2.2488,2.4702,2.7026,2.9411,3.3017,3.655,3.7954,3.8336,3.8873,3.9502,4.0285,4.1399,4.3317,4.4712,4.7637,4.993,5.1314,5.4616,5.8802,6.0676,6.1688,6.2066,6.2144,6.2463,6.2642,6.2414,6.2477,6.3338,6.4188,-5.2367,-5.1916,-5.2613,-5.3592,-5.4906,-5.6706,-5.8301,-5.9462,-6.0375,-6.0872,-6.0983,-6.0355,-6.0104,-6.0077,-5.8331,-5.6934,-5.5447,-5.2773,-5.0222,-4.8528,-4.872,-4.9676,-5.0896,-5.1668,-5.2771,-5.3967,-5.5395,-5.6276,-5.6581,-5.6253,-5.6289,-5.6631,-5.5703,-5.5522,-5.5638,-5.5324,-5.5421,-5.5884,-5.5673,-5.5673,-5.5768,-5.5671,-5.4188,-5.1643,-4.8671,-4.5479,-4.1544,-3.7351,-3.3195,-2.9428,-2.6159,-2.3929,-2.2854,-2.1795,-1.8827,-1.3485,-0.8859,-0.6593,-0.4755,-0.235,0.0432,0.2228,0.2897,0.265,0.1928,0.0276,-0.0575,-0.081,-0.1679,-0.2954,-0.4334,-0.3007,-0.1507,-0.0234,0.1357,0.2706,0.3993,0.6313,0.848,0.9451,1.0115,1.1394,1.3061,1.4776,1.6636,1.893,2.1194,2.335,2.5414,2.8036,3.2004,3.5214,3.725,3.8435,3.9061,3.9776,4.056,4.1997,4.3832,4.4888,4.6421,4.8534,5.041,5.4042,5.7622,5.931,6.0263,6.0621,6.0867,6.088,6.0905,6.1058,6.1363,6.1813,6.293,-5.5507,-5.5222,-5.6513,-5.7943,-5.9373,-6.1133,-6.2844,-6.4132,-6.4787,-6.5301,-6.5517,-6.4551,-6.4338,-6.3883,-6.2279,-6.0732,-5.871,-5.6193,-5.3881,-5.2846,-5.3145,-5.3823,-5.483,-5.6102,-5.7016,-5.693,-5.7352,-5.7999,-5.7913,-5.7237,-5.7062,-5.7412,-5.5836,-5.5733,-5.6719,-5.6224,-5.5935,-5.6823,-5.6382,-5.5658,-5.503,-5.4311,-5.2026,-4.7758,-4.4754,-4.1171,-3.6996,-3.2887,-2.8935,-2.5139,-2.099,-1.8968,-1.8622,-1.9304,-1.7761,-1.0766,-0.587,-0.3158,-0.2425,-0.0109,0.2382,0.3434,0.4109,0.364,0.255,0.0803,-0.0358,-0.1156,-0.206,-0.3817,-0.5529,-0.435,-0.2953,-0.1727,-0.0081,0.1425,0.2926,0.5418,0.7452,0.907,0.9847,1.0971,1.2345,1.3942,1.5736,1.7653,1.99,2.2046,2.4119,2.7014,3.1098,3.4698,3.6999,3.8651,3.937,4.0088,4.0938,4.2163,4.4134,4.4872,4.5644,4.7242,4.9463,5.2612,5.5544,5.7424,5.8722,5.9064,5.9177,5.9156,5.9391,5.9682,6.0003,6.0307,6.169,-5.8744,-5.9059,-6.0678,-6.237,-6.4612,-6.6009,-6.7565,-6.9176,-6.9696,-7.0324,-7.0387,-6.9661,-6.9099,-6.8455,-6.7135,-6.5154,-6.3073,-6.0774,-5.9294,-5.8289,-5.8275,-5.8381,-5.8916,-6.0137,-6.1079,-6.0838,-6.0083,-5.9249,-5.8961,-5.8362,-5.7775,-5.7747,-5.6948,-5.6846,-5.6748,-5.653,-5.6451,-5.6823,-5.6242,-5.5329,-5.415,-5.2479,-4.9279,-4.3957,-4.0493,-3.6467,-3.2059,-2.845,-2.4875,-2.0803,-1.7409,-1.4479,-1.2956,-1.4226,-1.3383,-0.9741,-0.3918,-0.0449,-0.0112,0.2137,0.403,0.5068,0.5803,0.5529,0.3781,0.1419,-0.0239,-0.1575,-0.3148,-0.5157,-0.6563,-0.5376,-0.4178,-0.298,-0.1537,0.019,0.1797,0.3906,0.6376,0.8193,0.9253,1.0449,1.1908,1.3495,1.5386,1.7498,1.9851,2.1722,2.3537,2.6743,3.0572,3.3997,3.7201,3.8608,3.9741,4.0524,4.133,4.2303,4.3717,4.4503,4.5373,4.6431,4.8596,5.097,5.3741,5.6219,5.7115,5.7537,5.7819,5.8012,5.8186,5.8367,5.8741,5.9223,6.0893,-6.3225,-6.4423,-6.5513,-6.7206,-6.9093,-6.9745,-7.109,-7.289,-7.3602,-7.4222,-7.4621,-7.4458,-7.3912,-7.3191,-7.2314,-7.0299,-6.7993,-6.5964,-6.4848,-6.4148,-6.3177,-6.2823,-6.3009,-6.4008,-6.43,-6.4159,-6.3037,-6.1601,-6.0613,-5.8605,-5.8235,-5.808,-5.7241,-5.6613,-5.693,-5.6927,-5.6888,-5.6703,-5.5846,-5.4472,-5.2513,-4.9953,-4.4548,-3.9451,-3.5535,-3.1535,-2.7154,-2.3624,-2.0418,-1.699,-1.4013,-1.0762,-0.8821,-0.8328,-0.905,-0.6737,-0.1942,0.1401,0.1655,0.3486,0.5168,0.6096,0.6739,0.6026,0.4199,0.1879,-0.0229,-0.1546,-0.3681,-0.5877,-0.7387,-0.6269,-0.5217,-0.4033,-0.2614,-0.0899,0.0952,0.2785,0.4901,0.7106,0.8359,0.9791,1.1552,1.3248,1.5124,1.738,1.9794,2.1576,2.3117,2.644,3.0134,3.4352,3.7684,3.9154,4.0204,4.0743,4.1497,4.2441,4.3113,4.3927,4.4713,4.5608,4.665,4.827,5.1233,5.3846,5.5958,5.6548,5.671,5.6743,5.6673,5.6787,5.7443,5.8385,6.0071,-6.7741,-6.9821,-7.0344,-7.1686,-7.3127,-7.2893,-7.3975,-7.5996,-7.6781,-7.7782,-7.889,-7.9053,-7.8745,-7.7927,-7.6963,-7.5494,-7.3323,-7.1546,-7.0572,-6.9499,-6.834,-6.7745,-6.7515,-6.7596,-6.7592,-6.7195,-6.6132,-6.493,-6.2483,-5.9823,-5.8701,-5.8348,-5.7011,-5.6479,-5.7144,-5.7085,-5.7014,-5.6504,-5.538,-5.3605,-5.0199,-4.4999,-3.9349,-3.3937,-3.0746,-2.7071,-2.2814,-1.9619,-1.699,-1.4041,-1.1029,-0.7707,-0.4716,-0.402,-0.3805,-0.2725,0.074,0.2362,0.3337,0.4202,0.5769,0.671,0.6634,0.5731,0.3914,0.1734,-0.0353,-0.138,-0.3555,-0.602,-0.7514,-0.6995,-0.6051,-0.511,-0.3585,-0.1717,0.0459,0.2296,0.3808,0.5678,0.7303,0.9059,1.0825,1.3076,1.4981,1.7442,1.9904,2.1502,2.328,2.605,2.9898,3.4797,3.8202,3.9801,4.0696,4.0868,4.1528,4.2254,4.2679,4.3137,4.3849,4.4633,4.5636,4.6513,4.752,5.0101,5.2788,5.5229,5.5306,5.521,5.4999,5.5236,5.5913,5.7516,5.9395,-7.1246,-7.3927,-7.4591,-7.5589,-7.6493,-7.593,-7.6661,-7.8381,-7.9631,-8.1255,-8.2143,-8.3101,-8.3184,-8.2693,-8.1691,-8.0393,-7.9108,-7.7986,-7.6583,-7.5172,-7.4093,-7.2952,-7.1981,-7.204,-7.0988,-7.0031,-6.8457,-6.633,-6.3896,-6.1468,-5.9746,-5.8949,-5.8022,-5.7566,-5.6955,-5.6927,-5.7014,-5.662,-5.483,-5.1593,-4.692,-4.0998,-3.6048,-3.1706,-2.7559,-2.3385,-1.9408,-1.6386,-1.4095,-1.2566,-0.8568,-0.4867,-0.2042,-0.1211,0.0225,0.1825,0.3604,0.4586,0.5024,0.5427,0.593,0.6681,0.6752,0.5758,0.344,0.1028,-0.0844,-0.104,-0.3434,-0.5893,-0.7464,-0.686,-0.6484,-0.5572,-0.4147,-0.1815,0.0402,0.158,0.3095,0.503,0.6868,0.8442,1.0098,1.2531,1.491,1.7492,1.9834,2.1531,2.3957,2.7117,3.0628,3.5744,3.8147,3.9683,4.0572,4.0805,4.1315,4.2009,4.2275,4.241,4.3024,4.3667,4.4317,4.5179,4.5824,4.6866,4.9642,5.179,5.3083,5.3864,5.3893,5.4095,5.4396,5.6417,5.8874,-7.3376,-7.6454,-7.6917,-7.7876,-7.8829,-7.7821,-7.7945,-7.9281,-8.0818,-8.2352,-8.3839,-8.5302,-8.6092,-8.6421,-8.6015,-8.5549,-8.482,-8.3904,-8.2794,-8.0997,-7.9698,-7.816,-7.6865,-7.5697,-7.436,-7.2537,-7.0459,-6.8093,-6.5384,-6.2143,-5.9746,-5.8611,-5.7519,-5.6572,-5.6406,-5.6425,-5.578,-5.4343,-5.1703,-4.7919,-4.3349,-3.82,-3.2889,-2.8023,-2.3749,-1.9819,-1.6338,-1.3455,-1.1268,-0.9496,-0.5883,-0.2713,-0.0095,0.1289,0.2505,0.4429,0.6167,0.6507,0.5837,0.5914,0.6085,0.6108,0.5933,0.4624,0.2035,0.0067,-0.1121,-0.1105,-0.3176,-0.5587,-0.7452,-0.6881,-0.6482,-0.5685,-0.4361,-0.192,0.0156,0.1043,0.2458,0.4457,0.6415,0.799,0.9834,1.2452,1.5247,1.8319,2.0475,2.2103,2.5464,2.952,3.3176,3.7258,3.853,3.919,3.9889,4.0337,4.0755,4.1323,4.1775,4.1939,4.2195,4.2741,4.3355,4.3489,4.3673,4.5091,4.7037,4.8875,5.0714,5.1922,5.2935,5.3376,5.4027,5.6489,5.907,-7.3592,-7.7293,-7.819,-7.9262,-8.0392,-7.8677,-7.8561,-7.9549,-8.0823,-8.2392,-8.4381,-8.6531,-8.8759,-9.0081,-9.0294,-9.0269,-9.0044,-8.9131,-8.8022,-8.6588,-8.4892,-8.3017,-8.1212,-7.9439,-7.7183,-7.506,-7.2018,-6.9294,-6.6022,-6.2711,-5.9725,-5.8231,-5.7003,-5.6047,-5.5615,-5.5509,-5.4939,-5.2418,-4.9084,-4.5306,-4.1131,-3.616,-3.0702,-2.5529,-2.079,-1.6887,-1.3843,-1.1259,-0.9025,-0.657,-0.3841,-0.0483,0.2975,0.3808,0.4826,0.6539,0.8285,0.8134,0.6941,0.6235,0.5881,0.5462,0.4718,0.3313,0.061,-0.0822,-0.1207,-0.1151,-0.3122,-0.5513,-0.7185,-0.684,-0.6337,-0.5549,-0.4463,-0.1997,0.0125,0.0933,0.2118,0.4069,0.5954,0.7654,0.9743,1.2438,1.5513,1.8906,2.1117,2.2775,2.6521,3.0864,3.4391,3.7772,3.8151,3.8714,3.9464,3.9937,4.0383,4.0765,4.1148,4.1403,4.1595,4.1882,4.233,4.2237,4.2011,4.2866,4.4524,4.6513,4.8461,4.9866,5.1268,5.2693,5.4085,5.6614,5.9224,-7.1096,-7.5994,-7.8813,-8.0262,-8.0616,-7.8665,-7.8325,-7.9099,-7.9899,-8.1736,-8.4528,-8.8053,-9.1176,-9.3244,-9.3992,-9.4248,-9.4112,-9.3709,-9.2425,-9.0926,-8.9329,-8.7369,-8.5155,-8.264,-7.9945,-7.6775,-7.3306,-6.979,-6.6426,-6.2663,-6.0184,-5.8431,-5.6741,-5.6042,-5.5379,-5.4727,-5.3311,-5.0782,-4.7567,-4.4129,-3.9762,-3.4795,-2.94,-2.4627,-1.9841,-1.5804,-1.3202,-1.0344,-0.7843,-0.5251,-0.1849,0.1916,0.5481,0.6054,0.6974,0.8696,0.9653,0.9266,0.7882,0.6676,0.5727,0.4793,0.3593,0.212,-0.0072,-0.0921,-0.1202,-0.142,-0.3142,-0.5103,-0.6361,-0.6522,-0.5931,-0.5317,-0.4163,-0.2015,-0.0214,0.0638,0.1924,0.3754,0.554,0.731,0.9266,1.1858,1.5126,1.8488,2.2207,2.4,2.7133,3.1161,3.4394,3.7063,3.749,3.8178,3.9157,3.9661,3.9819,4.0261,4.0736,4.0896,4.1023,4.1279,4.1534,4.1149,4.0945,4.1451,4.2291,4.4684,4.6702,4.8182,4.9861,5.2151,5.4421,5.6845,5.9448,-6.7648,-7.2513,-7.6428,-7.868,-7.9603,-7.8025,-7.7551,-7.8006,-7.8988,-8.19,-8.5877,-8.9449,-9.2561,-9.4972,-9.686,-9.7695,-9.7919,-9.7801,-9.6541,-9.5208,-9.3583,-9.1241,-8.8538,-8.5506,-8.2475,-7.875,-7.4413,-6.9548,-6.5518,-6.2235,-5.9753,-5.7775,-5.6318,-5.5541,-5.4792,-5.3571,-5.1714,-4.9775,-4.6652,-4.3118,-3.8931,-3.3589,-2.814,-2.3061,-1.8853,-1.4875,-1.1853,-0.9233,-0.7135,-0.4465,-0.0312,0.4076,0.7706,0.7973,0.9125,1.0432,1.0921,0.9966,0.8583,0.7286,0.6129,0.4271,0.2745,0.1084,-0.0447,-0.1155,-0.1333,-0.1926,-0.301,-0.4894,-0.6018,-0.5897,-0.537,-0.4951,-0.3757,-0.1786,-0.0492,0.0395,0.1543,0.3292,0.518,0.7016,0.9051,1.1156,1.4585,1.8058,2.1851,2.5423,2.8267,3.1031,3.4222,3.679,3.7419,3.7642,3.8571,3.8985,3.9304,3.9838,4.0373,4.053,4.072,4.0659,4.0784,4.0273,4.0,4.0448,4.1511,4.3346,4.5174,4.7,4.975,5.2747,5.4969,5.7236,5.9498,-6.3422,-6.8605,-7.303,-7.6271,-7.8303,-7.7534,-7.6918,-7.6788,-7.7674,-8.1166,-8.6395,-8.964,-9.325,-9.6267,-9.8521,-9.9883,-10.0342,-10.0433,-9.9848,-9.8469,-9.6688,-9.452,-9.162,-8.842,-8.5025,-8.0988,-7.5117,-6.9845,-6.4465,-6.1499,-5.9226,-5.7371,-5.5892,-5.5151,-5.4188,-5.2268,-5.0453,-4.8635,-4.5791,-4.1865,-3.774,-3.2487,-2.727,-2.2211,-1.8039,-1.4617,-1.1509,-0.8892,-0.6813,-0.3757,0.0273,0.5461,0.8257,1.0092,1.1152,1.1653,1.146,1.0458,0.933,0.7393,0.5945,0.4161,0.2514,0.078,-0.0687,-0.1478,-0.1677,-0.1584,-0.2931,-0.4528,-0.5902,-0.586,-0.5428,-0.5098,-0.3543,-0.1756,-0.0685,0.0288,0.1444,0.2794,0.4775,0.6809,0.8905,1.1224,1.5306,1.8843,2.2641,2.5768,2.8001,3.0777,3.3552,3.5887,3.7566,3.7769,3.7979,3.8553,3.9127,3.9852,4.0319,4.0442,4.0508,4.0449,4.0196,3.9715,3.9509,3.9548,4.1018,4.3219,4.4742,4.6116,4.9418,5.3013,5.5782,5.7986,5.9392,-5.8259,-6.4415,-6.8854,-7.3364,-7.7206,-7.7063,-7.6347,-7.5935,-7.627,-7.9332,-8.4824,-8.9119,-9.329,-9.6954,-9.9124,-10.0793,-10.1938,-10.19,-10.155,-10.0718,-9.9198,-9.7432,-9.4779,-9.1528,-8.7794,-8.3722,-7.7347,-7.0191,-6.3322,-6.1226,-5.9049,-5.7138,-5.5643,-5.4667,-5.4339,-5.2122,-4.9748,-4.7315,-4.4451,-4.0669,-3.6213,-3.1436,-2.663,-2.1971,-1.7797,-1.447,-1.159,-0.8462,-0.6348,-0.412,0.1712,0.7048,1.1181,1.1952,1.2789,1.3605,1.2051,1.1136,1.0664,0.7384,0.5358,0.4176,0.2817,0.101,-0.1019,-0.2009,-0.2097,-0.1965,-0.3038,-0.4879,-0.5836,-0.629,-0.5837,-0.4871,-0.3383,-0.1962,-0.0885,0.0023,0.1123,0.241,0.4502,0.6666,0.8767,1.1474,1.5928,1.9854,2.3576,2.6164,2.7919,3.0203,3.2825,3.502,3.694,3.7359,3.76,3.8384,3.8997,3.9787,4.0073,3.9996,4.0216,4.0348,3.9908,3.9281,3.9495,3.9935,4.1512,4.3392,4.5466,4.7736,5.0104,5.3252,5.6206,5.8462,5.9648,-5.4057,-5.9872,-6.5473,-7.0171,-7.3503,-7.4226,-7.4285,-7.4286,-7.6215,-7.9665,-8.4118,-8.8346,-9.2259,-9.5912,-9.8937,-10.0978,-10.2292,-10.3125,-10.2817,-10.236,-10.1255,-9.9466,-9.721,-9.4621,-9.0865,-8.5555,-7.8847,-7.0736,-6.2233,-6.0827,-5.9056,-5.7082,-5.483,-5.3767,-5.2746,-5.1007,-4.8937,-4.6463,-4.3535,-3.9958,-3.5348,-3.0847,-2.6338,-2.1604,-1.7809,-1.4559,-1.1641,-0.837,-0.5888,-0.3559,0.2627,0.8786,1.3187,1.447,1.4466,1.4283,1.2626,1.0863,0.9682,0.7298,0.5651,0.457,0.335,0.1261,-0.1456,-0.3207,-0.3035,-0.2844,-0.3929,-0.6303,-0.9266,-0.7441,-0.6384,-0.5177,-0.3716,-0.2218,-0.1044,-0.0301,0.0681,0.2143,0.399,0.6772,0.9119,1.1259,1.5256,1.8493,2.1813,2.4968,2.7029,2.9297,3.1792,3.405,3.5859,3.6522,3.7151,3.7831,3.8233,3.8635,3.9005,3.9175,3.9495,4.005,3.996,3.9534,3.9969,4.0554,4.2242,4.4262,4.7234,4.9787,5.1757,5.3973,5.6855,5.8511,5.9339,-5.0037,-5.5654,-6.1841,-6.6557,-6.9917,-7.2212,-7.3046,-7.3528,-7.5984,-7.9324,-8.3157,-8.6839,-9.0897,-9.4631,-9.7605,-9.9876,-10.1451,-10.2469,-10.3464,-10.3185,-10.3202,-10.2246,-10.065,-9.8053,-9.479,-8.8988,-8.1516,-7.3036,-6.3164,-6.1244,-5.862,-5.5591,-5.3379,-5.1415,-5.0183,-4.8654,-4.7003,-4.4221,-4.1029,-3.7945,-3.3737,-2.9693,-2.579,-2.1666,-1.7975,-1.4716,-1.1571,-0.8461,-0.5291,-0.1847,0.3434,0.9822,1.3685,1.5843,1.5739,1.5069,1.293,1.102,0.9285,0.7741,0.6288,0.5255,0.3882,0.1226,-0.1858,-0.3802,-0.4001,-0.4161,-0.528,-0.7838,-1.0261,-0.8144,-0.6885,-0.5683,-0.379,-0.2267,-0.0923,-0.014,0.0998,0.238,0.4417,0.7106,0.9545,1.1684,1.4402,1.712,1.9879,2.291,2.6027,2.8433,3.0639,3.2752,3.4751,3.569,3.6455,3.7186,3.7501,3.7629,3.8063,3.8565,3.9122,3.9664,3.9716,3.98,4.0114,4.0896,4.2873,4.5192,4.8141,5.0638,5.2738,5.5094,5.7662,5.8496,5.8935,-4.6373,-5.1667,-5.7698,-6.2792,-6.6857,-7.0953,-7.2868,-7.3375,-7.5068,-7.7929,-8.1532,-8.4967,-8.8787,-9.2977,-9.5479,-9.7285,-9.9131,-10.0624,-10.2137,-10.3464,-10.3984,-10.443,-10.415,-10.194,-9.8476,-9.3513,-8.6125,-7.6076,-6.5372,-6.0974,-5.7466,-5.3472,-5.0795,-4.8234,-4.6417,-4.4588,-4.325,-4.0849,-3.8135,-3.5009,-3.1215,-2.8036,-2.4592,-2.1012,-1.7803,-1.4979,-1.1994,-0.8883,-0.5296,-0.1247,0.3726,0.8115,1.197,1.5187,1.626,1.5786,1.3042,1.0981,0.9485,0.7995,0.6712,0.5411,0.308,0.0373,-0.2121,-0.4195,-0.4705,-0.558,-0.6797,-0.8732,-1.0318,-0.8963,-0.7649,-0.579,-0.37,-0.2155,-0.0693,0.0479,0.1682,0.3337,0.5512,0.7857,0.9931,1.2058,1.386,1.5504,1.8133,2.0746,2.391,2.7445,2.9486,3.1233,3.3117,3.4831,3.5713,3.6463,3.6821,3.7009,3.7819,3.8355,3.8914,3.9221,3.9378,3.9563,4.0018,4.1346,4.3886,4.6432,4.9038,5.138,5.3518,5.5303,5.7606,5.7848,5.8335,-4.5214,-4.973,-5.5246,-6.0447,-6.5169,-6.8511,-7.0758,-7.2397,-7.417,-7.6714,-7.9962,-8.3244,-8.6142,-8.8934,-9.1638,-9.3498,-9.5606,-9.7835,-10.0104,-10.2067,-10.4481,-10.5924,-10.6053,-10.4903,-10.1748,-9.6499,-8.9061,-7.9578,-6.9488,-6.2854,-5.5409,-5.0885,-4.764,-4.4311,-4.1084,-3.8543,-3.7986,-3.7064,-3.4469,-3.1681,-2.8924,-2.5971,-2.3045,-2.024,-1.7648,-1.4975,-1.2284,-0.8881,-0.5354,-0.2015,0.3629,0.8442,1.2053,1.46,1.6,1.5393,1.2787,1.0422,0.9482,0.7769,0.634,0.525,0.2958,0.0278,-0.2247,-0.4362,-0.5502,-0.6327,-0.8255,-1.034,-1.1151,-1.0238,-0.8261,-0.5898,-0.3559,-0.1207,0.0199,0.128,0.2614,0.5267,0.7394,0.8487,1.0521,1.2096,1.3757,1.4763,1.6388,1.8942,2.1708,2.5207,2.8728,3.0427,3.2107,3.3984,3.499,3.5773,3.6084,3.6446,3.725,3.7875,3.8239,3.855,3.8894,3.9832,4.1042,4.3088,4.5503,4.7853,4.986,5.2121,5.4225,5.5788,5.7063,5.7315,5.7632,-4.4923,-4.8408,-5.3204,-5.8708,-6.4065,-6.6594,-6.83,-6.957,-7.1777,-7.4525,-7.7532,-8.0201,-8.2646,-8.4553,-8.6451,-8.8416,-9.0979,-9.461,-9.76,-10.1197,-10.4636,-10.7402,-10.8222,-10.7895,-10.54,-9.9847,-9.2306,-8.2796,-7.1834,-6.0551,-5.2318,-4.7521,-4.4098,-3.9682,-3.5827,-3.2682,-3.1172,-3.0945,-2.9966,-2.7881,-2.5742,-2.3837,-2.189,-1.9489,-1.7186,-1.5084,-1.2547,-0.8986,-0.5972,-0.2569,0.3268,0.7467,1.1019,1.3792,1.5429,1.4672,1.2163,1.0365,0.9184,0.7492,0.6217,0.4733,0.2535,-0.0601,-0.2995,-0.5202,-0.5575,-0.622,-0.9171,-1.154,-1.1686,-1.14,-0.8688,-0.6021,-0.3078,-0.0119,0.11,0.2164,0.45,0.7281,0.8802,0.9692,1.1002,1.2446,1.3629,1.4584,1.5468,1.6924,1.9597,2.265,2.6834,3.0071,3.1646,3.3283,3.4275,3.5295,3.5757,3.6117,3.6491,3.7077,3.7447,3.7949,3.8469,4.0405,4.2669,4.4621,4.646,4.8419,5.0453,5.2636,5.4337,5.539,5.6337,5.6843,5.719,-4.5389,-4.7648,-5.1917,-5.76,-6.3239,-6.4817,-6.5077,-6.492,-6.7537,-7.1074,-7.3889,-7.6211,-7.8142,-7.9615,-8.0846,-8.3077,-8.6507,-9.0491,-9.524,-9.9623,-10.4754,-10.8297,-11.0562,-11.1088,-10.8038,-10.325,-9.5547,-8.4795,-7.1289,-5.9228,-4.9348,-4.412,-3.9247,-3.4959,-3.1278,-2.7857,-2.614,-2.5118,-2.5184,-2.4216,-2.2449,-2.1421,-2.105,-1.8872,-1.715,-1.5531,-1.2826,-0.9784,-0.6638,-0.2268,0.1995,0.6146,1.0314,1.3184,1.4571,1.351,1.103,0.9637,0.8331,0.6775,0.5761,0.3983,0.1569,-0.1395,-0.378,-0.5774,-0.629,-0.6551,-0.9074,-1.1062,-1.1632,-1.0814,-0.8674,-0.5117,-0.1642,0.162,0.4127,0.5466,0.7564,0.984,1.0791,1.1571,1.1961,1.3347,1.374,1.4527,1.5673,1.6546,1.8016,2.0865,2.515,2.9576,3.1656,3.3217,3.4298,3.5217,3.5656,3.599,3.6517,3.7151,3.8203,3.8314,3.8139,4.0606,4.3249,4.526,4.7168,4.9154,5.1039,5.2783,5.4187,5.4839,5.5527,5.6137,5.6422,-4.7559,-4.8771,-5.3899,-5.7694,-5.9882,-6.1054,-6.0694,-5.9573,-6.0339,-6.3998,-6.8922,-7.0706,-7.2228,-7.3724,-7.5508,-7.7819,-8.1085,-8.6223,-9.1792,-9.7556,-10.3244,-10.8436,-11.1582,-11.2069,-10.9772,-10.5532,-9.7566,-8.4278,-6.6789,-5.4761,-4.6399,-4.0703,-3.574,-3.1481,-2.7691,-2.4519,-2.2703,-2.1142,-2.0716,-2.0864,-1.9794,-1.8755,-1.7981,-1.7294,-1.6376,-1.4938,-1.227,-0.9141,-0.5678,-0.1741,0.2659,0.733,1.2276,1.3693,1.3041,1.1118,0.9197,0.7926,0.7041,0.5836,0.489,0.4033,0.1899,-0.1355,-0.4043,-0.6047,-0.7207,-0.7444,-0.8371,-1.0215,-1.0848,-0.9772,-0.808,-0.4039,0.0021,0.3573,0.7124,0.9095,1.0874,1.2094,1.3034,1.3312,1.3624,1.3867,1.405,1.5067,1.6539,1.7545,1.801,2.0219,2.4737,2.8851,3.1698,3.3316,3.461,3.5328,3.5868,3.7094,3.8014,3.8537,3.9024,3.8672,3.8611,4.1178,4.3648,4.5759,4.7843,4.9911,5.1724,5.3144,5.4037,5.4726,5.4829,5.5261,5.5417,-4.8967,-4.927,-5.3107,-5.5203,-5.5851,-5.6241,-5.5503,-5.4128,-5.3476,-5.5453,-5.9797,-6.2937,-6.5528,-6.7208,-6.9459,-7.2221,-7.5408,-8.1201,-8.7632,-9.4202,-10.1423,-10.715,-11.0313,-11.2708,-11.0364,-10.6196,-9.3453,-7.8516,-6.1231,-5.1391,-4.4103,-3.7894,-3.2926,-2.8636,-2.4982,-2.2788,-2.1036,-1.9287,-1.8346,-1.7968,-1.7975,-1.7423,-1.7109,-1.6704,-1.6016,-1.4567,-1.2249,-0.9111,-0.5387,-0.0951,0.3925,0.7501,1.1156,1.2792,1.1175,0.8321,0.6156,0.5271,0.4935,0.4444,0.3797,0.3242,0.2021,-0.1322,-0.21,-0.4035,-0.6603,-0.7085,-0.8382,-1.0106,-0.8409,-0.7124,-0.5053,-0.1713,0.2405,0.6241,0.9621,1.2374,1.4491,1.6451,1.6605,1.5767,1.606,1.6402,1.6701,1.7424,1.8683,1.8529,1.8959,2.0098,2.4532,2.8679,3.1825,3.4626,3.659,3.6635,3.619,3.7594,3.9236,3.9554,3.9682,3.9064,3.9325,4.1504,4.3878,4.6389,4.8476,5.0447,5.178,5.3024,5.3842,5.4576,5.4571,5.4533,5.4661,-5.0306,-4.9423,-5.0994,-5.1663,-5.1433,-5.0883,-4.9765,-4.825,-4.7067,-4.7054,-4.8867,-5.4,-5.7419,-6.0366,-6.2626,-6.5658,-7.0014,-7.6254,-8.3099,-9.139,-9.979,-10.5673,-11.0205,-11.2902,-10.9587,-10.0806,-8.7921,-7.395,-5.8726,-4.9821,-4.1969,-3.5518,-3.0622,-2.6271,-2.3703,-2.1703,-2.025,-1.9417,-1.8566,-1.7493,-1.7133,-1.687,-1.6882,-1.6665,-1.6126,-1.4925,-1.2536,-0.9213,-0.5237,-0.0426,0.4691,0.7643,0.9658,1.1058,0.8544,0.5763,0.2513,0.2403,0.2699,0.2663,0.2731,0.2422,0.098,0.018,-0.0532,-0.1681,-0.4245,-0.6485,-0.779,-0.83,-0.6577,-0.3889,-0.1687,0.0912,0.5046,0.8972,1.2258,1.578,1.8404,2.0604,1.9831,1.8802,1.8829,1.9144,1.9536,2.025,2.0496,1.9997,2.0224,2.1967,2.4917,2.9198,3.2951,3.5648,3.7879,3.7845,3.693,3.8068,3.9578,4.0092,4.0384,3.995,4.0166,4.1384,4.3806,4.676,4.8881,5.0723,5.1926,5.2855,5.3521,5.415,5.4292,5.4259,5.4156,-5.2713,-5.0131,-4.9381,-4.8161,-4.6765,-4.5655,-4.3998,-4.2098,-4.1548,-4.1843,-4.2477,-4.3144,-4.6904,-5.3987,-5.6384,-5.9672,-6.4488,-7.1238,-7.9862,-8.8419,-9.7124,-10.3932,-10.8927,-11.1532,-10.6648,-9.6546,-8.3787,-6.93,-5.7371,-4.8086,-4.0138,-3.3746,-2.9683,-2.6465,-2.4766,-2.2946,-2.1627,-2.0625,-1.9755,-1.8968,-1.8004,-1.7613,-1.6901,-1.6488,-1.5889,-1.4205,-1.1704,-0.7817,-0.3816,0.0599,0.4862,0.7257,0.844,0.9112,0.7027,0.3297,0.0,-0.0356,0.0099,0.087,0.1253,0.1992,0.1254,0.1907,0.1876,0.2597,-0.0269,-0.3621,-0.5204,-0.7023,-0.5449,-0.1046,0.1856,0.474,0.8346,1.1822,1.5221,1.9411,2.3106,2.3651,2.3256,2.2653,2.2397,2.2494,2.2423,2.3177,2.4101,2.3488,2.1718,2.3556,2.5669,2.9853,3.4137,3.5849,3.7709,3.8265,3.8014,3.9032,3.9948,4.0656,4.1009,4.1016,4.1438,4.2026,4.4495,4.7631,4.9492,5.0919,5.1604,5.2432,5.3112,5.3648,5.3804,5.3711,5.3308]}]]